<?xml version="1.0" encoding="UTF-8" standalone="no" ?><gpx xmlns="http://www.topografix.com/GPX/1/1" xmlns:gpxx="http://www.garmin.com/xmlschemas/GpxExtensions/v3" xmlns:wptx1="http://www.garmin.com/xmlschemas/WaypointExtension/v1" xmlns:gpxtpx="http://www.garmin.com/xmlschemas/TrackPointExtension/v1" creator="Dakota 20" version="1.1" xmlns:xsi="http://www.w3.org/2001/XMLSchema-instance" xsi:schemaLocation="http://www.topografix.com/GPX/1/1 http://www.topografix.com/GPX/1/1/gpx.xsd http://www.garmin.com/xmlschemas/GpxExtensions/v3 http://www8.garmin.com/xmlschemas/GpxExtensionsv3.xsd http://www.garmin.com/xmlschemas/WaypointExtension/v1 http://www8.garmin.com/xmlschemas/WaypointExtensionv1.xsd http://www.garmin.com/xmlschemas/TrackPointExtension/v1 http://www.garmin.com/xmlschemas/TrackPointExtensionv1.xsd"><metadata><link href="http://www.garmin.com"><text>Garmin International</text></link><time>2014-05-03T10:21:42Z</time></metadata><trk><name>Auto 03-MAI-14 08:41:28</name><extensions><gpxx:TrackExtension><gpxx:DisplayColor>Red</gpxx:DisplayColor></gpxx:TrackExtension></extensions><trkseg><trkpt lat="49.6785610914" lon="12.1699405275"><ele>339.96</ele><time>2014-05-03T06:41:28Z</time></trkpt><trkpt lat="49.6784011647" lon="12.1699704509"><ele>341.89</ele><time>2014-05-03T06:42:40Z</time></trkpt><trkpt lat="49.6784021705" lon="12.1699743066"><ele>342.37</ele><time>2014-05-03T06:42:41Z</time></trkpt><trkpt lat="49.6783942915" lon="12.1700091753"><ele>342.85</ele><time>2014-05-03T06:42:52Z</time></trkpt><trkpt lat="49.6783984825" lon="12.1700156294"><ele>342.85</ele><time>2014-05-03T06:42:53Z</time></trkpt><trkpt lat="49.6784001589" lon="12.1700131148"><ele>343.33</ele><time>2014-05-03T06:42:54Z</time></trkpt><trkpt lat="49.6784035116" lon="12.1700101811"><ele>342.85</ele><time>2014-05-03T06:42:55Z</time></trkpt><trkpt lat="49.6783910226" lon="12.1700427867"><ele>347.17</ele><time>2014-05-03T06:45:18Z</time></trkpt><trkpt lat="49.6783898491" lon="12.1700415295"><ele>347.17</ele><time>2014-05-03T06:45:19Z</time></trkpt><trkpt lat="49.6783873346" lon="12.1700357459"><ele>347.17</ele><time>2014-05-03T06:45:23Z</time></trkpt><trkpt lat="49.6783869993" lon="12.1700359136"><ele>347.17</ele><time>2014-05-03T06:45:24Z</time></trkpt><trkpt lat="49.6783728339" lon="12.1699986141"><ele>353.90</ele><time>2014-05-03T06:48:56Z</time></trkpt><trkpt lat="49.6783733368" lon="12.1699970216"><ele>353.90</ele><time>2014-05-03T06:48:57Z</time></trkpt><trkpt lat="49.6783727501" lon="12.1699872985"><ele>353.90</ele><time>2014-05-03T06:48:58Z</time></trkpt><trkpt lat="49.6783699002" lon="12.1699756477"><ele>354.38</ele><time>2014-05-03T06:48:59Z</time></trkpt><trkpt lat="49.6783646196" lon="12.1699656732"><ele>354.38</ele><time>2014-05-03T06:49:00Z</time></trkpt><trkpt lat="49.6783600934" lon="12.1699679364"><ele>354.38</ele><time>2014-05-03T06:49:01Z</time></trkpt><trkpt lat="49.6783533040" lon="12.1699749772"><ele>354.38</ele><time>2014-05-03T06:49:02Z</time></trkpt><trkpt lat="49.6783467662" lon="12.1699787490"><ele>354.38</ele><time>2014-05-03T06:49:03Z</time></trkpt><trkpt lat="49.6783441678" lon="12.1699791681"><ele>354.38</ele><time>2014-05-03T06:49:04Z</time></trkpt><trkpt lat="49.6783450898" lon="12.1699790005"><ele>354.38</ele><time>2014-05-03T06:49:05Z</time></trkpt><trkpt lat="49.6783431619" lon="12.1699821856"><ele>354.38</ele><time>2014-05-03T06:49:06Z</time></trkpt><trkpt lat="49.6783391386" lon="12.1699878015"><ele>354.38</ele><time>2014-05-03T06:49:07Z</time></trkpt><trkpt lat="49.6783308405" lon="12.1699945070"><ele>354.38</ele><time>2014-05-03T06:49:08Z</time></trkpt><trkpt lat="49.6783201955" lon="12.1699998714"><ele>354.38</ele><time>2014-05-03T06:49:09Z</time></trkpt><trkpt lat="49.6783151664" lon="12.1700090077"><ele>354.38</ele><time>2014-05-03T06:49:10Z</time></trkpt><trkpt lat="49.6783201955" lon="12.1700128634"><ele>354.38</ele><time>2014-05-03T06:49:11Z</time></trkpt><trkpt lat="49.6783257276" lon="12.1700080857"><ele>354.86</ele><time>2014-05-03T06:49:12Z</time></trkpt><trkpt lat="49.6783281583" lon="12.1700015478"><ele>354.86</ele><time>2014-05-03T06:49:13Z</time></trkpt><trkpt lat="49.6783279069" lon="12.1699996199"><ele>354.86</ele><time>2014-05-03T06:49:14Z</time></trkpt><trkpt lat="49.6783285774" lon="12.1699976083"><ele>354.86</ele><time>2014-05-03T06:49:16Z</time></trkpt><trkpt lat="49.6783281583" lon="12.1699949261"><ele>354.86</ele><time>2014-05-03T06:49:17Z</time></trkpt><trkpt lat="49.6783281583" lon="12.1699941717"><ele>354.86</ele><time>2014-05-03T06:49:18Z</time></trkpt><trkpt lat="49.6783287451" lon="12.1699930821"><ele>354.86</ele><time>2014-05-03T06:49:19Z</time></trkpt><trkpt lat="49.6783286612" lon="12.1699924115"><ele>354.86</ele><time>2014-05-03T06:49:20Z</time></trkpt><trkpt lat="49.6783258952" lon="12.1699906513"><ele>355.34</ele><time>2014-05-03T06:49:33Z</time></trkpt><trkpt lat="49.6783272363" lon="12.1699927468"><ele>355.34</ele><time>2014-05-03T06:49:34Z</time></trkpt><trkpt lat="49.6783226263" lon="12.1699964348"><ele>355.34</ele><time>2014-05-03T06:49:39Z</time></trkpt><trkpt lat="49.6783250570" lon="12.1699905675"><ele>355.34</ele><time>2014-05-03T06:49:40Z</time></trkpt><trkpt lat="49.6783258952" lon="12.1699862927"><ele>355.34</ele><time>2014-05-03T06:49:41Z</time></trkpt><trkpt lat="49.6783240512" lon="12.1699871309"><ele>355.34</ele><time>2014-05-03T06:49:42Z</time></trkpt><trkpt lat="49.6783238836" lon="12.1699858736"><ele>355.83</ele><time>2014-05-03T06:49:43Z</time></trkpt><trkpt lat="49.6783234645" lon="12.1699854545"><ele>355.34</ele><time>2014-05-03T06:49:44Z</time></trkpt><trkpt lat="49.6783249732" lon="12.1699831914"><ele>355.83</ele><time>2014-05-03T06:49:51Z</time></trkpt><trkpt lat="49.6783245541" lon="12.1699786652"><ele>355.83</ele><time>2014-05-03T06:49:52Z</time></trkpt><trkpt lat="49.6783279069" lon="12.1699775755"><ele>355.83</ele><time>2014-05-03T06:49:53Z</time></trkpt><trkpt lat="49.6783316787" lon="12.1699774079"><ele>355.83</ele><time>2014-05-03T06:49:55Z</time></trkpt><trkpt lat="49.6783336066" lon="12.1699774079"><ele>355.83</ele><time>2014-05-03T06:49:56Z</time></trkpt><trkpt lat="49.6783374622" lon="12.1699784137"><ele>355.83</ele><time>2014-05-03T06:49:57Z</time></trkpt><trkpt lat="49.6783406474" lon="12.1699792519"><ele>355.83</ele><time>2014-05-03T06:49:58Z</time></trkpt><trkpt lat="49.6783424914" lon="12.1699815150"><ele>355.83</ele><time>2014-05-03T06:49:59Z</time></trkpt><trkpt lat="49.6783434134" lon="12.1699819341"><ele>355.83</ele><time>2014-05-03T06:50:00Z</time></trkpt><trkpt lat="49.6783510409" lon="12.1699823532"><ele>355.83</ele><time>2014-05-03T06:50:10Z</time></trkpt><trkpt lat="49.6783509571" lon="12.1699821856"><ele>355.83</ele><time>2014-05-03T06:50:11Z</time></trkpt><trkpt lat="49.6783535555" lon="12.1699788328"><ele>356.79</ele><time>2014-05-03T06:50:24Z</time></trkpt><trkpt lat="49.6783530526" lon="12.1699784975"><ele>356.79</ele><time>2014-05-03T06:50:25Z</time></trkpt><trkpt lat="49.6783516277" lon="12.1699767374"><ele>356.31</ele><time>2014-05-03T06:50:29Z</time></trkpt><trkpt lat="49.6783507895" lon="12.1699763183"><ele>356.31</ele><time>2014-05-03T06:50:30Z</time></trkpt><trkpt lat="49.6783498675" lon="12.1699724626"><ele>356.79</ele><time>2014-05-03T06:50:31Z</time></trkpt><trkpt lat="49.6783490293" lon="12.1699688584"><ele>356.79</ele><time>2014-05-03T06:50:32Z</time></trkpt><trkpt lat="49.6783468500" lon="12.1699651703"><ele>356.79</ele><time>2014-05-03T06:50:33Z</time></trkpt><trkpt lat="49.6783547290" lon="12.1699661762"><ele>356.79</ele><time>2014-05-03T06:50:51Z</time></trkpt><trkpt lat="49.6783548966" lon="12.1699663438"><ele>357.27</ele><time>2014-05-03T06:50:52Z</time></trkpt><trkpt lat="49.6783541422" lon="12.1699656732"><ele>357.27</ele><time>2014-05-03T06:50:56Z</time></trkpt><trkpt lat="49.6783536393" lon="12.1699655894"><ele>357.27</ele><time>2014-05-03T06:50:57Z</time></trkpt><trkpt lat="49.6783560701" lon="12.1699731331"><ele>357.75</ele><time>2014-05-03T06:51:19Z</time></trkpt><trkpt lat="49.6783559863" lon="12.1699733846"><ele>357.75</ele><time>2014-05-03T06:51:20Z</time></trkpt><trkpt lat="49.6783570759" lon="12.1699730493"><ele>357.75</ele><time>2014-05-03T06:51:23Z</time></trkpt><trkpt lat="49.6783564053" lon="12.1699744742"><ele>358.23</ele><time>2014-05-03T06:51:24Z</time></trkpt><trkpt lat="49.6783561539" lon="12.1699753124"><ele>358.23</ele><time>2014-05-03T06:51:25Z</time></trkpt><trkpt lat="49.6783561539" lon="12.1699760668"><ele>358.23</ele><time>2014-05-03T06:51:26Z</time></trkpt><trkpt lat="49.6783559863" lon="12.1699765697"><ele>358.23</ele><time>2014-05-03T06:51:27Z</time></trkpt><trkpt lat="49.6783530526" lon="12.1699720435"><ele>358.23</ele><time>2014-05-03T06:51:28Z</time></trkpt><trkpt lat="49.6783532202" lon="12.1699722949"><ele>358.23</ele><time>2014-05-03T06:51:29Z</time></trkpt><trkpt lat="49.6783534717" lon="12.1699714568"><ele>358.23</ele><time>2014-05-03T06:51:30Z</time></trkpt><trkpt lat="49.6783525497" lon="12.1699642483"><ele>358.71</ele><time>2014-05-03T06:51:41Z</time></trkpt><trkpt lat="49.6783527173" lon="12.1699643321"><ele>358.71</ele><time>2014-05-03T06:51:42Z</time></trkpt><trkpt lat="49.6783518791" lon="12.1699668467"><ele>358.71</ele><time>2014-05-03T06:51:45Z</time></trkpt><trkpt lat="49.6783523820" lon="12.1699674334"><ele>358.71</ele><time>2014-05-03T06:51:46Z</time></trkpt><trkpt lat="49.6783529688" lon="12.1699674334"><ele>358.71</ele><time>2014-05-03T06:51:47Z</time></trkpt><trkpt lat="49.6783530526" lon="12.1699675173"><ele>358.71</ele><time>2014-05-03T06:51:49Z</time></trkpt><trkpt lat="49.6783563215" lon="12.1699670143"><ele>358.71</ele><time>2014-05-03T06:51:50Z</time></trkpt><trkpt lat="49.6783548128" lon="12.1699654218"><ele>358.71</ele><time>2014-05-03T06:51:51Z</time></trkpt><trkpt lat="49.6783524659" lon="12.1699613146"><ele>358.71</ele><time>2014-05-03T06:51:52Z</time></trkpt><trkpt lat="49.6783498675" lon="12.1699607279"><ele>358.71</ele><time>2014-05-03T06:51:55Z</time></trkpt><trkpt lat="49.6783507057" lon="12.1699605603"><ele>358.71</ele><time>2014-05-03T06:51:56Z</time></trkpt><trkpt lat="49.6783543099" lon="12.1699592192"><ele>359.19</ele><time>2014-05-03T06:52:07Z</time></trkpt><trkpt lat="49.6783545613" lon="12.1699586324"><ele>359.19</ele><time>2014-05-03T06:52:08Z</time></trkpt><trkpt lat="49.6783518791" lon="12.1699522622"><ele>359.19</ele><time>2014-05-03T06:52:15Z</time></trkpt><trkpt lat="49.6783515438" lon="12.1699520107"><ele>359.19</ele><time>2014-05-03T06:52:16Z</time></trkpt><trkpt lat="49.6783502866" lon="12.1699533518"><ele>359.19</ele><time>2014-05-03T06:52:25Z</time></trkpt><trkpt lat="49.6783496160" lon="12.1699530166"><ele>359.19</ele><time>2014-05-03T06:52:26Z</time></trkpt><trkpt lat="49.6783498675" lon="12.1699526813"><ele>359.19</ele><time>2014-05-03T06:52:27Z</time></trkpt><trkpt lat="49.6783502027" lon="12.1699522622"><ele>359.19</ele><time>2014-05-03T06:52:28Z</time></trkpt><trkpt lat="49.6783501189" lon="12.1699519269"><ele>359.19</ele><time>2014-05-03T06:52:29Z</time></trkpt><trkpt lat="49.6783499513" lon="12.1699520107"><ele>359.19</ele><time>2014-05-03T06:52:30Z</time></trkpt><trkpt lat="49.6783501189" lon="12.1699521784"><ele>359.67</ele><time>2014-05-03T06:52:31Z</time></trkpt><trkpt lat="49.6783500351" lon="12.1699519269"><ele>359.19</ele><time>2014-05-03T06:52:32Z</time></trkpt><trkpt lat="49.6783501189" lon="12.1699520946"><ele>359.19</ele><time>2014-05-03T06:52:33Z</time></trkpt><trkpt lat="49.6783508733" lon="12.1699515916"><ele>359.19</ele><time>2014-05-03T06:52:34Z</time></trkpt><trkpt lat="49.6783571597" lon="12.1699493285"><ele>359.67</ele><time>2014-05-03T06:52:47Z</time></trkpt><trkpt lat="49.6783576626" lon="12.1699495800"><ele>359.67</ele><time>2014-05-03T06:52:48Z</time></trkpt><trkpt lat="49.6783579141" lon="12.1699491609"><ele>360.15</ele><time>2014-05-03T06:52:50Z</time></trkpt><trkpt lat="49.6783575788" lon="12.1699491609"><ele>359.67</ele><time>2014-05-03T06:52:51Z</time></trkpt><trkpt lat="49.6783573274" lon="12.1699486580"><ele>360.15</ele><time>2014-05-03T06:52:52Z</time></trkpt><trkpt lat="49.6783573274" lon="12.1699476521"><ele>360.15</ele><time>2014-05-03T06:52:53Z</time></trkpt><trkpt lat="49.6783540584" lon="12.1699301340"><ele>361.11</ele><time>2014-05-03T06:53:58Z</time></trkpt><trkpt lat="49.6783539746" lon="12.1699306369"><ele>361.59</ele><time>2014-05-03T06:53:59Z</time></trkpt><trkpt lat="49.6783536393" lon="12.1699305531"><ele>361.11</ele><time>2014-05-03T06:54:00Z</time></trkpt><trkpt lat="49.6783531364" lon="12.1699306369"><ele>361.59</ele><time>2014-05-03T06:54:01Z</time></trkpt><trkpt lat="49.6783524659" lon="12.1699300501"><ele>361.11</ele><time>2014-05-03T06:54:02Z</time></trkpt><trkpt lat="49.6783585846" lon="12.1699178126"><ele>361.59</ele><time>2014-05-03T06:54:03Z</time></trkpt><trkpt lat="49.6783669665" lon="12.1699131187"><ele>361.59</ele><time>2014-05-03T06:54:04Z</time></trkpt><trkpt lat="49.6783758514" lon="12.1699095983"><ele>361.59</ele><time>2014-05-03T06:54:05Z</time></trkpt><trkpt lat="49.6783862449" lon="12.1698969416"><ele>361.59</ele><time>2014-05-03T06:54:06Z</time></trkpt><trkpt lat="49.6783946268" lon="12.1698743943"><ele>361.59</ele><time>2014-05-03T06:54:07Z</time></trkpt><trkpt lat="49.6783914417" lon="12.1698450577"><ele>361.59</ele><time>2014-05-03T06:54:08Z</time></trkpt><trkpt lat="49.6783761028" lon="12.1698249411"><ele>361.59</ele><time>2014-05-03T06:54:09Z</time></trkpt><trkpt lat="49.6783549804" lon="12.1698204149"><ele>361.59</ele><time>2014-05-03T06:54:10Z</time></trkpt><trkpt lat="49.6783332713" lon="12.1698115300"><ele>361.59</ele><time>2014-05-03T06:54:11Z</time></trkpt><trkpt lat="49.6783129033" lon="12.1697949339"><ele>361.59</ele><time>2014-05-03T06:54:12Z</time></trkpt><trkpt lat="49.6782938763" lon="12.1697747335"><ele>362.07</ele><time>2014-05-03T06:54:13Z</time></trkpt><trkpt lat="49.6782727540" lon="12.1697597299"><ele>361.59</ele><time>2014-05-03T06:54:14Z</time></trkpt><trkpt lat="49.6782515477" lon="12.1697523538"><ele>361.59</ele><time>2014-05-03T06:54:15Z</time></trkpt><trkpt lat="49.6782316826" lon="12.1697460674"><ele>362.07</ele><time>2014-05-03T06:54:16Z</time></trkpt><trkpt lat="49.6782114822" lon="12.1697300579"><ele>362.07</ele><time>2014-05-03T06:54:17Z</time></trkpt><trkpt lat="49.6781928744" lon="12.1697194129"><ele>362.07</ele><time>2014-05-03T06:54:18Z</time></trkpt><trkpt lat="49.6781718358" lon="12.1697120368"><ele>362.07</ele><time>2014-05-03T06:54:19Z</time></trkpt><trkpt lat="49.6781450976" lon="12.1697113663"><ele>362.07</ele><time>2014-05-03T06:54:20Z</time></trkpt><trkpt lat="49.6781180240" lon="12.1697094385"><ele>362.55</ele><time>2014-05-03T06:54:21Z</time></trkpt><trkpt lat="49.6780927107" lon="12.1697098576"><ele>362.55</ele><time>2014-05-03T06:54:22Z</time></trkpt><trkpt lat="49.6780645475" lon="12.1697158087"><ele>362.55</ele><time>2014-05-03T06:54:23Z</time></trkpt><trkpt lat="49.6780329477" lon="12.1697227657"><ele>362.55</ele><time>2014-05-03T06:54:24Z</time></trkpt><trkpt lat="49.6779971570" lon="12.1697297227"><ele>362.55</ele><time>2014-05-03T06:54:25Z</time></trkpt><trkpt lat="49.6779561695" lon="12.1697246097"><ele>362.55</ele><time>2014-05-03T06:54:26Z</time></trkpt><trkpt lat="49.6779154334" lon="12.1696997155"><ele>362.07</ele><time>2014-05-03T06:54:27Z</time></trkpt><trkpt lat="49.6778784692" lon="12.1696602367"><ele>362.07</ele><time>2014-05-03T06:54:28Z</time></trkpt><trkpt lat="49.6778488811" lon="12.1696125437"><ele>362.07</ele><time>2014-05-03T06:54:29Z</time></trkpt><trkpt lat="49.6778204665" lon="12.1695680358"><ele>362.07</ele><time>2014-05-03T06:54:30Z</time></trkpt><trkpt lat="49.6777916327" lon="12.1695332509"><ele>362.07</ele><time>2014-05-03T06:54:31Z</time></trkpt><trkpt lat="49.6777636372" lon="12.1695045009"><ele>362.07</ele><time>2014-05-03T06:54:32Z</time></trkpt><trkpt lat="49.6777371503" lon="12.1694780141"><ele>362.07</ele><time>2014-05-03T06:54:33Z</time></trkpt><trkpt lat="49.6777093224" lon="12.1694530360"><ele>362.07</ele><time>2014-05-03T06:54:34Z</time></trkpt><trkpt lat="49.6776753757" lon="12.1694288962"><ele>362.07</ele><time>2014-05-03T06:54:35Z</time></trkpt><trkpt lat="49.6776406746" lon="12.1694040019"><ele>362.07</ele><time>2014-05-03T06:54:36Z</time></trkpt><trkpt lat="49.6776047163" lon="12.1693790238"><ele>362.55</ele><time>2014-05-03T06:54:37Z</time></trkpt><trkpt lat="49.6775664948" lon="12.1693563089"><ele>362.55</ele><time>2014-05-03T06:54:38Z</time></trkpt><trkpt lat="49.6775300335" lon="12.1693337616"><ele>362.55</ele><time>2014-05-03T06:54:39Z</time></trkpt><trkpt lat="49.6774955001" lon="12.1693095379"><ele>362.55</ele><time>2014-05-03T06:54:40Z</time></trkpt><trkpt lat="49.6774582844" lon="12.1692875773"><ele>362.55</ele><time>2014-05-03T06:54:41Z</time></trkpt><trkpt lat="49.6774203982" lon="12.1692667902"><ele>362.55</ele><time>2014-05-03T06:54:42Z</time></trkpt><trkpt lat="49.6773795784" lon="12.1692464221"><ele>362.55</ele><time>2014-05-03T06:54:43Z</time></trkpt><trkpt lat="49.6773403510" lon="12.1692257188"><ele>362.55</ele><time>2014-05-03T06:54:44Z</time></trkpt><trkpt lat="49.6773028839" lon="12.1692051832"><ele>362.55</ele><time>2014-05-03T06:54:45Z</time></trkpt><trkpt lat="49.6772675123" lon="12.1691814624"><ele>362.55</ele><time>2014-05-03T06:54:46Z</time></trkpt><trkpt lat="49.6772322245" lon="12.1691598371"><ele>362.55</ele><time>2014-05-03T06:54:47Z</time></trkpt><trkpt lat="49.6771966014" lon="12.1691404749"><ele>362.55</ele><time>2014-05-03T06:54:48Z</time></trkpt><trkpt lat="49.6771601401" lon="12.1691218670"><ele>362.55</ele><time>2014-05-03T06:54:49Z</time></trkpt><trkpt lat="49.6771250200" lon="12.1690998226"><ele>363.04</ele><time>2014-05-03T06:54:50Z</time></trkpt><trkpt lat="49.6770886425" lon="12.1690795384"><ele>363.04</ele><time>2014-05-03T06:54:51Z</time></trkpt><trkpt lat="49.6770527679" lon="12.1690611821"><ele>363.04</ele><time>2014-05-03T06:54:52Z</time></trkpt><trkpt lat="49.6770178154" lon="12.1690400597"><ele>363.04</ele><time>2014-05-03T06:54:53Z</time></trkpt><trkpt lat="49.6769823600" lon="12.1690222062"><ele>363.04</ele><time>2014-05-03T06:54:54Z</time></trkpt><trkpt lat="49.6769474074" lon="12.1690077893"><ele>363.52</ele><time>2014-05-03T06:54:55Z</time></trkpt><trkpt lat="49.6769153886" lon="12.1689933725"><ele>363.52</ele><time>2014-05-03T06:54:56Z</time></trkpt><trkpt lat="49.6768859681" lon="12.1689790394"><ele>363.52</ele><time>2014-05-03T06:54:57Z</time></trkpt><trkpt lat="49.6768557932" lon="12.1689662989"><ele>363.52</ele><time>2014-05-03T06:54:58Z</time></trkpt><trkpt lat="49.6768251993" lon="12.1689517144"><ele>363.52</ele><time>2014-05-03T06:54:59Z</time></trkpt><trkpt lat="49.6767972037" lon="12.1689357888"><ele>363.52</ele><time>2014-05-03T06:55:00Z</time></trkpt><trkpt lat="49.6767728962" lon="12.1689267363"><ele>363.52</ele><time>2014-05-03T06:55:01Z</time></trkpt><trkpt lat="49.6767521091" lon="12.1689257305"><ele>364.00</ele><time>2014-05-03T06:55:02Z</time></trkpt><trkpt lat="49.6767357644" lon="12.1689248085"><ele>364.00</ele><time>2014-05-03T06:55:03Z</time></trkpt><trkpt lat="49.6767215151" lon="12.1689221263"><ele>364.00</ele><time>2014-05-03T06:55:04Z</time></trkpt><trkpt lat="49.6767107025" lon="12.1689227130"><ele>364.00</ele><time>2014-05-03T06:55:05Z</time></trkpt><trkpt lat="49.6767030749" lon="12.1689249761"><ele>364.00</ele><time>2014-05-03T06:55:06Z</time></trkpt><trkpt lat="49.6766981296" lon="12.1689127386"><ele>364.00</ele><time>2014-05-03T06:55:07Z</time></trkpt><trkpt lat="49.6766935196" lon="12.1688994952"><ele>364.48</ele><time>2014-05-03T06:55:08Z</time></trkpt><trkpt lat="49.6766910888" lon="12.1688933764"><ele>364.00</ele><time>2014-05-03T06:55:09Z</time></trkpt><trkpt lat="49.6766880713" lon="12.1688906942"><ele>364.48</ele><time>2014-05-03T06:55:10Z</time></trkpt><trkpt lat="49.6766889933" lon="12.1688843239"><ele>364.48</ele><time>2014-05-03T06:55:11Z</time></trkpt><trkpt lat="49.6766863111" lon="12.1688803844"><ele>364.00</ele><time>2014-05-03T06:55:17Z</time></trkpt><trkpt lat="49.6766724810" lon="12.1688756067"><ele>364.48</ele><time>2014-05-03T06:55:18Z</time></trkpt><trkpt lat="49.6766553819" lon="12.1688684821"><ele>364.48</ele><time>2014-05-03T06:55:19Z</time></trkpt><trkpt lat="49.6766353492" lon="12.1688583400"><ele>364.48</ele><time>2014-05-03T06:55:20Z</time></trkpt><trkpt lat="49.6766106226" lon="12.1688442584"><ele>364.48</ele><time>2014-05-03T06:55:21Z</time></trkpt><trkpt lat="49.6765864827" lon="12.1688243933"><ele>364.48</ele><time>2014-05-03T06:55:22Z</time></trkpt><trkpt lat="49.6765611693" lon="12.1687978227"><ele>364.48</ele><time>2014-05-03T06:55:23Z</time></trkpt><trkpt lat="49.6765340958" lon="12.1687735990"><ele>364.48</ele><time>2014-05-03T06:55:24Z</time></trkpt><trkpt lat="49.6765052620" lon="12.1687498782"><ele>364.48</ele><time>2014-05-03T06:55:25Z</time></trkpt><trkpt lat="49.6764732432" lon="12.1687188651"><ele>364.48</ele><time>2014-05-03T06:55:26Z</time></trkpt><trkpt lat="49.6764351055" lon="12.1686863434"><ele>364.00</ele><time>2014-05-03T06:55:27Z</time></trkpt><trkpt lat="49.6763915196" lon="12.1686570067"><ele>364.00</ele><time>2014-05-03T06:55:28Z</time></trkpt><trkpt lat="49.6763473470" lon="12.1686274186"><ele>364.00</ele><time>2014-05-03T06:55:29Z</time></trkpt><trkpt lat="49.6763066947" lon="12.1685911249"><ele>364.00</ele><time>2014-05-03T06:55:30Z</time></trkpt><trkpt lat="49.6762650367" lon="12.1685549989"><ele>363.52</ele><time>2014-05-03T06:55:31Z</time></trkpt><trkpt lat="49.6762207802" lon="12.1685176156"><ele>363.52</ele><time>2014-05-03T06:55:32Z</time></trkpt><trkpt lat="49.6761750150" lon="12.1684824955"><ele>363.52</ele><time>2014-05-03T06:55:33Z</time></trkpt><trkpt lat="49.6761300880" lon="12.1684504766"><ele>363.52</ele><time>2014-05-03T06:55:34Z</time></trkpt><trkpt lat="49.6760874242" lon="12.1684175357"><ele>363.52</ele><time>2014-05-03T06:55:35Z</time></trkpt><trkpt lat="49.6760454308" lon="12.1683831699"><ele>363.52</ele><time>2014-05-03T06:55:36Z</time></trkpt><trkpt lat="49.6760036889" lon="12.1683520731"><ele>363.52</ele><time>2014-05-03T06:55:37Z</time></trkpt><trkpt lat="49.6759625338" lon="12.1683218982"><ele>363.52</ele><time>2014-05-03T06:55:38Z</time></trkpt><trkpt lat="49.6759193670" lon="12.1682893764"><ele>363.52</ele><time>2014-05-03T06:55:39Z</time></trkpt><trkpt lat="49.6758726798" lon="12.1682564355"><ele>363.52</ele><time>2014-05-03T06:55:40Z</time></trkpt><trkpt lat="49.6758243162" lon="12.1682254225"><ele>363.52</ele><time>2014-05-03T06:55:41Z</time></trkpt><trkpt lat="49.6757804789" lon="12.1681961697"><ele>363.52</ele><time>2014-05-03T06:55:42Z</time></trkpt><trkpt lat="49.6757386532" lon="12.1681670845"><ele>363.52</ele><time>2014-05-03T06:55:43Z</time></trkpt><trkpt lat="49.6756952349" lon="12.1681461297"><ele>363.52</ele><time>2014-05-03T06:55:44Z</time></trkpt><trkpt lat="49.6756495535" lon="12.1681276895"><ele>363.52</ele><time>2014-05-03T06:55:45Z</time></trkpt><trkpt lat="49.6756033693" lon="12.1681022085"><ele>363.52</ele><time>2014-05-03T06:55:46Z</time></trkpt><trkpt lat="49.6755560953" lon="12.1680761408"><ele>363.52</ele><time>2014-05-03T06:55:47Z</time></trkpt><trkpt lat="49.6755121741" lon="12.1680529229"><ele>363.52</ele><time>2014-05-03T06:55:48Z</time></trkpt><trkpt lat="49.6754685882" lon="12.1680299565"><ele>363.52</ele><time>2014-05-03T06:55:49Z</time></trkpt><trkpt lat="49.6754235774" lon="12.1680037212"><ele>363.52</ele><time>2014-05-03T06:55:50Z</time></trkpt><trkpt lat="49.6753776446" lon="12.1679789945"><ele>363.52</ele><time>2014-05-03T06:55:51Z</time></trkpt><trkpt lat="49.6753313765" lon="12.1679549385"><ele>363.52</ele><time>2014-05-03T06:55:52Z</time></trkpt><trkpt lat="49.6752844378" lon="12.1679346543"><ele>363.52</ele><time>2014-05-03T06:55:53Z</time></trkpt><trkpt lat="49.6752375830" lon="12.1679145377"><ele>363.52</ele><time>2014-05-03T06:55:54Z</time></trkpt><trkpt lat="49.6751911473" lon="12.1678925771"><ele>363.04</ele><time>2014-05-03T06:55:55Z</time></trkpt><trkpt lat="49.6751442086" lon="12.1678725444"><ele>363.52</ele><time>2014-05-03T06:55:56Z</time></trkpt><trkpt lat="49.6750977729" lon="12.1678532660"><ele>363.52</ele><time>2014-05-03T06:55:57Z</time></trkpt><trkpt lat="49.6750529297" lon="12.1678357478"><ele>363.52</ele><time>2014-05-03T06:55:58Z</time></trkpt><trkpt lat="49.6750088409" lon="12.1678163856"><ele>363.52</ele><time>2014-05-03T06:55:59Z</time></trkpt><trkpt lat="49.6749646682" lon="12.1677944250"><ele>363.52</ele><time>2014-05-03T06:56:00Z</time></trkpt><trkpt lat="49.6749185678" lon="12.1677743923"><ele>363.52</ele><time>2014-05-03T06:56:01Z</time></trkpt><trkpt lat="49.6748713776" lon="12.1677525993"><ele>363.52</ele><time>2014-05-03T06:56:02Z</time></trkpt><trkpt lat="49.6748226788" lon="12.1677277889"><ele>363.52</ele><time>2014-05-03T06:56:03Z</time></trkpt><trkpt lat="49.6747728065" lon="12.1677033976"><ele>363.52</ele><time>2014-05-03T06:56:04Z</time></trkpt><trkpt lat="49.6747198328" lon="12.1676798444"><ele>363.52</ele><time>2014-05-03T06:56:05Z</time></trkpt><trkpt lat="49.6746701282" lon="12.1676541958"><ele>363.52</ele><time>2014-05-03T06:56:06Z</time></trkpt><trkpt lat="49.6746217646" lon="12.1676300559"><ele>363.52</ele><time>2014-05-03T06:56:07Z</time></trkpt><trkpt lat="49.6745731495" lon="12.1676091850"><ele>363.52</ele><time>2014-05-03T06:56:08Z</time></trkpt><trkpt lat="49.6745277196" lon="12.1675854642"><ele>363.52</ele><time>2014-05-03T06:56:09Z</time></trkpt><trkpt lat="49.6744821221" lon="12.1675632522"><ele>363.52</ele><time>2014-05-03T06:56:10Z</time></trkpt><trkpt lat="49.6744125523" lon="12.1675275452"><ele>363.52</ele><time>2014-05-03T06:56:11Z</time></trkpt><trkpt lat="49.6743870713" lon="12.1675147209"><ele>363.52</ele><time>2014-05-03T06:56:12Z</time></trkpt><trkpt lat="49.6743364446" lon="12.1674916707"><ele>363.52</ele><time>2014-05-03T06:56:13Z</time></trkpt><trkpt lat="49.6742857341" lon="12.1674691234"><ele>363.52</ele><time>2014-05-03T06:56:14Z</time></trkpt><trkpt lat="49.6742340177" lon="12.1674498450"><ele>363.52</ele><time>2014-05-03T06:56:15Z</time></trkpt><trkpt lat="49.6741826367" lon="12.1674317401"><ele>363.52</ele><time>2014-05-03T06:56:16Z</time></trkpt><trkpt lat="49.6741348598" lon="12.1674137190"><ele>363.52</ele><time>2014-05-03T06:56:17Z</time></trkpt><trkpt lat="49.6740882564" lon="12.1673979610"><ele>363.52</ele><time>2014-05-03T06:56:18Z</time></trkpt><trkpt lat="49.6740391385" lon="12.1673858073"><ele>363.52</ele><time>2014-05-03T06:56:19Z</time></trkpt><trkpt lat="49.6739867516" lon="12.1673925966"><ele>363.52</ele><time>2014-05-03T06:56:20Z</time></trkpt><trkpt lat="49.6739323530" lon="12.1674090251"><ele>363.52</ele><time>2014-05-03T06:56:21Z</time></trkpt><trkpt lat="49.6738767810" lon="12.1674242802"><ele>363.52</ele><time>2014-05-03T06:56:22Z</time></trkpt><trkpt lat="49.6738214605" lon="12.1674390323"><ele>363.52</ele><time>2014-05-03T06:56:23Z</time></trkpt><trkpt lat="49.6737687383" lon="12.1674568858"><ele>363.52</ele><time>2014-05-03T06:56:24Z</time></trkpt><trkpt lat="49.6737186983" lon="12.1674806066"><ele>363.52</ele><time>2014-05-03T06:56:25Z</time></trkpt><trkpt lat="49.6736693289" lon="12.1675084345"><ele>363.52</ele><time>2014-05-03T06:56:26Z</time></trkpt><trkpt lat="49.6736235637" lon="12.1675350051"><ele>363.52</ele><time>2014-05-03T06:56:27Z</time></trkpt><trkpt lat="49.6735804807" lon="12.1675627492"><ele>363.52</ele><time>2014-05-03T06:56:28Z</time></trkpt><trkpt lat="49.6735374816" lon="12.1675900742"><ele>363.52</ele><time>2014-05-03T06:56:29Z</time></trkpt><trkpt lat="49.6734958235" lon="12.1676158067"><ele>363.52</ele><time>2014-05-03T06:56:30Z</time></trkpt><trkpt lat="49.6734565124" lon="12.1676422935"><ele>363.52</ele><time>2014-05-03T06:56:31Z</time></trkpt><trkpt lat="49.6734182909" lon="12.1676671878"><ele>363.52</ele><time>2014-05-03T06:56:32Z</time></trkpt><trkpt lat="49.6733762976" lon="12.1676913276"><ele>363.52</ele><time>2014-05-03T06:56:33Z</time></trkpt><trkpt lat="49.6733291913" lon="12.1677179821"><ele>363.52</ele><time>2014-05-03T06:56:34Z</time></trkpt><trkpt lat="49.6732859407" lon="12.1677418705"><ele>363.52</ele><time>2014-05-03T06:56:35Z</time></trkpt><trkpt lat="49.6732424386" lon="12.1677546948"><ele>363.52</ele><time>2014-05-03T06:56:36Z</time></trkpt><trkpt lat="49.6731916443" lon="12.1677684411"><ele>364.00</ele><time>2014-05-03T06:56:37Z</time></trkpt><trkpt lat="49.6731411852" lon="12.1677807625"><ele>364.00</ele><time>2014-05-03T06:56:38Z</time></trkpt><trkpt lat="49.6730887983" lon="12.1677888092"><ele>363.52</ele><time>2014-05-03T06:56:39Z</time></trkpt><trkpt lat="49.6730343159" lon="12.1677927487"><ele>363.52</ele><time>2014-05-03T06:56:40Z</time></trkpt><trkpt lat="49.6729808394" lon="12.1677958500"><ele>364.00</ele><time>2014-05-03T06:56:41Z</time></trkpt><trkpt lat="49.6729297098" lon="12.1678009629"><ele>364.00</ele><time>2014-05-03T06:56:42Z</time></trkpt><trkpt lat="49.6728812624" lon="12.1678099316"><ele>364.00</ele><time>2014-05-03T06:56:43Z</time></trkpt><trkpt lat="49.6728358325" lon="12.1678126138"><ele>364.00</ele><time>2014-05-03T06:56:44Z</time></trkpt><trkpt lat="49.6727929171" lon="12.1678124461"><ele>364.48</ele><time>2014-05-03T06:56:45Z</time></trkpt><trkpt lat="49.6727572102" lon="12.1678164694"><ele>364.48</ele><time>2014-05-03T06:56:46Z</time></trkpt><trkpt lat="49.6727255266" lon="12.1678229235"><ele>364.48</ele><time>2014-05-03T06:56:47Z</time></trkpt><trkpt lat="49.6726993751" lon="12.1678331494"><ele>364.48</ele><time>2014-05-03T06:56:48Z</time></trkpt><trkpt lat="49.6726757381" lon="12.1678407770"><ele>364.48</ele><time>2014-05-03T06:56:49Z</time></trkpt><trkpt lat="49.6726508439" lon="12.1678459737"><ele>364.48</ele><time>2014-05-03T06:56:50Z</time></trkpt><trkpt lat="49.6726277936" lon="12.1678439621"><ele>364.48</ele><time>2014-05-03T06:56:51Z</time></trkpt><trkpt lat="49.6726095211" lon="12.1678268630"><ele>364.48</ele><time>2014-05-03T06:56:52Z</time></trkpt><trkpt lat="49.6725924220" lon="12.1678104345"><ele>364.48</ele><time>2014-05-03T06:56:53Z</time></trkpt><trkpt lat="49.6725751553" lon="12.1677944250"><ele>364.48</ele><time>2014-05-03T06:56:54Z</time></trkpt><trkpt lat="49.6725548711" lon="12.1677784156"><ele>364.48</ele><time>2014-05-03T06:56:55Z</time></trkpt><trkpt lat="49.6725327428" lon="12.1677603107"><ele>364.48</ele><time>2014-05-03T06:56:56Z</time></trkpt><trkpt lat="49.6725110337" lon="12.1677506715"><ele>364.48</ele><time>2014-05-03T06:56:57Z</time></trkpt><trkpt lat="49.6724948566" lon="12.1677660104"><ele>364.48</ele><time>2014-05-03T06:56:58Z</time></trkpt><trkpt lat="49.6724949405" lon="12.1677951794"><ele>364.48</ele><time>2014-05-03T06:56:59Z</time></trkpt><trkpt lat="49.6725035738" lon="12.1678030584"><ele>364.48</ele><time>2014-05-03T06:57:00Z</time></trkpt><trkpt lat="49.6725165658" lon="12.1678094286"><ele>364.48</ele><time>2014-05-03T06:57:01Z</time></trkpt><trkpt lat="49.6725260373" lon="12.1678218339"><ele>364.48</ele><time>2014-05-03T06:57:02Z</time></trkpt><trkpt lat="49.6725358441" lon="12.1678292938"><ele>364.48</ele><time>2014-05-03T06:57:03Z</time></trkpt><trkpt lat="49.6725460701" lon="12.1678261925"><ele>364.48</ele><time>2014-05-03T06:57:04Z</time></trkpt><trkpt lat="49.6725542843" lon="12.1678214986"><ele>364.48</ele><time>2014-05-03T06:57:05Z</time></trkpt><trkpt lat="49.6725636721" lon="12.1678167209"><ele>364.48</ele><time>2014-05-03T06:57:06Z</time></trkpt><trkpt lat="49.6725754905" lon="12.1678088419"><ele>364.48</ele><time>2014-05-03T06:57:07Z</time></trkpt><trkpt lat="49.6725858841" lon="12.1677960176"><ele>364.48</ele><time>2014-05-03T06:57:08Z</time></trkpt><trkpt lat="49.6725966968" lon="12.1677818522"><ele>364.96</ele><time>2014-05-03T06:57:09Z</time></trkpt><trkpt lat="49.6726081800" lon="12.1677655913"><ele>364.96</ele><time>2014-05-03T06:57:10Z</time></trkpt><trkpt lat="49.6726164781" lon="12.1677363385"><ele>364.96</ele><time>2014-05-03T06:57:11Z</time></trkpt><trkpt lat="49.6726203337" lon="12.1677001286"><ele>364.96</ele><time>2014-05-03T06:57:12Z</time></trkpt><trkpt lat="49.6726246923" lon="12.1676650085"><ele>365.44</ele><time>2014-05-03T06:57:13Z</time></trkpt><trkpt lat="49.6726341639" lon="12.1676258650"><ele>365.92</ele><time>2014-05-03T06:57:14Z</time></trkpt><trkpt lat="49.6726432163" lon="12.1675783396"><ele>365.92</ele><time>2014-05-03T06:57:15Z</time></trkpt><trkpt lat="49.6726491675" lon="12.1675327420"><ele>366.40</ele><time>2014-05-03T06:57:16Z</time></trkpt><trkpt lat="49.6726555377" lon="12.1674868092"><ele>366.40</ele><time>2014-05-03T06:57:17Z</time></trkpt><trkpt lat="49.6726617403" lon="12.1674390323"><ele>366.40</ele><time>2014-05-03T06:57:18Z</time></trkpt><trkpt lat="49.6726703737" lon="12.1673917584"><ele>366.40</ele><time>2014-05-03T06:57:19Z</time></trkpt><trkpt lat="49.6726790909" lon="12.1673406288"><ele>365.92</ele><time>2014-05-03T06:57:20Z</time></trkpt><trkpt lat="49.6726816893" lon="12.1672829613"><ele>365.92</ele><time>2014-05-03T06:57:21Z</time></trkpt><trkpt lat="49.6726723015" lon="12.1672186721"><ele>365.44</ele><time>2014-05-03T06:57:22Z</time></trkpt><trkpt lat="49.6726527717" lon="12.1671650279"><ele>365.44</ele><time>2014-05-03T06:57:23Z</time></trkpt><trkpt lat="49.6726255305" lon="12.1671292372"><ele>365.44</ele><time>2014-05-03T06:57:24Z</time></trkpt><trkpt lat="49.6725919191" lon="12.1671116352"><ele>365.44</ele><time>2014-05-03T06:57:25Z</time></trkpt><trkpt lat="49.6725583076" lon="12.1671034209"><ele>365.44</ele><time>2014-05-03T06:57:26Z</time></trkpt><trkpt lat="49.6725278813" lon="12.1670926921"><ele>365.44</ele><time>2014-05-03T06:57:27Z</time></trkpt><trkpt lat="49.6724992152" lon="12.1670719888"><ele>365.44</ele><time>2014-05-03T06:57:28Z</time></trkpt><trkpt lat="49.6724687051" lon="12.1670465078"><ele>365.44</ele><time>2014-05-03T06:57:29Z</time></trkpt><trkpt lat="49.6724368539" lon="12.1670260560"><ele>365.44</ele><time>2014-05-03T06:57:30Z</time></trkpt><trkpt lat="49.6724044997" lon="12.1670062747"><ele>365.44</ele><time>2014-05-03T06:57:31Z</time></trkpt><trkpt lat="49.6723697148" lon="12.1669823024"><ele>365.44</ele><time>2014-05-03T06:57:32Z</time></trkpt><trkpt lat="49.6723364387" lon="12.1669483557"><ele>365.44</ele><time>2014-05-03T06:57:33Z</time></trkpt><trkpt lat="49.6723065991" lon="12.1669160016"><ele>365.44</ele><time>2014-05-03T06:57:34Z</time></trkpt><trkpt lat="49.6722730715" lon="12.1668888442"><ele>365.44</ele><time>2014-05-03T06:57:35Z</time></trkpt><trkpt lat="49.6722411364" lon="12.1668609325"><ele>365.44</ele><time>2014-05-03T06:57:36Z</time></trkpt><trkpt lat="49.6722106263" lon="12.1668355353"><ele>365.44</ele><time>2014-05-03T06:57:37Z</time></trkpt><trkpt lat="49.6721832175" lon="12.1668167599"><ele>365.44</ele><time>2014-05-03T06:57:38Z</time></trkpt><trkpt lat="49.6721521206" lon="12.1667976491"><ele>365.44</ele><time>2014-05-03T06:57:39Z</time></trkpt><trkpt lat="49.6721128095" lon="12.1667779516"><ele>365.44</ele><time>2014-05-03T06:57:40Z</time></trkpt><trkpt lat="49.6720673796" lon="12.1667543985"><ele>365.44</ele><time>2014-05-03T06:57:41Z</time></trkpt><trkpt lat="49.6720198542" lon="12.1667282470"><ele>365.44</ele><time>2014-05-03T06:57:42Z</time></trkpt><trkpt lat="49.6719701495" lon="12.1666999999"><ele>364.96</ele><time>2014-05-03T06:57:43Z</time></trkpt><trkpt lat="49.6719208639" lon="12.1666700765"><ele>364.96</ele><time>2014-05-03T06:57:44Z</time></trkpt><trkpt lat="49.6718705725" lon="12.1666430030"><ele>364.96</ele><time>2014-05-03T06:57:45Z</time></trkpt><trkpt lat="49.6718200296" lon="12.1666155104"><ele>364.96</ele><time>2014-05-03T06:57:46Z</time></trkpt><trkpt lat="49.6717690676" lon="12.1665875986"><ele>364.96</ele><time>2014-05-03T06:57:47Z</time></trkpt><trkpt lat="49.6717176028" lon="12.1665627882"><ele>364.96</ele><time>2014-05-03T06:57:48Z</time></trkpt><trkpt lat="49.6716691554" lon="12.1665378939"><ele>364.96</ele><time>2014-05-03T06:57:49Z</time></trkpt><trkpt lat="49.6716228034" lon="12.1665124968"><ele>364.96</ele><time>2014-05-03T06:57:50Z</time></trkpt><trkpt lat="49.6715796366" lon="12.1664896980"><ele>364.96</ele><time>2014-05-03T06:57:51Z</time></trkpt><trkpt lat="49.6715410799" lon="12.1664733533"><ele>364.96</ele><time>2014-05-03T06:57:52Z</time></trkpt><trkpt lat="49.6715010144" lon="12.1664564218"><ele>364.96</ele><time>2014-05-03T06:57:53Z</time></trkpt><trkpt lat="49.6714577638" lon="12.1664391551"><ele>365.44</ele><time>2014-05-03T06:57:54Z</time></trkpt><trkpt lat="49.6714159381" lon="12.1664164402"><ele>364.96</ele><time>2014-05-03T06:57:55Z</time></trkpt><trkpt lat="49.6713730227" lon="12.1663935576"><ele>364.96</ele><time>2014-05-03T06:57:56Z</time></trkpt><trkpt lat="49.6713270899" lon="12.1663724352"><ele>364.96</ele><time>2014-05-03T06:57:57Z</time></trkpt><trkpt lat="49.6712769661" lon="12.1663537435"><ele>365.44</ele><time>2014-05-03T06:57:58Z</time></trkpt><trkpt lat="49.6712266747" lon="12.1663379017"><ele>365.44</ele><time>2014-05-03T06:57:59Z</time></trkpt><trkpt lat="49.6711763833" lon="12.1663254127"><ele>365.44</ele><time>2014-05-03T06:58:00Z</time></trkpt><trkpt lat="49.6711244993" lon="12.1663168631"><ele>364.96</ele><time>2014-05-03T06:58:01Z</time></trkpt><trkpt lat="49.6710716095" lon="12.1663122531"><ele>364.96</ele><time>2014-05-03T06:58:02Z</time></trkpt><trkpt lat="49.6710156184" lon="12.1663073916"><ele>364.96</ele><time>2014-05-03T06:58:03Z</time></trkpt><trkpt lat="49.6709597949" lon="12.1663019434"><ele>364.96</ele><time>2014-05-03T06:58:04Z</time></trkpt><trkpt lat="49.6709079947" lon="12.1662965789"><ele>364.96</ele><time>2014-05-03T06:58:05Z</time></trkpt><trkpt lat="49.6708614752" lon="12.1662959922"><ele>365.44</ele><time>2014-05-03T06:58:06Z</time></trkpt><trkpt lat="49.6708144527" lon="12.1662892867"><ele>365.44</ele><time>2014-05-03T06:58:07Z</time></trkpt><trkpt lat="49.6707629878" lon="12.1662759595"><ele>365.92</ele><time>2014-05-03T06:58:08Z</time></trkpt><trkpt lat="49.6707150433" lon="12.1662629675"><ele>365.92</ele><time>2014-05-03T06:58:09Z</time></trkpt><trkpt lat="49.6706669312" lon="12.1662528254"><ele>365.92</ele><time>2014-05-03T06:58:10Z</time></trkpt><trkpt lat="49.6706190705" lon="12.1662433539"><ele>365.92</ele><time>2014-05-03T06:58:11Z</time></trkpt><trkpt lat="49.6705687791" lon="12.1662317030"><ele>365.92</ele><time>2014-05-03T06:58:12Z</time></trkpt><trkpt lat="49.6705179848" lon="12.1662224829"><ele>365.92</ele><time>2014-05-03T06:58:13Z</time></trkpt><trkpt lat="49.6704680286" lon="12.1662146877"><ele>365.92</ele><time>2014-05-03T06:58:14Z</time></trkpt><trkpt lat="49.6704157256" lon="12.1662109997"><ele>365.92</ele><time>2014-05-03T06:58:15Z</time></trkpt><trkpt lat="49.6703653503" lon="12.1662095748"><ele>365.92</ele><time>2014-05-03T06:58:16Z</time></trkpt><trkpt lat="49.6703145560" lon="12.1662071440"><ele>365.92</ele><time>2014-05-03T06:58:17Z</time></trkpt><trkpt lat="49.6702630911" lon="12.1662011929"><ele>365.92</ele><time>2014-05-03T06:58:18Z</time></trkpt><trkpt lat="49.6702112071" lon="12.1661954094"><ele>365.92</ele><time>2014-05-03T06:58:19Z</time></trkpt><trkpt lat="49.6701591555" lon="12.1661923919"><ele>365.92</ele><time>2014-05-03T06:58:20Z</time></trkpt><trkpt lat="49.6701086126" lon="12.1661909670"><ele>365.92</ele><time>2014-05-03T06:58:21Z</time></trkpt><trkpt lat="49.6700581536" lon="12.1661872789"><ele>365.92</ele><time>2014-05-03T06:58:22Z</time></trkpt><trkpt lat="49.6700071078" lon="12.1661816631"><ele>365.92</ele><time>2014-05-03T06:58:23Z</time></trkpt><trkpt lat="49.6699555591" lon="12.1661795676"><ele>366.40</ele><time>2014-05-03T06:58:24Z</time></trkpt><trkpt lat="49.6699047647" lon="12.1661775559"><ele>366.40</ele><time>2014-05-03T06:58:25Z</time></trkpt><trkpt lat="49.6698573232" lon="12.1661763825"><ele>366.40</ele><time>2014-05-03T06:58:26Z</time></trkpt><trkpt lat="49.6698112227" lon="12.1661722753"><ele>366.40</ele><time>2014-05-03T06:58:27Z</time></trkpt><trkpt lat="49.6697654575" lon="12.1661670785"><ele>366.40</ele><time>2014-05-03T06:58:28Z</time></trkpt><trkpt lat="49.6697185189" lon="12.1661637258"><ele>365.92</ele><time>2014-05-03T06:58:29Z</time></trkpt><trkpt lat="49.6696699038" lon="12.1661585290"><ele>366.40</ele><time>2014-05-03T06:58:30Z</time></trkpt><trkpt lat="49.6696221270" lon="12.1661511529"><ele>366.40</ele><time>2014-05-03T06:58:31Z</time></trkpt><trkpt lat="49.6695744339" lon="12.1661436092"><ele>366.40</ele><time>2014-05-03T06:58:32Z</time></trkpt><trkpt lat="49.6695245616" lon="12.1661378257"><ele>366.40</ele><time>2014-05-03T06:58:33Z</time></trkpt><trkpt lat="49.6694749407" lon="12.1661326289"><ele>366.40</ele><time>2014-05-03T06:58:34Z</time></trkpt><trkpt lat="49.6694269963" lon="12.1661292762"><ele>366.40</ele><time>2014-05-03T06:58:35Z</time></trkpt><trkpt lat="49.6693773754" lon="12.1661275160"><ele>366.40</ele><time>2014-05-03T06:58:36Z</time></trkpt><trkpt lat="49.6693264134" lon="12.1661286056"><ele>366.40</ele><time>2014-05-03T06:58:37Z</time></trkpt><trkpt lat="49.6692775469" lon="12.1661286056"><ele>366.40</ele><time>2014-05-03T06:58:38Z</time></trkpt><trkpt lat="49.6692297701" lon="12.1661279351"><ele>366.40</ele><time>2014-05-03T06:58:39Z</time></trkpt><trkpt lat="49.6691840887" lon="12.1661235765"><ele>366.40</ele><time>2014-05-03T06:58:40Z</time></trkpt><trkpt lat="49.6691391617" lon="12.1661196370"><ele>366.40</ele><time>2014-05-03T06:58:41Z</time></trkpt><trkpt lat="49.6690957434" lon="12.1661146078"><ele>366.40</ele><time>2014-05-03T06:58:42Z</time></trkpt><trkpt lat="49.6690537501" lon="12.1661098301"><ele>366.40</ele><time>2014-05-03T06:58:43Z</time></trkpt><trkpt lat="49.6690109186" lon="12.1661084052"><ele>366.40</ele><time>2014-05-03T06:58:44Z</time></trkpt><trkpt lat="49.6689653210" lon="12.1661061421"><ele>366.88</ele><time>2014-05-03T06:58:45Z</time></trkpt><trkpt lat="49.6689200588" lon="12.1661012806"><ele>366.88</ele><time>2014-05-03T06:58:46Z</time></trkpt><trkpt lat="49.6688723657" lon="12.1660961676"><ele>366.88</ele><time>2014-05-03T06:58:47Z</time></trkpt><trkpt lat="49.6688264329" lon="12.1660946589"><ele>366.88</ele><time>2014-05-03T06:58:48Z</time></trkpt><trkpt lat="49.6687816735" lon="12.1660939883"><ele>366.88</ele><time>2014-05-03T06:58:49Z</time></trkpt><trkpt lat="49.6687420271" lon="12.1660928987"><ele>366.88</ele><time>2014-05-03T06:58:50Z</time></trkpt><trkpt lat="49.6687081642" lon="12.1660940722"><ele>367.36</ele><time>2014-05-03T06:58:51Z</time></trkpt><trkpt lat="49.6686787438" lon="12.1660939045"><ele>366.88</ele><time>2014-05-03T06:58:52Z</time></trkpt><trkpt lat="49.6686515026" lon="12.1660866961"><ele>366.88</ele><time>2014-05-03T06:58:53Z</time></trkpt><trkpt lat="49.6686305478" lon="12.1660691779"><ele>366.88</ele><time>2014-05-03T06:58:54Z</time></trkpt><trkpt lat="49.6686199028" lon="12.1660383325"><ele>367.36</ele><time>2014-05-03T06:58:55Z</time></trkpt><trkpt lat="49.6686188132" lon="12.1659927350"><ele>367.84</ele><time>2014-05-03T06:58:56Z</time></trkpt><trkpt lat="49.6686242614" lon="12.1659369115"><ele>367.36</ele><time>2014-05-03T06:58:57Z</time></trkpt><trkpt lat="49.6686358284" lon="12.1658784896"><ele>367.36</ele><time>2014-05-03T06:58:58Z</time></trkpt><trkpt lat="49.6686496586" lon="12.1658200677"><ele>367.36</ele><time>2014-05-03T06:58:59Z</time></trkpt><trkpt lat="49.6686643269" lon="12.1657583769"><ele>366.88</ele><time>2014-05-03T06:59:00Z</time></trkpt><trkpt lat="49.6686696913" lon="12.1656995360"><ele>366.88</ele><time>2014-05-03T06:59:01Z</time></trkpt><trkpt lat="49.6686546039" lon="12.1656455565"><ele>366.40</ele><time>2014-05-03T06:59:02Z</time></trkpt><trkpt lat="49.6686214954" lon="12.1656017192"><ele>366.40</ele><time>2014-05-03T06:59:03Z</time></trkpt><trkpt lat="49.6685823519" lon="12.1655672695"><ele>365.92</ele><time>2014-05-03T06:59:04Z</time></trkpt><trkpt lat="49.6685443819" lon="12.1655368432"><ele>365.92</ele><time>2014-05-03T06:59:05Z</time></trkpt><trkpt lat="49.6685081720" lon="12.1655049082"><ele>365.92</ele><time>2014-05-03T06:59:06Z</time></trkpt><trkpt lat="49.6684735548" lon="12.1654769965"><ele>365.92</ele><time>2014-05-03T06:59:07Z</time></trkpt><trkpt lat="49.6684369259" lon="12.1654520184"><ele>365.44</ele><time>2014-05-03T06:59:08Z</time></trkpt><trkpt lat="49.6683951002" lon="12.1654290520"><ele>365.44</ele><time>2014-05-03T06:59:09Z</time></trkpt><trkpt lat="49.6683518495" lon="12.1654080134"><ele>365.44</ele><time>2014-05-03T06:59:10Z</time></trkpt><trkpt lat="49.6683065034" lon="12.1653911658"><ele>365.44</ele><time>2014-05-03T06:59:11Z</time></trkpt><trkpt lat="49.6682614926" lon="12.1653802693"><ele>364.96</ele><time>2014-05-03T06:59:12Z</time></trkpt><trkpt lat="49.6682157274" lon="12.1653780900"><ele>364.96</ele><time>2014-05-03T06:59:13Z</time></trkpt><trkpt lat="49.6681680344" lon="12.1653834544"><ele>364.48</ele><time>2014-05-03T06:59:14Z</time></trkpt><trkpt lat="49.6681165695" lon="12.1653968655"><ele>364.48</ele><time>2014-05-03T06:59:15Z</time></trkpt><trkpt lat="49.6680653561" lon="12.1654217597"><ele>364.00</ele><time>2014-05-03T06:59:16Z</time></trkpt><trkpt lat="49.6680150647" lon="12.1654548682"><ele>364.00</ele><time>2014-05-03T06:59:17Z</time></trkpt><trkpt lat="49.6679668687" lon="12.1655012202"><ele>363.52</ele><time>2014-05-03T06:59:18Z</time></trkpt><trkpt lat="49.6679174155" lon="12.1655574627"><ele>363.52</ele><time>2014-05-03T06:59:19Z</time></trkpt><trkpt lat="49.6678699739" lon="12.1656224225"><ele>363.52</ele><time>2014-05-03T06:59:20Z</time></trkpt><trkpt lat="49.6678237058" lon="12.1656966861"><ele>363.04</ele><time>2014-05-03T06:59:21Z</time></trkpt><trkpt lat="49.6677776054" lon="12.1657740511"><ele>363.04</ele><time>2014-05-03T06:59:22Z</time></trkpt><trkpt lat="49.6677289065" lon="12.1658449620"><ele>362.55</ele><time>2014-05-03T06:59:23Z</time></trkpt><trkpt lat="49.6676758491" lon="12.1659032162"><ele>363.04</ele><time>2014-05-03T06:59:24Z</time></trkpt><trkpt lat="49.6676231269" lon="12.1659504063"><ele>364.00</ele><time>2014-05-03T06:59:25Z</time></trkpt><trkpt lat="49.6675715782" lon="12.1659845207"><ele>364.48</ele><time>2014-05-03T06:59:26Z</time></trkpt><trkpt lat="49.6675155032" lon="12.1660073195"><ele>364.96</ele><time>2014-05-03T06:59:27Z</time></trkpt><trkpt lat="49.6674546506" lon="12.1660247538"><ele>364.96</ele><time>2014-05-03T06:59:28Z</time></trkpt><trkpt lat="49.6673924569" lon="12.1660390031"><ele>365.44</ele><time>2014-05-03T06:59:29Z</time></trkpt><trkpt lat="49.6673333645" lon="12.1660498157"><ele>365.44</ele><time>2014-05-03T06:59:30Z</time></trkpt><trkpt lat="49.6672743559" lon="12.1660601255"><ele>365.44</ele><time>2014-05-03T06:59:31Z</time></trkpt><trkpt lat="49.6672145929" lon="12.1660669986"><ele>365.44</ele><time>2014-05-03T06:59:32Z</time></trkpt><trkpt lat="49.6671549976" lon="12.1660720278"><ele>365.44</ele><time>2014-05-03T06:59:33Z</time></trkpt><trkpt lat="49.6670980006" lon="12.1660741232"><ele>365.92</ele><time>2014-05-03T06:59:34Z</time></trkpt><trkpt lat="49.6670412552" lon="12.1660732012"><ele>365.44</ele><time>2014-05-03T06:59:35Z</time></trkpt><trkpt lat="49.6669844259" lon="12.1660693455"><ele>365.44</ele><time>2014-05-03T06:59:36Z</time></trkpt><trkpt lat="49.6669323742" lon="12.1660642326"><ele>365.44</ele><time>2014-05-03T06:59:37Z</time></trkpt><trkpt lat="49.6668812446" lon="12.1660580300"><ele>365.44</ele><time>2014-05-03T06:59:38Z</time></trkpt><trkpt lat="49.6668279357" lon="12.1660511568"><ele>365.44</ele><time>2014-05-03T06:59:39Z</time></trkpt><trkpt lat="49.6667750459" lon="12.1660455409"><ele>365.44</ele><time>2014-05-03T06:59:40Z</time></trkpt><trkpt lat="49.6667220723" lon="12.1660431940"><ele>365.44</ele><time>2014-05-03T06:59:41Z</time></trkpt><trkpt lat="49.6666719485" lon="12.1660402603"><ele>365.44</ele><time>2014-05-03T06:59:42Z</time></trkpt><trkpt lat="49.6666224953" lon="12.1660343930"><ele>365.44</ele><time>2014-05-03T06:59:43Z</time></trkpt><trkpt lat="49.6665715333" lon="12.1660299506"><ele>365.92</ele><time>2014-05-03T06:59:44Z</time></trkpt><trkpt lat="49.6665189788" lon="12.1660255082"><ele>365.44</ele><time>2014-05-03T06:59:45Z</time></trkpt><trkpt lat="49.6664643288" lon="12.1660211496"><ele>365.44</ele><time>2014-05-03T06:59:46Z</time></trkpt><trkpt lat="49.6664084215" lon="12.1660162881"><ele>365.44</ele><time>2014-05-03T06:59:47Z</time></trkpt><trkpt lat="49.6663541067" lon="12.1660120133"><ele>365.44</ele><time>2014-05-03T06:59:48Z</time></trkpt><trkpt lat="49.6663002949" lon="12.1660113428"><ele>365.44</ele><time>2014-05-03T06:59:49Z</time></trkpt><trkpt lat="49.6662458126" lon="12.1660110075"><ele>365.44</ele><time>2014-05-03T06:59:50Z</time></trkpt><trkpt lat="49.6661891509" lon="12.1660108399"><ele>365.44</ele><time>2014-05-03T06:59:51Z</time></trkpt><trkpt lat="49.6661334950" lon="12.1660091635"><ele>365.44</ele><time>2014-05-03T06:59:52Z</time></trkpt><trkpt lat="49.6660790965" lon="12.1660058945"><ele>365.44</ele><time>2014-05-03T06:59:53Z</time></trkpt><trkpt lat="49.6660252009" lon="12.1660023741"><ele>365.44</ele><time>2014-05-03T06:59:54Z</time></trkpt><trkpt lat="49.6659720596" lon="12.1659992728"><ele>365.44</ele><time>2014-05-03T06:59:55Z</time></trkpt><trkpt lat="49.6659201756" lon="12.1659972612"><ele>365.44</ele><time>2014-05-03T06:59:56Z</time></trkpt><trkpt lat="49.6658698842" lon="12.1659958363"><ele>365.44</ele><time>2014-05-03T06:59:57Z</time></trkpt><trkpt lat="49.6658211853" lon="12.1659906395"><ele>365.44</ele><time>2014-05-03T06:59:58Z</time></trkpt><trkpt lat="49.6657703072" lon="12.1659833472"><ele>365.44</ele><time>2014-05-03T06:59:59Z</time></trkpt><trkpt lat="49.6657193452" lon="12.1659774799"><ele>365.44</ele><time>2014-05-03T07:00:00Z</time></trkpt><trkpt lat="49.6656664554" lon="12.1659726184"><ele>365.44</ele><time>2014-05-03T07:00:01Z</time></trkpt><trkpt lat="49.6656115539" lon="12.1659667511"><ele>365.44</ele><time>2014-05-03T07:00:02Z</time></trkpt><trkpt lat="49.6655556466" lon="12.1659612190"><ele>365.44</ele><time>2014-05-03T07:00:03Z</time></trkpt><trkpt lat="49.6655005775" lon="12.1659567766"><ele>365.44</ele><time>2014-05-03T07:00:04Z</time></trkpt><trkpt lat="49.6654453408" lon="12.1659517474"><ele>365.92</ele><time>2014-05-03T07:00:05Z</time></trkpt><trkpt lat="49.6653895173" lon="12.1659459639"><ele>365.92</ele><time>2014-05-03T07:00:06Z</time></trkpt><trkpt lat="49.6653335262" lon="12.1659427788"><ele>365.92</ele><time>2014-05-03T07:00:07Z</time></trkpt><trkpt lat="49.6652755234" lon="12.1659400128"><ele>365.92</ele><time>2014-05-03T07:00:08Z</time></trkpt><trkpt lat="49.6652186103" lon="12.1659332234"><ele>365.92</ele><time>2014-05-03T07:00:09Z</time></trkpt><trkpt lat="49.6651618648" lon="12.1659240033"><ele>365.92</ele><time>2014-05-03T07:00:10Z</time></trkpt><trkpt lat="49.6651055384" lon="12.1659150347"><ele>365.92</ele><time>2014-05-03T07:00:11Z</time></trkpt><trkpt lat="49.6650508046" lon="12.1659085806"><ele>365.92</ele><time>2014-05-03T07:00:12Z</time></trkpt><trkpt lat="49.6649979148" lon="12.1659025457"><ele>365.92</ele><time>2014-05-03T07:00:13Z</time></trkpt><trkpt lat="49.6649465337" lon="12.1658964269"><ele>365.92</ele><time>2014-05-03T07:00:14Z</time></trkpt><trkpt lat="49.6648920514" lon="12.1658894699"><ele>365.92</ele><time>2014-05-03T07:00:15Z</time></trkpt><trkpt lat="49.6648352221" lon="12.1658790763"><ele>365.92</ele><time>2014-05-03T07:00:16Z</time></trkpt><trkpt lat="49.6647797339" lon="12.1658689342"><ele>365.92</ele><time>2014-05-03T07:00:17Z</time></trkpt><trkpt lat="49.6647252515" lon="12.1658578701"><ele>365.92</ele><time>2014-05-03T07:00:18Z</time></trkpt><trkpt lat="49.6646716073" lon="12.1658413578"><ele>365.92</ele><time>2014-05-03T07:00:19Z</time></trkpt><trkpt lat="49.6646170411" lon="12.1658248454"><ele>365.92</ele><time>2014-05-03T07:00:20Z</time></trkpt><trkpt lat="49.6645603795" lon="12.1658119373"><ele>365.92</ele><time>2014-05-03T07:00:21Z</time></trkpt><trkpt lat="49.6645049751" lon="12.1658007056"><ele>365.92</ele><time>2014-05-03T07:00:22Z</time></trkpt><trkpt lat="49.6644512471" lon="12.1657879651"><ele>365.92</ele><time>2014-05-03T07:00:23Z</time></trkpt><trkpt lat="49.6643964294" lon="12.1657782421"><ele>365.92</ele><time>2014-05-03T07:00:24Z</time></trkpt><trkpt lat="49.6643416956" lon="12.1657665912"><ele>365.92</ele><time>2014-05-03T07:00:25Z</time></trkpt><trkpt lat="49.6642883867" lon="12.1657498274"><ele>365.92</ele><time>2014-05-03T07:00:26Z</time></trkpt><trkpt lat="49.6642335691" lon="12.1657316387"><ele>365.92</ele><time>2014-05-03T07:00:27Z</time></trkpt><trkpt lat="49.6641770750" lon="12.1657172218"><ele>365.92</ele><time>2014-05-03T07:00:28Z</time></trkpt><trkpt lat="49.6641210839" lon="12.1657032240"><ele>365.92</ele><time>2014-05-03T07:00:29Z</time></trkpt><trkpt lat="49.6640650090" lon="12.1656883042"><ele>365.92</ele><time>2014-05-03T07:00:30Z</time></trkpt><trkpt lat="49.6640115324" lon="12.1656749770"><ele>365.92</ele><time>2014-05-03T07:00:31Z</time></trkpt><trkpt lat="49.6639573015" lon="12.1656625718"><ele>365.92</ele><time>2014-05-03T07:00:32Z</time></trkpt><trkpt lat="49.6639041603" lon="12.1656473167"><ele>365.92</ele><time>2014-05-03T07:00:33Z</time></trkpt><trkpt lat="49.6638539527" lon="12.1656284574"><ele>365.92</ele><time>2014-05-03T07:00:34Z</time></trkpt><trkpt lat="49.6638017334" lon="12.1656102687"><ele>365.92</ele><time>2014-05-03T07:00:35Z</time></trkpt><trkpt lat="49.6637484245" lon="12.1655910742"><ele>365.92</ele><time>2014-05-03T07:00:36Z</time></trkpt><trkpt lat="49.6636950318" lon="12.1655707061"><ele>365.92</ele><time>2014-05-03T07:00:37Z</time></trkpt><trkpt lat="49.6636427287" lon="12.1655492485"><ele>365.92</ele><time>2014-05-03T07:00:38Z</time></trkpt><trkpt lat="49.6635899227" lon="12.1655256953"><ele>365.92</ele><time>2014-05-03T07:00:39Z</time></trkpt><trkpt lat="49.6635367814" lon="12.1655019745"><ele>365.92</ele><time>2014-05-03T07:00:40Z</time></trkpt><trkpt lat="49.6634793654" lon="12.1654832829"><ele>365.92</ele><time>2014-05-03T07:00:41Z</time></trkpt><trkpt lat="49.6634190157" lon="12.1654640045"><ele>365.92</ele><time>2014-05-03T07:00:42Z</time></trkpt><trkpt lat="49.6633586660" lon="12.1654459834"><ele>365.92</ele><time>2014-05-03T07:00:43Z</time></trkpt><trkpt lat="49.6633020043" lon="12.1654268727"><ele>366.40</ele><time>2014-05-03T07:00:44Z</time></trkpt><trkpt lat="49.6632463485" lon="12.1654071752"><ele>366.40</ele><time>2014-05-03T07:00:45Z</time></trkpt><trkpt lat="49.6631933749" lon="12.1653852146"><ele>366.40</ele><time>2014-05-03T07:00:46Z</time></trkpt><trkpt lat="49.6631452627" lon="12.1653619129"><ele>366.40</ele><time>2014-05-03T07:00:47Z</time></trkpt><trkpt lat="49.6630957257" lon="12.1653434727"><ele>366.40</ele><time>2014-05-03T07:00:48Z</time></trkpt><trkpt lat="49.6630455181" lon="12.1653244458"><ele>366.40</ele><time>2014-05-03T07:00:49Z</time></trkpt><trkpt lat="49.6629948914" lon="12.1652993001"><ele>366.40</ele><time>2014-05-03T07:00:50Z</time></trkpt><trkpt lat="49.6629442647" lon="12.1652712207"><ele>366.40</ele><time>2014-05-03T07:00:51Z</time></trkpt><trkpt lat="49.6628933027" lon="12.1652430575"><ele>366.40</ele><time>2014-05-03T07:00:52Z</time></trkpt><trkpt lat="49.6628411673" lon="12.1652168222"><ele>366.40</ele><time>2014-05-03T07:00:53Z</time></trkpt><trkpt lat="49.6627879422" lon="12.1651892457"><ele>366.40</ele><time>2014-05-03T07:00:54Z</time></trkpt><trkpt lat="49.6627389081" lon="12.1651614178"><ele>366.40</ele><time>2014-05-03T07:00:55Z</time></trkpt><trkpt lat="49.6626920532" lon="12.1651345957"><ele>366.88</ele><time>2014-05-03T07:00:56Z</time></trkpt><trkpt lat="49.6626438573" lon="12.1651069354"><ele>366.40</ele><time>2014-05-03T07:00:57Z</time></trkpt><trkpt lat="49.6625946555" lon="12.1650789399"><ele>366.40</ele><time>2014-05-03T07:00:58Z</time></trkpt><trkpt lat="49.6625437774" lon="12.1650506090"><ele>366.40</ele><time>2014-05-03T07:00:59Z</time></trkpt><trkpt lat="49.6624889597" lon="12.1650217753"><ele>366.40</ele><time>2014-05-03T07:01:00Z</time></trkpt><trkpt lat="49.6624322142" lon="12.1649925224"><ele>366.40</ele><time>2014-05-03T07:01:01Z</time></trkpt><trkpt lat="49.6623758879" lon="12.1649632696"><ele>366.40</ele><time>2014-05-03T07:01:02Z</time></trkpt><trkpt lat="49.6623218246" lon="12.1649360284"><ele>366.40</ele><time>2014-05-03T07:01:03Z</time></trkpt><trkpt lat="49.6622671746" lon="12.1649099607"><ele>365.92</ele><time>2014-05-03T07:01:04Z</time></trkpt><trkpt lat="49.6622133628" lon="12.1648820490"><ele>365.92</ele><time>2014-05-03T07:01:05Z</time></trkpt><trkpt lat="49.6621625684" lon="12.1648506168"><ele>366.40</ele><time>2014-05-03T07:01:06Z</time></trkpt><trkpt lat="49.6621131152" lon="12.1648200229"><ele>366.40</ele><time>2014-05-03T07:01:07Z</time></trkpt><trkpt lat="49.6620634105" lon="12.1647900995"><ele>366.40</ele><time>2014-05-03T07:01:08Z</time></trkpt><trkpt lat="49.6620108560" lon="12.1647575777"><ele>366.40</ele><time>2014-05-03T07:01:09Z</time></trkpt><trkpt lat="49.6619577985" lon="12.1647233795"><ele>366.40</ele><time>2014-05-03T07:01:10Z</time></trkpt><trkpt lat="49.6619054116" lon="12.1646928694"><ele>366.40</ele><time>2014-05-03T07:01:11Z</time></trkpt><trkpt lat="49.6618514322" lon="12.1646605991"><ele>366.40</ele><time>2014-05-03T07:01:12Z</time></trkpt><trkpt lat="49.6617983747" lon="12.1646261495"><ele>366.40</ele><time>2014-05-03T07:01:13Z</time></trkpt><trkpt lat="49.6617474966" lon="12.1645923704"><ele>366.40</ele><time>2014-05-03T07:01:14Z</time></trkpt><trkpt lat="49.6616979595" lon="12.1645549033"><ele>366.40</ele><time>2014-05-03T07:01:15Z</time></trkpt><trkpt lat="49.6616493445" lon="12.1645155083"><ele>366.40</ele><time>2014-05-03T07:01:16Z</time></trkpt><trkpt lat="49.6616003104" lon="12.1644774545"><ele>366.40</ele><time>2014-05-03T07:01:17Z</time></trkpt><trkpt lat="49.6615480911" lon="12.1644398198"><ele>366.88</ele><time>2014-05-03T07:01:18Z</time></trkpt><trkpt lat="49.6614941116" lon="12.1644036938"><ele>366.40</ele><time>2014-05-03T07:01:19Z</time></trkpt><trkpt lat="49.6614418924" lon="12.1643653885"><ele>366.40</ele><time>2014-05-03T07:01:20Z</time></trkpt><trkpt lat="49.6613884158" lon="12.1643264126"><ele>366.40</ele><time>2014-05-03T07:01:21Z</time></trkpt><trkpt lat="49.6613345202" lon="12.1642878558"><ele>366.40</ele><time>2014-05-03T07:01:22Z</time></trkpt><trkpt lat="49.6612839773" lon="12.1642488800"><ele>366.40</ele><time>2014-05-03T07:01:23Z</time></trkpt><trkpt lat="49.6612346917" lon="12.1642103232"><ele>366.40</ele><time>2014-05-03T07:01:24Z</time></trkpt><trkpt lat="49.6611862443" lon="12.1641681623"><ele>366.88</ele><time>2014-05-03T07:01:25Z</time></trkpt><trkpt lat="49.6611386351" lon="12.1641230676"><ele>366.40</ele><time>2014-05-03T07:01:26Z</time></trkpt><trkpt lat="49.6610905230" lon="12.1640808228"><ele>366.40</ele><time>2014-05-03T07:01:27Z</time></trkpt><trkpt lat="49.6610399801" lon="12.1640381590"><ele>366.88</ele><time>2014-05-03T07:01:28Z</time></trkpt><trkpt lat="49.6609893534" lon="12.1639985964"><ele>366.88</ele><time>2014-05-03T07:01:29Z</time></trkpt><trkpt lat="49.6609398164" lon="12.1639606263"><ele>366.40</ele><time>2014-05-03T07:01:30Z</time></trkpt><trkpt lat="49.6608906146" lon="12.1639224887"><ele>366.88</ele><time>2014-05-03T07:01:31Z</time></trkpt><trkpt lat="49.6608420834" lon="12.1638877038"><ele>366.40</ele><time>2014-05-03T07:01:32Z</time></trkpt><trkpt lat="49.6607931331" lon="12.1638519131"><ele>366.40</ele><time>2014-05-03T07:01:33Z</time></trkpt><trkpt lat="49.6607433446" lon="12.1638127696"><ele>366.40</ele><time>2014-05-03T07:01:34Z</time></trkpt><trkpt lat="49.6606917121" lon="12.1637686808"><ele>366.40</ele><time>2014-05-03T07:01:35Z</time></trkpt><trkpt lat="49.6606405824" lon="12.1637214068"><ele>366.88</ele><time>2014-05-03T07:01:36Z</time></trkpt><trkpt lat="49.6605902910" lon="12.1636759769"><ele>366.88</ele><time>2014-05-03T07:01:37Z</time></trkpt><trkpt lat="49.6605399996" lon="12.1636323910"><ele>366.88</ele><time>2014-05-03T07:01:38Z</time></trkpt><trkpt lat="49.6604891215" lon="12.1635888051"><ele>366.88</ele><time>2014-05-03T07:01:39Z</time></trkpt><trkpt lat="49.6604368184" lon="12.1635458060"><ele>366.88</ele><time>2014-05-03T07:01:40Z</time></trkpt><trkpt lat="49.6603845991" lon="12.1635053214"><ele>366.88</ele><time>2014-05-03T07:01:41Z</time></trkpt><trkpt lat="49.6603338886" lon="12.1634656750"><ele>366.88</ele><time>2014-05-03T07:01:42Z</time></trkpt><trkpt lat="49.6602824237" lon="12.1634251904"><ele>366.88</ele><time>2014-05-03T07:01:43Z</time></trkpt><trkpt lat="49.6602302045" lon="12.1633853763"><ele>366.88</ele><time>2014-05-03T07:01:44Z</time></trkpt><trkpt lat="49.6601753868" lon="12.1633455623"><ele>366.88</ele><time>2014-05-03T07:01:45Z</time></trkpt><trkpt lat="49.6601225808" lon="12.1633018088"><ele>366.88</ele><time>2014-05-03T07:01:46Z</time></trkpt><trkpt lat="49.6600704454" lon="12.1632560436"><ele>366.88</ele><time>2014-05-03T07:01:47Z</time></trkpt><trkpt lat="49.6600173041" lon="12.1632133797"><ele>366.88</ele><time>2014-05-03T07:01:48Z</time></trkpt><trkpt lat="49.6599658392" lon="12.1631728113"><ele>367.36</ele><time>2014-05-03T07:01:49Z</time></trkpt><trkpt lat="49.6599146258" lon="12.1631318238"><ele>366.88</ele><time>2014-05-03T07:01:50Z</time></trkpt><trkpt lat="49.6598649211" lon="12.1630916744"><ele>366.88</ele><time>2014-05-03T07:01:51Z</time></trkpt><trkpt lat="49.6598180663" lon="12.1630515251"><ele>366.88</ele><time>2014-05-03T07:01:52Z</time></trkpt><trkpt lat="49.6597721335" lon="12.1630129684"><ele>366.88</ele><time>2014-05-03T07:01:53Z</time></trkpt><trkpt lat="49.6597221773" lon="12.1629722323"><ele>366.88</ele><time>2014-05-03T07:01:54Z</time></trkpt><trkpt lat="49.6596707962" lon="12.1629311610"><ele>366.88</ele><time>2014-05-03T07:01:55Z</time></trkpt><trkpt lat="49.6596187446" lon="12.1628927719"><ele>366.88</ele><time>2014-05-03T07:01:56Z</time></trkpt><trkpt lat="49.6595684532" lon="12.1628576517"><ele>366.88</ele><time>2014-05-03T07:01:57Z</time></trkpt><trkpt lat="49.6595221851" lon="12.1628195979"><ele>366.88</ele><time>2014-05-03T07:01:58Z</time></trkpt><trkpt lat="49.6594747435" lon="12.1627807058"><ele>366.88</ele><time>2014-05-03T07:01:59Z</time></trkpt><trkpt lat="49.6594280563" lon="12.1627390478"><ele>366.88</ele><time>2014-05-03T07:02:00Z</time></trkpt><trkpt lat="49.6593834646" lon="12.1626941208"><ele>366.88</ele><time>2014-05-03T07:02:01Z</time></trkpt><trkpt lat="49.6593387052" lon="12.1626507025"><ele>367.36</ele><time>2014-05-03T07:02:02Z</time></trkpt><trkpt lat="49.6592917666" lon="12.1626119781"><ele>367.36</ele><time>2014-05-03T07:02:03Z</time></trkpt><trkpt lat="49.6592410561" lon="12.1625765227"><ele>366.88</ele><time>2014-05-03T07:02:04Z</time></trkpt><trkpt lat="49.6591889206" lon="12.1625400614"><ele>366.88</ele><time>2014-05-03T07:02:05Z</time></trkpt><trkpt lat="49.6591349412" lon="12.1624996606"><ele>366.88</ele><time>2014-05-03T07:02:06Z</time></trkpt><trkpt lat="49.6590828896" lon="12.1624559909"><ele>367.36</ele><time>2014-05-03T07:02:07Z</time></trkpt><trkpt lat="49.6590297483" lon="12.1624103095"><ele>366.88</ele><time>2014-05-03T07:02:08Z</time></trkpt><trkpt lat="49.6589771938" lon="12.1623645443"><ele>366.88</ele><time>2014-05-03T07:02:09Z</time></trkpt><trkpt lat="49.6589276567" lon="12.1623171028"><ele>366.88</ele><time>2014-05-03T07:02:10Z</time></trkpt><trkpt lat="49.6588780358" lon="12.1622738522"><ele>366.88</ele><time>2014-05-03T07:02:11Z</time></trkpt><trkpt lat="49.6588281635" lon="12.1622318588"><ele>366.88</ele><time>2014-05-03T07:02:12Z</time></trkpt><trkpt lat="49.6587778721" lon="12.1621918771"><ele>366.88</ele><time>2014-05-03T07:02:13Z</time></trkpt><trkpt lat="49.6587286703" lon="12.1621524822"><ele>367.36</ele><time>2014-05-03T07:02:14Z</time></trkpt><trkpt lat="49.6586815640" lon="12.1621088125"><ele>367.36</ele><time>2014-05-03T07:02:15Z</time></trkpt><trkpt lat="49.6586332843" lon="12.1620664839"><ele>367.36</ele><time>2014-05-03T07:02:16Z</time></trkpt><trkpt lat="49.6585822385" lon="12.1620211378"><ele>366.88</ele><time>2014-05-03T07:02:17Z</time></trkpt><trkpt lat="49.6585278399" lon="12.1619782224"><ele>366.88</ele><time>2014-05-03T07:02:18Z</time></trkpt><trkpt lat="49.6584710106" lon="12.1619389951"><ele>366.88</ele><time>2014-05-03T07:02:19Z</time></trkpt><trkpt lat="49.6584163606" lon="12.1618983429"><ele>367.36</ele><time>2014-05-03T07:02:20Z</time></trkpt><trkpt lat="49.6583620459" lon="12.1618594509"><ele>366.88</ele><time>2014-05-03T07:02:21Z</time></trkpt><trkpt lat="49.6583064739" lon="12.1618190501"><ele>366.88</ele><time>2014-05-03T07:02:22Z</time></trkpt><trkpt lat="49.6582519915" lon="12.1617789008"><ele>367.36</ele><time>2014-05-03T07:02:23Z</time></trkpt><trkpt lat="49.6582010295" lon="12.1617369913"><ele>367.36</ele><time>2014-05-03T07:02:24Z</time></trkpt><trkpt lat="49.6581503190" lon="12.1616967581"><ele>366.88</ele><time>2014-05-03T07:02:25Z</time></trkpt><trkpt lat="49.6580995247" lon="12.1616582852"><ele>367.36</ele><time>2014-05-03T07:02:26Z</time></trkpt><trkpt lat="49.6580481436" lon="12.1616181359"><ele>366.88</ele><time>2014-05-03T07:02:27Z</time></trkpt><trkpt lat="49.6579959244" lon="12.1615757234"><ele>366.88</ele><time>2014-05-03T07:02:28Z</time></trkpt><trkpt lat="49.6579421964" lon="12.1615339816"><ele>367.36</ele><time>2014-05-03T07:02:29Z</time></trkpt><trkpt lat="49.6578884684" lon="12.1614923235"><ele>367.36</ele><time>2014-05-03T07:02:30Z</time></trkpt><trkpt lat="49.6578342374" lon="12.1614513360"><ele>367.36</ele><time>2014-05-03T07:02:31Z</time></trkpt><trkpt lat="49.6577803418" lon="12.1614105161"><ele>367.36</ele><time>2014-05-03T07:02:32Z</time></trkpt><trkpt lat="49.6577268653" lon="12.1613696124"><ele>367.36</ele><time>2014-05-03T07:02:33Z</time></trkpt><trkpt lat="49.6576779988" lon="12.1613313071"><ele>366.88</ele><time>2014-05-03T07:02:34Z</time></trkpt><trkpt lat="49.6576296352" lon="12.1612943429"><ele>366.88</ele><time>2014-05-03T07:02:35Z</time></trkpt><trkpt lat="49.6575782541" lon="12.1612551995"><ele>366.88</ele><time>2014-05-03T07:02:36Z</time></trkpt><trkpt lat="49.6575277112" lon="12.1612152178"><ele>366.88</ele><time>2014-05-03T07:02:37Z</time></trkpt><trkpt lat="49.6574775875" lon="12.1611722186"><ele>367.36</ele><time>2014-05-03T07:02:38Z</time></trkpt><trkpt lat="49.6574272122" lon="12.1611307282"><ele>367.36</ele><time>2014-05-03T07:02:39Z</time></trkpt><trkpt lat="49.6573744062" lon="12.1610933449"><ele>367.36</ele><time>2014-05-03T07:02:40Z</time></trkpt><trkpt lat="49.6573256236" lon="12.1610557102"><ele>367.36</ele><time>2014-05-03T07:02:41Z</time></trkpt><trkpt lat="49.6572798584" lon="12.1610156447"><ele>367.36</ele><time>2014-05-03T07:02:42Z</time></trkpt><trkpt lat="49.6572367754" lon="12.1609752439"><ele>367.36</ele><time>2014-05-03T07:02:43Z</time></trkpt><trkpt lat="49.6571950335" lon="12.1609392017"><ele>367.36</ele><time>2014-05-03T07:02:44Z</time></trkpt><trkpt lat="49.6571530402" lon="12.1609091945"><ele>367.36</ele><time>2014-05-03T07:02:45Z</time></trkpt><trkpt lat="49.6571101248" lon="12.1608805284"><ele>367.36</ele><time>2014-05-03T07:02:46Z</time></trkpt><trkpt lat="49.6570621803" lon="12.1608481742"><ele>367.36</ele><time>2014-05-03T07:02:47Z</time></trkpt><trkpt lat="49.6570076142" lon="12.1608133893"><ele>366.88</ele><time>2014-05-03T07:02:48Z</time></trkpt><trkpt lat="49.6569466777" lon="12.1607798617"><ele>366.40</ele><time>2014-05-03T07:02:49Z</time></trkpt><trkpt lat="49.6568810474" lon="12.1607485972"><ele>366.40</ele><time>2014-05-03T07:02:50Z</time></trkpt><trkpt lat="49.6568142436" lon="12.1607111301"><ele>365.92</ele><time>2014-05-03T07:02:51Z</time></trkpt><trkpt lat="49.6567472722" lon="12.1606747527"><ele>365.44</ele><time>2014-05-03T07:02:52Z</time></trkpt><trkpt lat="49.6566811390" lon="12.1606351901"><ele>365.44</ele><time>2014-05-03T07:02:53Z</time></trkpt><trkpt lat="49.6566261537" lon="12.1605838090"><ele>365.44</ele><time>2014-05-03T07:02:54Z</time></trkpt><trkpt lat="49.6565794665" lon="12.1605266444"><ele>365.44</ele><time>2014-05-03T07:02:55Z</time></trkpt><trkpt lat="49.6565368865" lon="12.1604709048"><ele>365.92</ele><time>2014-05-03T07:02:56Z</time></trkpt><trkpt lat="49.6564933006" lon="12.1604142431"><ele>365.92</ele><time>2014-05-03T07:02:57Z</time></trkpt><trkpt lat="49.6564480383" lon="12.1603606828"><ele>366.40</ele><time>2014-05-03T07:02:58Z</time></trkpt><trkpt lat="49.6564033628" lon="12.1603140794"><ele>366.40</ele><time>2014-05-03T07:02:59Z</time></trkpt><trkpt lat="49.6563560050" lon="12.1602685656"><ele>366.88</ele><time>2014-05-03T07:03:00Z</time></trkpt><trkpt lat="49.6563047916" lon="12.1602243092"><ele>366.88</ele><time>2014-05-03T07:03:01Z</time></trkpt><trkpt lat="49.6562528238" lon="12.1601812262"><ele>366.88</ele><time>2014-05-03T07:03:02Z</time></trkpt><trkpt lat="49.6561995149" lon="12.1601384785"><ele>366.88</ele><time>2014-05-03T07:03:03Z</time></trkpt><trkpt lat="49.6561482176" lon="12.1600988321"><ele>366.88</ele><time>2014-05-03T07:03:04Z</time></trkpt><trkpt lat="49.6560968366" lon="12.1600578446"><ele>366.88</ele><time>2014-05-03T07:03:05Z</time></trkpt><trkpt lat="49.6560452878" lon="12.1600155160"><ele>366.88</ele><time>2014-05-03T07:03:06Z</time></trkpt><trkpt lat="49.6559954155" lon="12.1599731036"><ele>366.88</ele><time>2014-05-03T07:03:07Z</time></trkpt><trkpt lat="49.6559468005" lon="12.1599316970"><ele>366.88</ele><time>2014-05-03T07:03:08Z</time></trkpt><trkpt lat="49.6558992751" lon="12.1598912962"><ele>366.88</ele><time>2014-05-03T07:03:09Z</time></trkpt><trkpt lat="49.6558519173" lon="12.1598508954"><ele>366.88</ele><time>2014-05-03T07:03:10Z</time></trkpt><trkpt lat="49.6558034699" lon="12.1598088183"><ele>366.88</ele><time>2014-05-03T07:03:11Z</time></trkpt><trkpt lat="49.6557524242" lon="12.1597637236"><ele>366.88</ele><time>2014-05-03T07:03:12Z</time></trkpt><trkpt lat="49.6556989476" lon="12.1597161982"><ele>366.88</ele><time>2014-05-03T07:03:13Z</time></trkpt><trkpt lat="49.6556436270" lon="12.1596693434"><ele>366.88</ele><time>2014-05-03T07:03:14Z</time></trkpt><trkpt lat="49.6555893123" lon="12.1596238296"><ele>366.88</ele><time>2014-05-03T07:03:15Z</time></trkpt><trkpt lat="49.6555346623" lon="12.1595761366"><ele>366.88</ele><time>2014-05-03T07:03:16Z</time></trkpt><trkpt lat="49.6554811019" lon="12.1595302876"><ele>366.40</ele><time>2014-05-03T07:03:17Z</time></trkpt><trkpt lat="49.6554297209" lon="12.1594854444"><ele>366.88</ele><time>2014-05-03T07:03:18Z</time></trkpt><trkpt lat="49.6553810220" lon="12.1594421938"><ele>366.88</ele><time>2014-05-03T07:03:19Z</time></trkpt><trkpt lat="49.6553325746" lon="12.1594050620"><ele>366.88</ele><time>2014-05-03T07:03:20Z</time></trkpt><trkpt lat="49.6552831214" lon="12.1593685169"><ele>367.36</ele><time>2014-05-03T07:03:21Z</time></trkpt><trkpt lat="49.6552325785" lon="12.1593260206"><ele>367.36</ele><time>2014-05-03T07:03:22Z</time></trkpt><trkpt lat="49.6551787667" lon="12.1592814289"><ele>367.36</ele><time>2014-05-03T07:03:23Z</time></trkpt><trkpt lat="49.6551228594" lon="12.1592345741"><ele>366.88</ele><time>2014-05-03T07:03:24Z</time></trkpt><trkpt lat="49.6550655272" lon="12.1591861267"><ele>366.88</ele><time>2014-05-03T07:03:25Z</time></trkpt><trkpt lat="49.6550078597" lon="12.1591410320"><ele>366.88</ele><time>2014-05-03T07:03:26Z</time></trkpt><trkpt lat="49.6549512818" lon="12.1590969432"><ele>366.88</ele><time>2014-05-03T07:03:27Z</time></trkpt><trkpt lat="49.6548953746" lon="12.1590536926"><ele>366.88</ele><time>2014-05-03T07:03:28Z</time></trkpt><trkpt lat="49.6548400540" lon="12.1590099391"><ele>366.88</ele><time>2014-05-03T07:03:29Z</time></trkpt><trkpt lat="49.6547854878" lon="12.1589646768"><ele>366.88</ele><time>2014-05-03T07:03:30Z</time></trkpt><trkpt lat="49.6547293290" lon="12.1589205042"><ele>366.88</ele><time>2014-05-03T07:03:31Z</time></trkpt><trkpt lat="49.6546718292" lon="12.1588777564"><ele>366.88</ele><time>2014-05-03T07:03:32Z</time></trkpt><trkpt lat="49.6546137426" lon="12.1588330809"><ele>366.40</ele><time>2014-05-03T07:03:33Z</time></trkpt><trkpt lat="49.6545557398" lon="12.1587852202"><ele>366.88</ele><time>2014-05-03T07:03:34Z</time></trkpt><trkpt lat="49.6544971503" lon="12.1587383654"><ele>366.40</ele><time>2014-05-03T07:03:35Z</time></trkpt><trkpt lat="49.6544399019" lon="12.1586912591"><ele>366.40</ele><time>2014-05-03T07:03:36Z</time></trkpt><trkpt lat="49.6543857548" lon="12.1586466674"><ele>366.40</ele><time>2014-05-03T07:03:37Z</time></trkpt><trkpt lat="49.6543308534" lon="12.1586057637"><ele>366.88</ele><time>2014-05-03T07:03:38Z</time></trkpt><trkpt lat="49.6542743593" lon="12.1585633513"><ele>366.88</ele><time>2014-05-03T07:03:39Z</time></trkpt><trkpt lat="49.6542175300" lon="12.1585211903"><ele>366.88</ele><time>2014-05-03T07:03:40Z</time></trkpt><trkpt lat="49.6541594435" lon="12.1584758442"><ele>366.40</ele><time>2014-05-03T07:03:41Z</time></trkpt><trkpt lat="49.6541011892" lon="12.1584286541"><ele>366.88</ele><time>2014-05-03T07:03:42Z</time></trkpt><trkpt lat="49.6540429350" lon="12.1583811287"><ele>366.40</ele><time>2014-05-03T07:03:43Z</time></trkpt><trkpt lat="49.6539850999" lon="12.1583332680"><ele>366.40</ele><time>2014-05-03T07:03:44Z</time></trkpt><trkpt lat="49.6539269295" lon="12.1582870837"><ele>366.88</ele><time>2014-05-03T07:03:45Z</time></trkpt><trkpt lat="49.6538680885" lon="12.1582387201"><ele>366.88</ele><time>2014-05-03T07:03:46Z</time></trkpt><trkpt lat="49.6538095828" lon="12.1581939608"><ele>366.88</ele><time>2014-05-03T07:03:47Z</time></trkpt><trkpt lat="49.6537507419" lon="12.1581503749"><ele>366.40</ele><time>2014-05-03T07:03:48Z</time></trkpt><trkpt lat="49.6536914818" lon="12.1581060346"><ele>366.88</ele><time>2014-05-03T07:03:49Z</time></trkpt><trkpt lat="49.6536333952" lon="12.1580606885"><ele>366.88</ele><time>2014-05-03T07:03:50Z</time></trkpt><trkpt lat="49.6535740513" lon="12.1580140851"><ele>366.88</ele><time>2014-05-03T07:03:51Z</time></trkpt><trkpt lat="49.6535142884" lon="12.1579672303"><ele>366.40</ele><time>2014-05-03T07:03:52Z</time></trkpt><trkpt lat="49.6534525137" lon="12.1579186991"><ele>366.40</ele><time>2014-05-03T07:03:53Z</time></trkpt><trkpt lat="49.6533907391" lon="12.1578709222"><ele>366.40</ele><time>2014-05-03T07:03:54Z</time></trkpt><trkpt lat="49.6533270366" lon="12.1578234807"><ele>366.40</ele><time>2014-05-03T07:03:55Z</time></trkpt><trkpt lat="49.6532650106" lon="12.1577721834"><ele>366.40</ele><time>2014-05-03T07:03:56Z</time></trkpt><trkpt lat="49.6532047447" lon="12.1577211376"><ele>366.40</ele><time>2014-05-03T07:03:57Z</time></trkpt><trkpt lat="49.6531469095" lon="12.1576767135"><ele>366.88</ele><time>2014-05-03T07:03:58Z</time></trkpt><trkpt lat="49.6530920081" lon="12.1576340497"><ele>366.88</ele><time>2014-05-03T07:03:59Z</time></trkpt><trkpt lat="49.6530388668" lon="12.1575909667"><ele>366.88</ele><time>2014-05-03T07:04:00Z</time></trkpt><trkpt lat="49.6529851388" lon="12.1575473808"><ele>366.88</ele><time>2014-05-03T07:04:01Z</time></trkpt><trkpt lat="49.6529301535" lon="12.1575012803"><ele>366.88</ele><time>2014-05-03T07:04:02Z</time></trkpt><trkpt lat="49.6528757550" lon="12.1574549284"><ele>366.88</ele><time>2014-05-03T07:04:03Z</time></trkpt><trkpt lat="49.6528185066" lon="12.1574084088"><ele>366.88</ele><time>2014-05-03T07:04:04Z</time></trkpt><trkpt lat="49.6527582407" lon="12.1573616378"><ele>366.88</ele><time>2014-05-03T07:04:05Z</time></trkpt><trkpt lat="49.6526973043" lon="12.1573159564"><ele>366.88</ele><time>2014-05-03T07:04:06Z</time></trkpt><trkpt lat="49.6526360326" lon="12.1572679281"><ele>366.40</ele><time>2014-05-03T07:04:07Z</time></trkpt><trkpt lat="49.6525753476" lon="12.1572179720"><ele>366.40</ele><time>2014-05-03T07:04:08Z</time></trkpt><trkpt lat="49.6525170095" lon="12.1571716201"><ele>366.40</ele><time>2014-05-03T07:04:09Z</time></trkpt><trkpt lat="49.6524613537" lon="12.1571272798"><ele>366.40</ele><time>2014-05-03T07:04:10Z</time></trkpt><trkpt lat="49.6524065360" lon="12.1570841130"><ele>366.88</ele><time>2014-05-03T07:04:11Z</time></trkpt><trkpt lat="49.6523529757" lon="12.1570422873"><ele>366.88</ele><time>2014-05-03T07:04:12Z</time></trkpt><trkpt lat="49.6523001697" lon="12.1570015512"><ele>366.88</ele><time>2014-05-03T07:04:13Z</time></trkpt><trkpt lat="49.6522458550" lon="12.1569597255"><ele>366.88</ele><time>2014-05-03T07:04:14Z</time></trkpt><trkpt lat="49.6521910373" lon="12.1569153853"><ele>366.88</ele><time>2014-05-03T07:04:15Z</time></trkpt><trkpt lat="49.6521351300" lon="12.1568691172"><ele>366.88</ele><time>2014-05-03T07:04:16Z</time></trkpt><trkpt lat="49.6520762891" lon="12.1568210050"><ele>366.88</ele><time>2014-05-03T07:04:17Z</time></trkpt><trkpt lat="49.6520175319" lon="12.1567725576"><ele>366.88</ele><time>2014-05-03T07:04:18Z</time></trkpt><trkpt lat="49.6519598644" lon="12.1567233559"><ele>366.88</ele><time>2014-05-03T07:04:19Z</time></trkpt><trkpt lat="49.6519021969" lon="12.1566761658"><ele>366.88</ele><time>2014-05-03T07:04:20Z</time></trkpt><trkpt lat="49.6518430207" lon="12.1566282213"><ele>366.88</ele><time>2014-05-03T07:04:21Z</time></trkpt><trkpt lat="49.6517820004" lon="12.1565785166"><ele>366.40</ele><time>2014-05-03T07:04:22Z</time></trkpt><trkpt lat="49.6517194714" lon="12.1565291472"><ele>366.40</ele><time>2014-05-03T07:04:23Z</time></trkpt><trkpt lat="49.6516576968" lon="12.1564827953"><ele>366.40</ele><time>2014-05-03T07:04:24Z</time></trkpt><trkpt lat="49.6515996102" lon="12.1564360242"><ele>366.40</ele><time>2014-05-03T07:04:25Z</time></trkpt><trkpt lat="49.6515434515" lon="12.1563900076"><ele>366.88</ele><time>2014-05-03T07:04:26Z</time></trkpt><trkpt lat="49.6514880471" lon="12.1563445777"><ele>366.88</ele><time>2014-05-03T07:04:27Z</time></trkpt><trkpt lat="49.6514317207" lon="12.1562986448"><ele>366.88</ele><time>2014-05-03T07:04:28Z</time></trkpt><trkpt lat="49.6513751429" lon="12.1562532987"><ele>366.88</ele><time>2014-05-03T07:04:29Z</time></trkpt><trkpt lat="49.6513165534" lon="12.1562072821"><ele>366.88</ele><time>2014-05-03T07:04:30Z</time></trkpt><trkpt lat="49.6512575448" lon="12.1561600920"><ele>366.88</ele><time>2014-05-03T07:04:31Z</time></trkpt><trkpt lat="49.6511982009" lon="12.1561125666"><ele>366.88</ele><time>2014-05-03T07:04:32Z</time></trkpt><trkpt lat="49.6511383541" lon="12.1560635325"><ele>366.88</ele><time>2014-05-03T07:04:33Z</time></trkpt><trkpt lat="49.6510780882" lon="12.1560146660"><ele>366.88</ele><time>2014-05-03T07:04:34Z</time></trkpt><trkpt lat="49.6510176547" lon="12.1559673082"><ele>366.88</ele><time>2014-05-03T07:04:35Z</time></trkpt><trkpt lat="49.6509561315" lon="12.1559191961"><ele>366.88</ele><time>2014-05-03T07:04:36Z</time></trkpt><trkpt lat="49.6508943569" lon="12.1558682341"><ele>366.88</ele><time>2014-05-03T07:04:37Z</time></trkpt><trkpt lat="49.6508329175" lon="12.1558178589"><ele>366.40</ele><time>2014-05-03T07:04:38Z</time></trkpt><trkpt lat="49.6507738251" lon="12.1557697468"><ele>366.40</ele><time>2014-05-03T07:04:39Z</time></trkpt><trkpt lat="49.6507161576" lon="12.1557225566"><ele>366.40</ele><time>2014-05-03T07:04:40Z</time></trkpt><trkpt lat="49.6506570652" lon="12.1556766238"><ele>366.40</ele><time>2014-05-03T07:04:41Z</time></trkpt><trkpt lat="49.6505988948" lon="12.1556273382"><ele>366.88</ele><time>2014-05-03T07:04:42Z</time></trkpt><trkpt lat="49.6505413949" lon="12.1555776335"><ele>366.88</ele><time>2014-05-03T07:04:43Z</time></trkpt><trkpt lat="49.6504823864" lon="12.1555289347"><ele>366.88</ele><time>2014-05-03T07:04:44Z</time></trkpt><trkpt lat="49.6504212823" lon="12.1554819960"><ele>366.88</ele><time>2014-05-03T07:04:45Z</time></trkpt><trkpt lat="49.6503602620" lon="12.1554336324"><ele>366.88</ele><time>2014-05-03T07:04:46Z</time></trkpt><trkpt lat="49.6502984874" lon="12.1553852689"><ele>366.88</ele><time>2014-05-03T07:04:47Z</time></trkpt><trkpt lat="49.6502370480" lon="12.1553364024"><ele>366.40</ele><time>2014-05-03T07:04:48Z</time></trkpt><trkpt lat="49.6501762792" lon="12.1552853566"><ele>366.40</ele><time>2014-05-03T07:04:49Z</time></trkpt><trkpt lat="49.6501154266" lon="12.1552350651"><ele>366.40</ele><time>2014-05-03T07:04:50Z</time></trkpt><trkpt lat="49.6500543226" lon="12.1551844385"><ele>366.40</ele><time>2014-05-03T07:04:51Z</time></trkpt><trkpt lat="49.6499963198" lon="12.1551396791"><ele>366.40</ele><time>2014-05-03T07:04:52Z</time></trkpt><trkpt lat="49.6499393228" lon="12.1550961770"><ele>366.40</ele><time>2014-05-03T07:04:53Z</time></trkpt><trkpt lat="49.6498847567" lon="12.1550504956"><ele>366.40</ele><time>2014-05-03T07:04:54Z</time></trkpt><trkpt lat="49.6498315316" lon="12.1550078318"><ele>366.88</ele><time>2014-05-03T07:04:55Z</time></trkpt><trkpt lat="49.6497765463" lon="12.1549642459"><ele>367.36</ele><time>2014-05-03T07:04:56Z</time></trkpt><trkpt lat="49.6497206390" lon="12.1549199894"><ele>366.88</ele><time>2014-05-03T07:04:57Z</time></trkpt><trkpt lat="49.6496633906" lon="12.1548705362"><ele>366.88</ele><time>2014-05-03T07:04:58Z</time></trkpt><trkpt lat="49.6496022027" lon="12.1548142936"><ele>366.88</ele><time>2014-05-03T07:04:59Z</time></trkpt><trkpt lat="49.6495390870" lon="12.1547582187"><ele>366.40</ele><time>2014-05-03T07:05:00Z</time></trkpt><trkpt lat="49.6494752169" lon="12.1547053289"><ele>366.40</ele><time>2014-05-03T07:05:01Z</time></trkpt><trkpt lat="49.6494101733" lon="12.1546529420"><ele>366.40</ele><time>2014-05-03T07:05:02Z</time></trkpt><trkpt lat="49.6493458003" lon="12.1546011418"><ele>366.40</ele><time>2014-05-03T07:05:03Z</time></trkpt><trkpt lat="49.6492841095" lon="12.1545520239"><ele>366.40</ele><time>2014-05-03T07:05:04Z</time></trkpt><trkpt lat="49.6492266934" lon="12.1545042470"><ele>366.40</ele><time>2014-05-03T07:05:05Z</time></trkpt><trkpt lat="49.6491702832" lon="12.1544583142"><ele>366.88</ele><time>2014-05-03T07:05:06Z</time></trkpt><trkpt lat="49.6491128672" lon="12.1544111241"><ele>366.88</ele><time>2014-05-03T07:05:07Z</time></trkpt><trkpt lat="49.6490562055" lon="12.1543645207"><ele>366.88</ele><time>2014-05-03T07:05:08Z</time></trkpt><trkpt lat="49.6490004659" lon="12.1543175820"><ele>366.88</ele><time>2014-05-03T07:05:09Z</time></trkpt><trkpt lat="49.6489453968" lon="12.1542700566"><ele>366.88</ele><time>2014-05-03T07:05:10Z</time></trkpt><trkpt lat="49.6488909982" lon="12.1542235371"><ele>367.36</ele><time>2014-05-03T07:05:11Z</time></trkpt><trkpt lat="49.6488362644" lon="12.1541771013"><ele>367.36</ele><time>2014-05-03T07:05:12Z</time></trkpt><trkpt lat="49.6487813629" lon="12.1541333478"><ele>367.36</ele><time>2014-05-03T07:05:13Z</time></trkpt><trkpt lat="49.6487252042" lon="12.1540911868"><ele>367.36</ele><time>2014-05-03T07:05:14Z</time></trkpt><trkpt lat="49.6486686263" lon="12.1540473495"><ele>367.36</ele><time>2014-05-03T07:05:15Z</time></trkpt><trkpt lat="49.6486120485" lon="12.1540036798"><ele>367.36</ele><time>2014-05-03T07:05:16Z</time></trkpt><trkpt lat="49.6485543810" lon="12.1539587528"><ele>367.36</ele><time>2014-05-03T07:05:17Z</time></trkpt><trkpt lat="49.6484975517" lon="12.1539144125"><ele>367.36</ele><time>2014-05-03T07:05:18Z</time></trkpt><trkpt lat="49.6484425664" lon="12.1538712457"><ele>367.36</ele><time>2014-05-03T07:05:19Z</time></trkpt><trkpt lat="49.6483870782" lon="12.1538296714"><ele>367.36</ele><time>2014-05-03T07:05:20Z</time></trkpt><trkpt lat="49.6483295783" lon="12.1537898574"><ele>367.36</ele><time>2014-05-03T07:05:21Z</time></trkpt><trkpt lat="49.6482691448" lon="12.1537495404"><ele>367.84</ele><time>2014-05-03T07:05:22Z</time></trkpt><trkpt lat="49.6482066158" lon="12.1537109837"><ele>367.84</ele><time>2014-05-03T07:05:23Z</time></trkpt><trkpt lat="49.6481443383" lon="12.1536749415"><ele>367.84</ele><time>2014-05-03T07:05:24Z</time></trkpt><trkpt lat="49.6480842400" lon="12.1536391508"><ele>367.36</ele><time>2014-05-03T07:05:25Z</time></trkpt><trkpt lat="49.6480236389" lon="12.1536042821"><ele>367.36</ele><time>2014-05-03T07:05:26Z</time></trkpt><trkpt lat="49.6479606070" lon="12.1535713412"><ele>367.84</ele><time>2014-05-03T07:05:27Z</time></trkpt><trkpt lat="49.6478974074" lon="12.1535394900"><ele>367.36</ele><time>2014-05-03T07:05:28Z</time></trkpt><trkpt lat="49.6478351299" lon="12.1535093151"><ele>366.88</ele><time>2014-05-03T07:05:29Z</time></trkpt><trkpt lat="49.6477741096" lon="12.1534798946"><ele>367.36</ele><time>2014-05-03T07:05:30Z</time></trkpt><trkpt lat="49.6477138437" lon="12.1534559224"><ele>367.36</ele><time>2014-05-03T07:05:31Z</time></trkpt><trkpt lat="49.6476529911" lon="12.1534329560"><ele>367.36</ele><time>2014-05-03T07:05:32Z</time></trkpt><trkpt lat="49.6475920547" lon="12.1534080617"><ele>367.36</ele><time>2014-05-03T07:05:33Z</time></trkpt><trkpt lat="49.6475300286" lon="12.1533832513"><ele>367.36</ele><time>2014-05-03T07:05:34Z</time></trkpt><trkpt lat="49.6474668290" lon="12.1533626318"><ele>367.36</ele><time>2014-05-03T07:05:35Z</time></trkpt><trkpt lat="49.6474042162" lon="12.1533414256"><ele>367.84</ele><time>2014-05-03T07:05:36Z</time></trkpt><trkpt lat="49.6473413520" lon="12.1533194650"><ele>367.84</ele><time>2014-05-03T07:05:37Z</time></trkpt><trkpt lat="49.6472789906" lon="12.1532993484"><ele>367.84</ele><time>2014-05-03T07:05:38Z</time></trkpt><trkpt lat="49.6472192276" lon="12.1532801539"><ele>367.84</ele><time>2014-05-03T07:05:39Z</time></trkpt><trkpt lat="49.6471613087" lon="12.1532602049"><ele>367.36</ele><time>2014-05-03T07:05:40Z</time></trkpt><trkpt lat="49.6471052337" lon="12.1532415133"><ele>367.36</ele><time>2014-05-03T07:05:41Z</time></trkpt><trkpt lat="49.6470465604" lon="12.1532218158"><ele>367.36</ele><time>2014-05-03T07:05:42Z</time></trkpt><trkpt lat="49.6469862107" lon="12.1531965025"><ele>367.36</ele><time>2014-05-03T07:05:43Z</time></trkpt><trkpt lat="49.6469243523" lon="12.1531657409"><ele>367.36</ele><time>2014-05-03T07:05:44Z</time></trkpt><trkpt lat="49.6468619071" lon="12.1531314589"><ele>367.36</ele><time>2014-05-03T07:05:45Z</time></trkpt><trkpt lat="49.6468002163" lon="12.1530992724"><ele>367.36</ele><time>2014-05-03T07:05:46Z</time></trkpt><trkpt lat="49.6467379387" lon="12.1530753002"><ele>367.36</ele><time>2014-05-03T07:05:47Z</time></trkpt><trkpt lat="49.6466724761" lon="12.1530610509"><ele>367.36</ele><time>2014-05-03T07:05:48Z</time></trkpt><trkpt lat="49.6466051694" lon="12.1530556027"><ele>367.36</ele><time>2014-05-03T07:05:49Z</time></trkpt><trkpt lat="49.6465401258" lon="12.1530566923"><ele>367.36</ele><time>2014-05-03T07:05:50Z</time></trkpt><trkpt lat="49.6464767586" lon="12.1530633979"><ele>367.36</ele><time>2014-05-03T07:05:51Z</time></trkpt><trkpt lat="49.6464155708" lon="12.1530712768"><ele>367.36</ele><time>2014-05-03T07:05:52Z</time></trkpt><trkpt lat="49.6463548020" lon="12.1530791558"><ele>367.36</ele><time>2014-05-03T07:05:53Z</time></trkpt><trkpt lat="49.6462933626" lon="12.1530874539"><ele>367.36</ele><time>2014-05-03T07:05:54Z</time></trkpt><trkpt lat="49.6462313365" lon="12.1530892979"><ele>367.36</ele><time>2014-05-03T07:05:55Z</time></trkpt><trkpt lat="49.6461701486" lon="12.1530866157"><ele>367.36</ele><time>2014-05-03T07:05:56Z</time></trkpt><trkpt lat="49.6461118944" lon="12.1530799102"><ele>367.36</ele><time>2014-05-03T07:05:57Z</time></trkpt><trkpt lat="49.6460532211" lon="12.1530783176"><ele>367.84</ele><time>2014-05-03T07:05:58Z</time></trkpt><trkpt lat="49.6459919494" lon="12.1530837659"><ele>367.84</ele><time>2014-05-03T07:05:59Z</time></trkpt><trkpt lat="49.6459280793" lon="12.1530950814"><ele>367.36</ele><time>2014-05-03T07:06:00Z</time></trkpt><trkpt lat="49.6458642092" lon="12.1531100851"><ele>367.36</ele><time>2014-05-03T07:06:01Z</time></trkpt><trkpt lat="49.6458014287" lon="12.1531234961"><ele>367.36</ele><time>2014-05-03T07:06:02Z</time></trkpt><trkpt lat="49.6457386483" lon="12.1531325486"><ele>367.36</ele><time>2014-05-03T07:06:03Z</time></trkpt><trkpt lat="49.6456753649" lon="12.1531409305"><ele>367.36</ele><time>2014-05-03T07:06:04Z</time></trkpt><trkpt lat="49.6456125006" lon="12.1531451214"><ele>367.36</ele><time>2014-05-03T07:06:05Z</time></trkpt><trkpt lat="49.6455499716" lon="12.1531448700"><ele>367.36</ele><time>2014-05-03T07:06:06Z</time></trkpt><trkpt lat="49.6454866044" lon="12.1531438641"><ele>367.36</ele><time>2014-05-03T07:06:07Z</time></trkpt><trkpt lat="49.6454243269" lon="12.1531421039"><ele>367.36</ele><time>2014-05-03T07:06:08Z</time></trkpt><trkpt lat="49.6453623008" lon="12.1531400084"><ele>367.36</ele><time>2014-05-03T07:06:09Z</time></trkpt><trkpt lat="49.6452999394" lon="12.1531374101"><ele>367.36</ele><time>2014-05-03T07:06:10Z</time></trkpt><trkpt lat="49.6452390030" lon="12.1531335544"><ele>367.36</ele><time>2014-05-03T07:06:11Z</time></trkpt><trkpt lat="49.6451794077" lon="12.1531295311"><ele>367.36</ele><time>2014-05-03T07:06:12Z</time></trkpt><trkpt lat="49.6451203153" lon="12.1531239990"><ele>367.36</ele><time>2014-05-03T07:06:13Z</time></trkpt><trkpt lat="49.6450602170" lon="12.1531165391"><ele>367.36</ele><time>2014-05-03T07:06:14Z</time></trkpt><trkpt lat="49.6449997835" lon="12.1531120967"><ele>367.36</ele><time>2014-05-03T07:06:15Z</time></trkpt><trkpt lat="49.6449403558" lon="12.1531079896"><ele>367.36</ele><time>2014-05-03T07:06:16Z</time></trkpt><trkpt lat="49.6448794194" lon="12.1531014517"><ele>367.36</ele><time>2014-05-03T07:06:17Z</time></trkpt><trkpt lat="49.6448184829" lon="12.1530950814"><ele>367.36</ele><time>2014-05-03T07:06:18Z</time></trkpt><trkpt lat="49.6447559539" lon="12.1530882083"><ele>367.36</ele><time>2014-05-03T07:06:19Z</time></trkpt><trkpt lat="49.6446930896" lon="12.1530830115"><ele>367.36</ele><time>2014-05-03T07:06:20Z</time></trkpt><trkpt lat="49.6446308121" lon="12.1530772280"><ele>367.36</ele><time>2014-05-03T07:06:21Z</time></trkpt><trkpt lat="49.6445704624" lon="12.1530730370"><ele>367.36</ele><time>2014-05-03T07:06:22Z</time></trkpt><trkpt lat="49.6445128787" lon="12.1530710254"><ele>367.36</ele><time>2014-05-03T07:06:23Z</time></trkpt><trkpt lat="49.6444557142" lon="12.1530611347"><ele>367.36</ele><time>2014-05-03T07:06:24Z</time></trkpt><trkpt lat="49.6443992201" lon="12.1530513279"><ele>367.36</ele><time>2014-05-03T07:06:25Z</time></trkpt><trkpt lat="49.6443398762" lon="12.1530431975"><ele>367.36</ele><time>2014-05-03T07:06:26Z</time></trkpt><trkpt lat="49.6442808677" lon="12.1530333906"><ele>367.36</ele><time>2014-05-03T07:06:27Z</time></trkpt><trkpt lat="49.6442226134" lon="12.1530250926"><ele>367.84</ele><time>2014-05-03T07:06:28Z</time></trkpt><trkpt lat="49.6441676281" lon="12.1530209016"><ele>367.84</ele><time>2014-05-03T07:06:29Z</time></trkpt><trkpt lat="49.6441175882" lon="12.1530146990"><ele>368.32</ele><time>2014-05-03T07:06:30Z</time></trkpt><trkpt lat="49.6440756787" lon="12.1530059818"><ele>368.32</ele><time>2014-05-03T07:06:31Z</time></trkpt><trkpt lat="49.6440426540" lon="12.1529924031"><ele>368.80</ele><time>2014-05-03T07:06:32Z</time></trkpt><trkpt lat="49.6440169215" lon="12.1529732924"><ele>369.28</ele><time>2014-05-03T07:06:33Z</time></trkpt><trkpt lat="49.6439944580" lon="12.1529432014"><ele>369.28</ele><time>2014-05-03T07:06:34Z</time></trkpt><trkpt lat="49.6439807117" lon="12.1528934967"><ele>369.28</ele><time>2014-05-03T07:06:35Z</time></trkpt><trkpt lat="49.6439765207" lon="12.1528259385"><ele>369.28</ele><time>2014-05-03T07:06:36Z</time></trkpt><trkpt lat="49.6439789515" lon="12.1527516749"><ele>368.80</ele><time>2014-05-03T07:06:37Z</time></trkpt><trkpt lat="49.6439867467" lon="12.1526748966"><ele>369.28</ele><time>2014-05-03T07:06:38Z</time></trkpt><trkpt lat="49.6439973917" lon="12.1525926702"><ele>369.28</ele><time>2014-05-03T07:06:39Z</time></trkpt><trkpt lat="49.6440100484" lon="12.1525058337"><ele>368.80</ele><time>2014-05-03T07:06:40Z</time></trkpt><trkpt lat="49.6440222859" lon="12.1524208412"><ele>368.80</ele><time>2014-05-03T07:06:41Z</time></trkpt><trkpt lat="49.6440341044" lon="12.1523355134"><ele>368.80</ele><time>2014-05-03T07:06:42Z</time></trkpt><trkpt lat="49.6440460067" lon="12.1522541251"><ele>369.28</ele><time>2014-05-03T07:06:43Z</time></trkpt><trkpt lat="49.6440590825" lon="12.1521760896"><ele>369.28</ele><time>2014-05-03T07:06:44Z</time></trkpt><trkpt lat="49.6440719068" lon="12.1520995628"><ele>368.80</ele><time>2014-05-03T07:06:45Z</time></trkpt><trkpt lat="49.6440833062" lon="12.1520264726"><ele>369.28</ele><time>2014-05-03T07:06:46Z</time></trkpt><trkpt lat="49.6440937836" lon="12.1519615129"><ele>369.28</ele><time>2014-05-03T07:06:47Z</time></trkpt><trkpt lat="49.6441066917" lon="12.1518999897"><ele>369.28</ele><time>2014-05-03T07:06:48Z</time></trkpt><trkpt lat="49.6441206057" lon="12.1518409811"><ele>369.28</ele><time>2014-05-03T07:06:49Z</time></trkpt><trkpt lat="49.6441298258" lon="12.1517798770"><ele>369.28</ele><time>2014-05-03T07:06:50Z</time></trkpt><trkpt lat="49.6441261377" lon="12.1517123189"><ele>369.28</ele><time>2014-05-03T07:06:51Z</time></trkpt><trkpt lat="49.6441070270" lon="12.1516456828"><ele>369.76</ele><time>2014-05-03T07:06:52Z</time></trkpt><trkpt lat="49.6440734155" lon="12.1515882667"><ele>369.76</ele><time>2014-05-03T07:06:53Z</time></trkpt><trkpt lat="49.6440305002" lon="12.1515421662"><ele>369.28</ele><time>2014-05-03T07:06:54Z</time></trkpt><trkpt lat="49.6439810470" lon="12.1515026875"><ele>369.28</ele><time>2014-05-03T07:06:55Z</time></trkpt><trkpt lat="49.6439272352" lon="12.1514647175"><ele>369.76</ele><time>2014-05-03T07:06:56Z</time></trkpt><trkpt lat="49.6438706573" lon="12.1514273342"><ele>369.28</ele><time>2014-05-03T07:06:57Z</time></trkpt><trkpt lat="49.6438117325" lon="12.1513901185"><ele>369.28</ele><time>2014-05-03T07:06:58Z</time></trkpt><trkpt lat="49.6437517181" lon="12.1513573453"><ele>369.28</ele><time>2014-05-03T07:06:59Z</time></trkpt><trkpt lat="49.6436922904" lon="12.1513319481"><ele>369.28</ele><time>2014-05-03T07:07:00Z</time></trkpt><trkpt lat="49.6436327789" lon="12.1513104066"><ele>369.28</ele><time>2014-05-03T07:07:01Z</time></trkpt><trkpt lat="49.6435711719" lon="12.1512950677"><ele>369.28</ele><time>2014-05-03T07:07:02Z</time></trkpt><trkpt lat="49.6435092296" lon="12.1512886975"><ele>369.28</ele><time>2014-05-03T07:07:03Z</time></trkpt><trkpt lat="49.6434498020" lon="12.1512919664"><ele>369.28</ele><time>2014-05-03T07:07:04Z</time></trkpt><trkpt lat="49.6433923859" lon="12.1512990072"><ele>369.28</ele><time>2014-05-03T07:07:05Z</time></trkpt><trkpt lat="49.6433348022" lon="12.1512959059"><ele>369.28</ele><time>2014-05-03T07:07:06Z</time></trkpt><trkpt lat="49.6432760451" lon="12.1512837522"><ele>369.28</ele><time>2014-05-03T07:07:07Z</time></trkpt><trkpt lat="49.6432165336" lon="12.1512694191"><ele>369.28</ele><time>2014-05-03T07:07:08Z</time></trkpt><trkpt lat="49.6431565192" lon="12.1512576845"><ele>368.80</ele><time>2014-05-03T07:07:09Z</time></trkpt><trkpt lat="49.6430957504" lon="12.1512463689"><ele>368.80</ele><time>2014-05-03T07:07:10Z</time></trkpt><trkpt lat="49.6430353168" lon="12.1512342151"><ele>368.80</ele><time>2014-05-03T07:07:11Z</time></trkpt><trkpt lat="49.6429768112" lon="12.1512218937"><ele>368.80</ele><time>2014-05-03T07:07:12Z</time></trkpt><trkpt lat="49.6429204009" lon="12.1512031183"><ele>368.80</ele><time>2014-05-03T07:07:13Z</time></trkpt><trkpt lat="49.6428661700" lon="12.1511767153"><ele>368.80</ele><time>2014-05-03T07:07:14Z</time></trkpt><trkpt lat="49.6428115200" lon="12.1511436068"><ele>368.80</ele><time>2014-05-03T07:07:15Z</time></trkpt><trkpt lat="49.6427553613" lon="12.1511073969"><ele>368.80</ele><time>2014-05-03T07:07:16Z</time></trkpt><trkpt lat="49.6426979452" lon="12.1510680020"><ele>369.28</ele><time>2014-05-03T07:07:17Z</time></trkpt><trkpt lat="49.6426407807" lon="12.1510327980"><ele>368.80</ele><time>2014-05-03T07:07:18Z</time></trkpt><trkpt lat="49.6425836999" lon="12.1509970073"><ele>368.80</ele><time>2014-05-03T07:07:19Z</time></trkpt><trkpt lat="49.6425274573" lon="12.1509633958"><ele>368.80</ele><time>2014-05-03T07:07:20Z</time></trkpt><trkpt lat="49.6424717177" lon="12.1509304550"><ele>368.80</ele><time>2014-05-03T07:07:21Z</time></trkpt><trkpt lat="49.6424148884" lon="12.1508997772"><ele>368.80</ele><time>2014-05-03T07:07:22Z</time></trkpt><trkpt lat="49.6423560474" lon="12.1508647408"><ele>368.80</ele><time>2014-05-03T07:07:23Z</time></trkpt><trkpt lat="49.6422961168" lon="12.1508301236"><ele>368.80</ele><time>2014-05-03T07:07:24Z</time></trkpt><trkpt lat="49.6422358509" lon="12.1507976018"><ele>368.80</ele><time>2014-05-03T07:07:25Z</time></trkpt><trkpt lat="49.6421756689" lon="12.1507631522"><ele>368.32</ele><time>2014-05-03T07:07:26Z</time></trkpt><trkpt lat="49.6421148162" lon="12.1507255174"><ele>368.80</ele><time>2014-05-03T07:07:27Z</time></trkpt><trkpt lat="49.6420511138" lon="12.1506855357"><ele>368.32</ele><time>2014-05-03T07:07:28Z</time></trkpt><trkpt lat="49.6419859864" lon="12.1506468952"><ele>368.80</ele><time>2014-05-03T07:07:29Z</time></trkpt><trkpt lat="49.6419211105" lon="12.1506081708"><ele>368.32</ele><time>2014-05-03T07:07:30Z</time></trkpt><trkpt lat="49.6418581624" lon="12.1505696978"><ele>368.32</ele><time>2014-05-03T07:07:31Z</time></trkpt><trkpt lat="49.6417948790" lon="12.1505318955"><ele>368.80</ele><time>2014-05-03T07:07:32Z</time></trkpt><trkpt lat="49.6417328529" lon="12.1504977811"><ele>368.80</ele><time>2014-05-03T07:07:33Z</time></trkpt><trkpt lat="49.6416720003" lon="12.1504621580"><ele>368.80</ele><time>2014-05-03T07:07:34Z</time></trkpt><trkpt lat="49.6416126564" lon="12.1504257806"><ele>368.80</ele><time>2014-05-03T07:07:35Z</time></trkpt><trkpt lat="49.6415533964" lon="12.1503891516"><ele>368.80</ele><time>2014-05-03T07:07:36Z</time></trkpt><trkpt lat="49.6414939687" lon="12.1503515169"><ele>368.80</ele><time>2014-05-03T07:07:37Z</time></trkpt><trkpt lat="49.6414337866" lon="12.1503177378"><ele>368.32</ele><time>2014-05-03T07:07:38Z</time></trkpt><trkpt lat="49.6413741913" lon="12.1502833720"><ele>368.80</ele><time>2014-05-03T07:07:39Z</time></trkpt><trkpt lat="49.6413139254" lon="12.1502455696"><ele>368.80</ele><time>2014-05-03T07:07:40Z</time></trkpt><trkpt lat="49.6412532404" lon="12.1502082702"><ele>368.80</ele><time>2014-05-03T07:07:41Z</time></trkpt><trkpt lat="49.6411897894" lon="12.1501712222"><ele>368.32</ele><time>2014-05-03T07:07:42Z</time></trkpt><trkpt lat="49.6411255002" lon="12.1501387842"><ele>368.32</ele><time>2014-05-03T07:07:43Z</time></trkpt><trkpt lat="49.6410626359" lon="12.1501086932"><ele>368.32</ele><time>2014-05-03T07:07:44Z</time></trkpt><trkpt lat="49.6410002746" lon="12.1500744950"><ele>368.32</ele><time>2014-05-03T07:07:45Z</time></trkpt><trkpt lat="49.6409387514" lon="12.1500396263"><ele>368.32</ele><time>2014-05-03T07:07:46Z</time></trkpt><trkpt lat="49.6408757195" lon="12.1500066016"><ele>368.80</ele><time>2014-05-03T07:07:47Z</time></trkpt><trkpt lat="49.6408116817" lon="12.1499734931"><ele>368.32</ele><time>2014-05-03T07:07:48Z</time></trkpt><trkpt lat="49.6407489851" lon="12.1499379538"><ele>368.32</ele><time>2014-05-03T07:07:49Z</time></trkpt><trkpt lat="49.6406866238" lon="12.1499037556"><ele>368.80</ele><time>2014-05-03T07:07:50Z</time></trkpt><trkpt lat="49.6406263579" lon="12.1498701442"><ele>368.80</ele><time>2014-05-03T07:07:51Z</time></trkpt><trkpt lat="49.6405675169" lon="12.1498389635"><ele>368.80</ele><time>2014-05-03T07:07:52Z</time></trkpt><trkpt lat="49.6405094303" lon="12.1498083696"><ele>368.80</ele><time>2014-05-03T07:07:53Z</time></trkpt><trkpt lat="49.6404520981" lon="12.1497796196"><ele>368.80</ele><time>2014-05-03T07:07:54Z</time></trkpt><trkpt lat="49.6403983701" lon="12.1497517917"><ele>368.32</ele><time>2014-05-03T07:07:55Z</time></trkpt><trkpt lat="49.6403494198" lon="12.1497194376"><ele>368.80</ele><time>2014-05-03T07:07:56Z</time></trkpt><trkpt lat="49.6403003018" lon="12.1496881731"><ele>368.32</ele><time>2014-05-03T07:07:57Z</time></trkpt><trkpt lat="49.6402474120" lon="12.1496796235"><ele>368.32</ele><time>2014-05-03T07:07:58Z</time></trkpt><trkpt lat="49.6401951928" lon="12.1496963874"><ele>368.80</ele><time>2014-05-03T07:07:59Z</time></trkpt><trkpt lat="49.6401465777" lon="12.1497325972"><ele>368.80</ele><time>2014-05-03T07:08:00Z</time></trkpt><trkpt lat="49.6400990523" lon="12.1497808769"><ele>369.28</ele><time>2014-05-03T07:08:01Z</time></trkpt><trkpt lat="49.6400509402" lon="12.1498282347"><ele>369.28</ele><time>2014-05-03T07:08:02Z</time></trkpt><trkpt lat="49.6400009003" lon="12.1498777717"><ele>369.28</ele><time>2014-05-03T07:08:03Z</time></trkpt><trkpt lat="49.6399506927" lon="12.1499268059"><ele>369.28</ele><time>2014-05-03T07:08:04Z</time></trkpt><trkpt lat="49.6398971323" lon="12.1499760915"><ele>369.28</ele><time>2014-05-03T07:08:05Z</time></trkpt><trkpt lat="49.6398401354" lon="12.1500305738"><ele>368.80</ele><time>2014-05-03T07:08:06Z</time></trkpt><trkpt lat="49.6397823840" lon="12.1500894148"><ele>368.32</ele><time>2014-05-03T07:08:07Z</time></trkpt><trkpt lat="49.6397226211" lon="12.1501511056"><ele>368.32</ele><time>2014-05-03T07:08:08Z</time></trkpt><trkpt lat="49.6396603435" lon="12.1502161492"><ele>368.32</ele><time>2014-05-03T07:08:09Z</time></trkpt><trkpt lat="49.6395975631" lon="12.1502807736"><ele>368.32</ele><time>2014-05-03T07:08:10Z</time></trkpt><trkpt lat="49.6395340282" lon="12.1503433865"><ele>367.84</ele><time>2014-05-03T07:08:11Z</time></trkpt><trkpt lat="49.6394713316" lon="12.1504049096"><ele>368.32</ele><time>2014-05-03T07:08:12Z</time></trkpt><trkpt lat="49.6394110657" lon="12.1504637506"><ele>368.32</ele><time>2014-05-03T07:08:13Z</time></trkpt><trkpt lat="49.6393530630" lon="12.1505187359"><ele>367.84</ele><time>2014-05-03T07:08:14Z</time></trkpt><trkpt lat="49.6392960660" lon="12.1505712904"><ele>367.84</ele><time>2014-05-03T07:08:15Z</time></trkpt><trkpt lat="49.6392373927" lon="12.1506256051"><ele>367.84</ele><time>2014-05-03T07:08:16Z</time></trkpt><trkpt lat="49.6391803958" lon="12.1506820153"><ele>367.84</ele><time>2014-05-03T07:08:17Z</time></trkpt><trkpt lat="49.6391223092" lon="12.1507394314"><ele>367.84</ele><time>2014-05-03T07:08:18Z</time></trkpt><trkpt lat="49.6390648093" lon="12.1507959254"><ele>367.84</ele><time>2014-05-03T07:08:19Z</time></trkpt><trkpt lat="49.6390068904" lon="12.1508504078"><ele>367.84</ele><time>2014-05-03T07:08:20Z</time></trkpt><trkpt lat="49.6389429364" lon="12.1508943290"><ele>367.84</ele><time>2014-05-03T07:08:21Z</time></trkpt><trkpt lat="49.6388738696" lon="12.1509146132"><ele>367.84</ele><time>2014-05-03T07:08:22Z</time></trkpt><trkpt lat="49.6388031263" lon="12.1509098355"><ele>367.84</ele><time>2014-05-03T07:08:23Z</time></trkpt><trkpt lat="49.6387333050" lon="12.1508885454"><ele>367.84</ele><time>2014-05-03T07:08:24Z</time></trkpt><trkpt lat="49.6386647411" lon="12.1508605499"><ele>367.84</ele><time>2014-05-03T07:08:25Z</time></trkpt><trkpt lat="49.6385979373" lon="12.1508325543"><ele>367.36</ele><time>2014-05-03T07:08:26Z</time></trkpt><trkpt lat="49.6385337319" lon="12.1508066542"><ele>367.84</ele><time>2014-05-03T07:08:27Z</time></trkpt><trkpt lat="49.6384692751" lon="12.1507815924"><ele>367.36</ele><time>2014-05-03T07:08:28Z</time></trkpt><trkpt lat="49.6384057403" lon="12.1507561114"><ele>367.84</ele><time>2014-05-03T07:08:29Z</time></trkpt><trkpt lat="49.6383410320" lon="12.1507308818"><ele>367.84</ele><time>2014-05-03T07:08:30Z</time></trkpt><trkpt lat="49.6382733900" lon="12.1507041436"><ele>367.36</ele><time>2014-05-03T07:08:31Z</time></trkpt><trkpt lat="49.6382038202" lon="12.1506743878"><ele>367.84</ele><time>2014-05-03T07:08:32Z</time></trkpt><trkpt lat="49.6381350886" lon="12.1506469790"><ele>367.36</ele><time>2014-05-03T07:08:33Z</time></trkpt><trkpt lat="49.6380673628" lon="12.1506215818"><ele>367.36</ele><time>2014-05-03T07:08:34Z</time></trkpt><trkpt lat="49.6380009782" lon="12.1505935024"><ele>367.36</ele><time>2014-05-03T07:08:35Z</time></trkpt><trkpt lat="49.6379352640" lon="12.1505557839"><ele>367.36</ele><time>2014-05-03T07:08:36Z</time></trkpt><trkpt lat="49.6378720645" lon="12.1505109407"><ele>367.36</ele><time>2014-05-03T07:08:37Z</time></trkpt><trkpt lat="49.6378116310" lon="12.1504631639"><ele>367.36</ele><time>2014-05-03T07:08:38Z</time></trkpt><trkpt lat="49.6377521195" lon="12.1504183207"><ele>367.36</ele><time>2014-05-03T07:08:39Z</time></trkpt><trkpt lat="49.6376920212" lon="12.1503766626"><ele>367.36</ele><time>2014-05-03T07:08:40Z</time></trkpt><trkpt lat="49.6376314200" lon="12.1503476612"><ele>367.36</ele><time>2014-05-03T07:08:41Z</time></trkpt><trkpt lat="49.6375677176" lon="12.1503458172"><ele>367.36</ele><time>2014-05-03T07:08:42Z</time></trkpt><trkpt lat="49.6375073679" lon="12.1503748186"><ele>367.84</ele><time>2014-05-03T07:08:43Z</time></trkpt><trkpt lat="49.6374593396" lon="12.1504350007"><ele>367.84</ele><time>2014-05-03T07:08:44Z</time></trkpt><trkpt lat="49.6374245547" lon="12.1505166404"><ele>367.84</ele><time>2014-05-03T07:08:45Z</time></trkpt><trkpt lat="49.6373955533" lon="12.1506035607"><ele>367.84</ele><time>2014-05-03T07:08:46Z</time></trkpt><trkpt lat="49.6373698208" lon="12.1506908163"><ele>368.32</ele><time>2014-05-03T07:08:47Z</time></trkpt><trkpt lat="49.6373447590" lon="12.1507797483"><ele>368.32</ele><time>2014-05-03T07:08:48Z</time></trkpt><trkpt lat="49.6373207867" lon="12.1508702729"><ele>368.32</ele><time>2014-05-03T07:08:49Z</time></trkpt><trkpt lat="49.6372982394" lon="12.1509618033"><ele>368.32</ele><time>2014-05-03T07:08:50Z</time></trkpt><trkpt lat="49.6372731775" lon="12.1510511544"><ele>368.32</ele><time>2014-05-03T07:08:51Z</time></trkpt><trkpt lat="49.6372464392" lon="12.1511404216"><ele>368.32</ele><time>2014-05-03T07:08:52Z</time></trkpt><trkpt lat="49.6372207068" lon="12.1512314491"><ele>368.32</ele><time>2014-05-03T07:08:53Z</time></trkpt><trkpt lat="49.6371984947" lon="12.1513218898"><ele>368.32</ele><time>2014-05-03T07:08:54Z</time></trkpt><trkpt lat="49.6371858381" lon="12.1514155995"><ele>368.32</ele><time>2014-05-03T07:08:55Z</time></trkpt><trkpt lat="49.6371857543" lon="12.1515087225"><ele>368.32</ele><time>2014-05-03T07:08:56Z</time></trkpt><trkpt lat="49.6371964831" lon="12.1515979059"><ele>368.32</ele><time>2014-05-03T07:08:57Z</time></trkpt><trkpt lat="49.6372165997" lon="12.1516849101"><ele>368.32</ele><time>2014-05-03T07:08:58Z</time></trkpt><trkpt lat="49.6372462716" lon="12.1517627779"><ele>368.32</ele><time>2014-05-03T07:08:59Z</time></trkpt><trkpt lat="49.6372846607" lon="12.1518277377"><ele>368.80</ele><time>2014-05-03T07:09:00Z</time></trkpt><trkpt lat="49.6373246424" lon="12.1518797055"><ele>368.80</ele><time>2014-05-03T07:09:01Z</time></trkpt><trkpt lat="49.6373628639" lon="12.1519217826"><ele>368.80</ele><time>2014-05-03T07:09:02Z</time></trkpt><trkpt lat="49.6373959724" lon="12.1519683860"><ele>369.28</ele><time>2014-05-03T07:09:03Z</time></trkpt><trkpt lat="49.6374170948" lon="12.1520210244"><ele>369.28</ele><time>2014-05-03T07:09:04Z</time></trkpt><trkpt lat="49.6374238841" lon="12.1520784404"><ele>369.28</ele><time>2014-05-03T07:09:05Z</time></trkpt><trkpt lat="49.6374147478" lon="12.1521358564"><ele>369.76</ele><time>2014-05-03T07:09:06Z</time></trkpt><trkpt lat="49.6373983193" lon="12.1521911770"><ele>369.76</ele><time>2014-05-03T07:09:07Z</time></trkpt><trkpt lat="49.6373815555" lon="12.1522480901"><ele>370.24</ele><time>2014-05-03T07:09:08Z</time></trkpt><trkpt lat="49.6373663843" lon="12.1523070149"><ele>370.73</ele><time>2014-05-03T07:09:09Z</time></trkpt><trkpt lat="49.6373501234" lon="12.1523681190"><ele>370.73</ele><time>2014-05-03T07:09:10Z</time></trkpt><trkpt lat="49.6373323537" lon="12.1524310671"><ele>370.73</ele><time>2014-05-03T07:09:11Z</time></trkpt><trkpt lat="49.6373164281" lon="12.1524957754"><ele>370.73</ele><time>2014-05-03T07:09:12Z</time></trkpt><trkpt lat="49.6373014245" lon="12.1525583882"><ele>370.73</ele><time>2014-05-03T07:09:13Z</time></trkpt><trkpt lat="49.6372833196" lon="12.1526197437"><ele>370.73</ele><time>2014-05-03T07:09:14Z</time></trkpt><trkpt lat="49.6372557431" lon="12.1526699513"><ele>370.73</ele><time>2014-05-03T07:09:15Z</time></trkpt><trkpt lat="49.6372169349" lon="12.1527012996"><ele>370.24</ele><time>2014-05-03T07:09:16Z</time></trkpt><trkpt lat="49.6371702477" lon="12.1527082566"><ele>370.24</ele><time>2014-05-03T07:09:17Z</time></trkpt><trkpt lat="49.6371183638" lon="12.1526977792"><ele>370.24</ele><time>2014-05-03T07:09:18Z</time></trkpt><trkpt lat="49.6370657254" lon="12.1526821051"><ele>370.24</ele><time>2014-05-03T07:09:19Z</time></trkpt><trkpt lat="49.6370125003" lon="12.1526591387"><ele>370.24</ele><time>2014-05-03T07:09:20Z</time></trkpt><trkpt lat="49.6369601972" lon="12.1526354179"><ele>370.24</ele><time>2014-05-03T07:09:21Z</time></trkpt><trkpt lat="49.6369071398" lon="12.1526142955"><ele>370.24</ele><time>2014-05-03T07:09:22Z</time></trkpt><trkpt lat="49.6368545853" lon="12.1525919158"><ele>370.24</ele><time>2014-05-03T07:09:23Z</time></trkpt><trkpt lat="49.6368034557" lon="12.1525706258"><ele>370.24</ele><time>2014-05-03T07:09:24Z</time></trkpt><trkpt lat="49.6367503144" lon="12.1525516827"><ele>370.24</ele><time>2014-05-03T07:09:25Z</time></trkpt><trkpt lat="49.6366971731" lon="12.1525339130"><ele>370.24</ele><time>2014-05-03T07:09:26Z</time></trkpt><trkpt lat="49.6366457082" lon="12.1525139641"><ele>370.24</ele><time>2014-05-03T07:09:27Z</time></trkpt><trkpt lat="49.6365939919" lon="12.1524929255"><ele>370.24</ele><time>2014-05-03T07:09:28Z</time></trkpt><trkpt lat="49.6365400963" lon="12.1524745692"><ele>370.73</ele><time>2014-05-03T07:09:29Z</time></trkpt><trkpt lat="49.6364851110" lon="12.1524619125"><ele>370.73</ele><time>2014-05-03T07:09:30Z</time></trkpt><trkpt lat="49.6364301257" lon="12.1524510998"><ele>370.73</ele><time>2014-05-03T07:09:31Z</time></trkpt><trkpt lat="49.6363750566" lon="12.1524444781"><ele>370.73</ele><time>2014-05-03T07:09:32Z</time></trkpt><trkpt lat="49.6363180596" lon="12.1524437238"><ele>370.73</ele><time>2014-05-03T07:09:33Z</time></trkpt><trkpt lat="49.6362609789" lon="12.1524467412"><ele>371.21</ele><time>2014-05-03T07:09:34Z</time></trkpt><trkpt lat="49.6362045687" lon="12.1524586435"><ele>370.73</ele><time>2014-05-03T07:09:35Z</time></trkpt><trkpt lat="49.6361476555" lon="12.1524748206"><ele>371.21</ele><time>2014-05-03T07:09:36Z</time></trkpt><trkpt lat="49.6360910777" lon="12.1524969488"><ele>371.21</ele><time>2014-05-03T07:09:37Z</time></trkpt><trkpt lat="49.6360363439" lon="12.1525252797"><ele>371.21</ele><time>2014-05-03T07:09:38Z</time></trkpt><trkpt lat="49.6359822806" lon="12.1525588073"><ele>371.21</ele><time>2014-05-03T07:09:39Z</time></trkpt><trkpt lat="49.6359311510" lon="12.1525978670"><ele>371.21</ele><time>2014-05-03T07:09:40Z</time></trkpt><trkpt lat="49.6358793508" lon="12.1526420396"><ele>371.69</ele><time>2014-05-03T07:09:41Z</time></trkpt><trkpt lat="49.6358272992" lon="12.1526870504"><ele>371.69</ele><time>2014-05-03T07:09:42Z</time></trkpt><trkpt lat="49.6357765887" lon="12.1527318936"><ele>371.21</ele><time>2014-05-03T07:09:43Z</time></trkpt><trkpt lat="49.6357265487" lon="12.1527784131"><ele>371.69</ele><time>2014-05-03T07:09:44Z</time></trkpt><trkpt lat="49.6356776822" lon="12.1528232563"><ele>371.69</ele><time>2014-05-03T07:09:45Z</time></trkpt><trkpt lat="49.6356277261" lon="12.1528614778"><ele>371.69</ele><time>2014-05-03T07:09:46Z</time></trkpt><trkpt lat="49.6355776861" lon="12.1529026330"><ele>371.21</ele><time>2014-05-03T07:09:47Z</time></trkpt><trkpt lat="49.6355283167" lon="12.1529501583"><ele>371.21</ele><time>2014-05-03T07:09:48Z</time></trkpt><trkpt lat="49.6354766004" lon="12.1529919840"><ele>371.69</ele><time>2014-05-03T07:09:49Z</time></trkpt><trkpt lat="49.6354243811" lon="12.1530299541"><ele>371.69</ele><time>2014-05-03T07:09:50Z</time></trkpt><trkpt lat="49.6353735030" lon="12.1530709416"><ele>371.69</ele><time>2014-05-03T07:09:51Z</time></trkpt><trkpt lat="49.6353243012" lon="12.1531137731"><ele>371.69</ele><time>2014-05-03T07:09:52Z</time></trkpt><trkpt lat="49.6352749318" lon="12.1531555150"><ele>371.69</ele><time>2014-05-03T07:09:53Z</time></trkpt><trkpt lat="49.6352253109" lon="12.1531945746"><ele>371.69</ele><time>2014-05-03T07:09:54Z</time></trkpt><trkpt lat="49.6351737622" lon="12.1532384958"><ele>371.69</ele><time>2014-05-03T07:09:55Z</time></trkpt><trkpt lat="49.6351228841" lon="12.1532814950"><ele>371.69</ele><time>2014-05-03T07:09:56Z</time></trkpt><trkpt lat="49.6350708324" lon="12.1533215605"><ele>371.69</ele><time>2014-05-03T07:09:57Z</time></trkpt><trkpt lat="49.6350186132" lon="12.1533599496"><ele>371.69</ele><time>2014-05-03T07:09:58Z</time></trkpt><trkpt lat="49.6349666454" lon="12.1533985063"><ele>372.17</ele><time>2014-05-03T07:09:59Z</time></trkpt><trkpt lat="49.6349168569" lon="12.1534396615"><ele>372.17</ele><time>2014-05-03T07:10:00Z</time></trkpt><trkpt lat="49.6348676551" lon="12.1534842532"><ele>372.17</ele><time>2014-05-03T07:10:01Z</time></trkpt><trkpt lat="49.6348171122" lon="12.1535271686"><ele>372.17</ele><time>2014-05-03T07:10:02Z</time></trkpt><trkpt lat="49.6347654797" lon="12.1535689943"><ele>372.65</ele><time>2014-05-03T07:10:03Z</time></trkpt><trkpt lat="49.6347162779" lon="12.1536106523"><ele>372.65</ele><time>2014-05-03T07:10:04Z</time></trkpt><trkpt lat="49.6346689202" lon="12.1536496282"><ele>372.65</ele><time>2014-05-03T07:10:05Z</time></trkpt><trkpt lat="49.6346213948" lon="12.1536867600"><ele>372.17</ele><time>2014-05-03T07:10:06Z</time></trkpt><trkpt lat="49.6345740370" lon="12.1537238918"><ele>372.65</ele><time>2014-05-03T07:10:07Z</time></trkpt><trkpt lat="49.6345276851" lon="12.1537647955"><ele>372.65</ele><time>2014-05-03T07:10:08Z</time></trkpt><trkpt lat="49.6344824228" lon="12.1538063698"><ele>372.65</ele><time>2014-05-03T07:10:09Z</time></trkpt><trkpt lat="49.6344387531" lon="12.1538450941"><ele>372.65</ele><time>2014-05-03T07:10:10Z</time></trkpt><trkpt lat="49.6343943290" lon="12.1538823936"><ele>372.65</ele><time>2014-05-03T07:10:11Z</time></trkpt><trkpt lat="49.6343496535" lon="12.1539155860"><ele>372.65</ele><time>2014-05-03T07:10:12Z</time></trkpt><trkpt lat="49.6343076602" lon="12.1539376304"><ele>372.65</ele><time>2014-05-03T07:10:13Z</time></trkpt><trkpt lat="49.6342735458" lon="12.1539540589"><ele>372.65</ele><time>2014-05-03T07:10:14Z</time></trkpt><trkpt lat="49.6342446283" lon="12.1539682243"><ele>373.13</ele><time>2014-05-03T07:10:15Z</time></trkpt><trkpt lat="49.6342191473" lon="12.1539751813"><ele>373.13</ele><time>2014-05-03T07:10:16Z</time></trkpt><trkpt lat="49.6341936663" lon="12.1539788693"><ele>373.13</ele><time>2014-05-03T07:10:17Z</time></trkpt><trkpt lat="49.6341677662" lon="12.1539909393"><ele>373.13</ele><time>2014-05-03T07:10:18Z</time></trkpt><trkpt lat="49.6341425367" lon="12.1540118102"><ele>373.13</ele><time>2014-05-03T07:10:19Z</time></trkpt><trkpt lat="49.6341182292" lon="12.1540395543"><ele>373.13</ele><time>2014-05-03T07:10:20Z</time></trkpt><trkpt lat="49.6341037285" lon="12.1540818829"><ele>372.65</ele><time>2014-05-03T07:10:21Z</time></trkpt><trkpt lat="49.6341028903" lon="12.1541352756"><ele>372.65</ele><time>2014-05-03T07:10:22Z</time></trkpt><trkpt lat="49.6341080870" lon="12.1541965473"><ele>372.65</ele><time>2014-05-03T07:10:23Z</time></trkpt><trkpt lat="49.6341158822" lon="12.1542633511"><ele>372.65</ele><time>2014-05-03T07:10:24Z</time></trkpt><trkpt lat="49.6341264434" lon="12.1543351002"><ele>373.13</ele><time>2014-05-03T07:10:25Z</time></trkpt><trkpt lat="49.6341373399" lon="12.1544117108"><ele>373.13</ele><time>2014-05-03T07:10:26Z</time></trkpt><trkpt lat="49.6341470629" lon="12.1544927638"><ele>373.13</ele><time>2014-05-03T07:10:27Z</time></trkpt><trkpt lat="49.6341568697" lon="12.1545754094"><ele>373.13</ele><time>2014-05-03T07:10:28Z</time></trkpt><trkpt lat="49.6341677662" lon="12.1546567976"><ele>373.13</ele><time>2014-05-03T07:10:29Z</time></trkpt><trkpt lat="49.6341779921" lon="12.1547354199"><ele>373.13</ele><time>2014-05-03T07:10:30Z</time></trkpt><trkpt lat="49.6341881342" lon="12.1548136231"><ele>373.13</ele><time>2014-05-03T07:10:31Z</time></trkpt><trkpt lat="49.6341984440" lon="12.1548935026"><ele>373.61</ele><time>2014-05-03T07:10:32Z</time></trkpt><trkpt lat="49.6342079155" lon="12.1549723763"><ele>373.13</ele><time>2014-05-03T07:10:33Z</time></trkpt><trkpt lat="49.6342178900" lon="12.1550512500"><ele>373.61</ele><time>2014-05-03T07:10:34Z</time></trkpt><trkpt lat="49.6342264395" lon="12.1551268548"><ele>373.61</ele><time>2014-05-03T07:10:35Z</time></trkpt><trkpt lat="49.6342344861" lon="12.1552000288"><ele>373.61</ele><time>2014-05-03T07:10:36Z</time></trkpt><trkpt lat="49.6342445444" lon="12.1552731190"><ele>373.61</ele><time>2014-05-03T07:10:37Z</time></trkpt><trkpt lat="49.6342535131" lon="12.1553487238"><ele>373.61</ele><time>2014-05-03T07:10:38Z</time></trkpt><trkpt lat="49.6342610568" lon="12.1554278489"><ele>373.61</ele><time>2014-05-03T07:10:39Z</time></trkpt><trkpt lat="49.6342692710" lon="12.1555059683"><ele>373.61</ele><time>2014-05-03T07:10:40Z</time></trkpt><trkpt lat="49.6342793293" lon="12.1555814892"><ele>374.09</ele><time>2014-05-03T07:10:41Z</time></trkpt><trkpt lat="49.6342890523" lon="12.1556592733"><ele>374.09</ele><time>2014-05-03T07:10:42Z</time></trkpt><trkpt lat="49.6342998650" lon="12.1557357162"><ele>373.61</ele><time>2014-05-03T07:10:43Z</time></trkpt><trkpt lat="49.6343098395" lon="12.1558118239"><ele>373.61</ele><time>2014-05-03T07:10:44Z</time></trkpt><trkpt lat="49.6343194786" lon="12.1558886860"><ele>374.09</ele><time>2014-05-03T07:10:45Z</time></trkpt><trkpt lat="49.6343267709" lon="12.1559651289"><ele>374.09</ele><time>2014-05-03T07:10:46Z</time></trkpt><trkpt lat="49.6343343984" lon="12.1560417395"><ele>374.09</ele><time>2014-05-03T07:10:47Z</time></trkpt><trkpt lat="49.6343447082" lon="12.1561169252"><ele>374.09</ele><time>2014-05-03T07:10:48Z</time></trkpt><trkpt lat="49.6343547665" lon="12.1561939549"><ele>374.09</ele><time>2014-05-03T07:10:49Z</time></trkpt><trkpt lat="49.6343649086" lon="12.1562754270"><ele>374.09</ele><time>2014-05-03T07:10:50Z</time></trkpt><trkpt lat="49.6343748830" lon="12.1563603356"><ele>374.09</ele><time>2014-05-03T07:10:51Z</time></trkpt><trkpt lat="49.6343854442" lon="12.1564434003"><ele>374.09</ele><time>2014-05-03T07:10:52Z</time></trkpt><trkpt lat="49.6343951672" lon="12.1565236151"><ele>374.57</ele><time>2014-05-03T07:10:53Z</time></trkpt><trkpt lat="49.6344045550" lon="12.1565991361"><ele>374.57</ele><time>2014-05-03T07:10:54Z</time></trkpt><trkpt lat="49.6344153676" lon="12.1566738188"><ele>374.57</ele><time>2014-05-03T07:10:55Z</time></trkpt><trkpt lat="49.6344245877" lon="12.1567502618"><ele>374.57</ele><time>2014-05-03T07:10:56Z</time></trkpt><trkpt lat="49.6344362386" lon="12.1568282973"><ele>375.05</ele><time>2014-05-03T07:10:57Z</time></trkpt><trkpt lat="49.6344476379" lon="12.1569063328"><ele>374.57</ele><time>2014-05-03T07:10:58Z</time></trkpt><trkpt lat="49.6344575286" lon="12.1569877211"><ele>374.57</ele><time>2014-05-03T07:10:59Z</time></trkpt><trkpt lat="49.6344654076" lon="12.1570701990"><ele>374.57</ele><time>2014-05-03T07:11:00Z</time></trkpt><trkpt lat="49.6344736218" lon="12.1571535151"><ele>374.57</ele><time>2014-05-03T07:11:01Z</time></trkpt><trkpt lat="49.6344853565" lon="12.1572351549"><ele>374.57</ele><time>2014-05-03T07:11:02Z</time></trkpt><trkpt lat="49.6344981808" lon="12.1573168784"><ele>374.57</ele><time>2014-05-03T07:11:03Z</time></trkpt><trkpt lat="49.6345086582" lon="12.1574000269"><ele>375.05</ele><time>2014-05-03T07:11:04Z</time></trkpt><trkpt lat="49.6345207281" lon="12.1574854385"><ele>375.05</ele><time>2014-05-03T07:11:05Z</time></trkpt><trkpt lat="49.6345334686" lon="12.1575689223"><ele>375.05</ele><time>2014-05-03T07:11:06Z</time></trkpt><trkpt lat="49.6345427725" lon="12.1576497238"><ele>375.05</ele><time>2014-05-03T07:11:07Z</time></trkpt><trkpt lat="49.6345513221" lon="12.1577295195"><ele>375.05</ele><time>2014-05-03T07:11:08Z</time></trkpt><trkpt lat="49.6345607936" lon="12.1578088962"><ele>375.05</ele><time>2014-05-03T07:11:09Z</time></trkpt><trkpt lat="49.6345721930" lon="12.1578889433"><ele>375.05</ele><time>2014-05-03T07:11:10Z</time></trkpt><trkpt lat="49.6345831733" lon="12.1579735167"><ele>375.05</ele><time>2014-05-03T07:11:11Z</time></trkpt><trkpt lat="49.6345939022" lon="12.1580543183"><ele>375.05</ele><time>2014-05-03T07:11:12Z</time></trkpt><trkpt lat="49.6346047986" lon="12.1581332758"><ele>375.05</ele><time>2014-05-03T07:11:13Z</time></trkpt><trkpt lat="49.6346156113" lon="12.1582138259"><ele>375.05</ele><time>2014-05-03T07:11:14Z</time></trkpt><trkpt lat="49.6346271783" lon="12.1582942922"><ele>375.53</ele><time>2014-05-03T07:11:15Z</time></trkpt><trkpt lat="49.6346399188" lon="12.1583735850"><ele>375.53</ele><time>2014-05-03T07:11:16Z</time></trkpt><trkpt lat="49.6346507315" lon="12.1584509499"><ele>375.05</ele><time>2014-05-03T07:11:17Z</time></trkpt><trkpt lat="49.6346607897" lon="12.1585297398"><ele>375.53</ele><time>2014-05-03T07:11:18Z</time></trkpt><trkpt lat="49.6346705966" lon="12.1586054284"><ele>375.53</ele><time>2014-05-03T07:11:19Z</time></trkpt><trkpt lat="49.6346786432" lon="12.1586771775"><ele>375.53</ele><time>2014-05-03T07:11:20Z</time></trkpt><trkpt lat="49.6346888691" lon="12.1587501001"><ele>375.53</ele><time>2014-05-03T07:11:21Z</time></trkpt><trkpt lat="49.6347061358" lon="12.1588199213"><ele>375.53</ele><time>2014-05-03T07:11:22Z</time></trkpt><trkpt lat="49.6347281802" lon="12.1588848811"><ele>376.01</ele><time>2014-05-03T07:11:23Z</time></trkpt><trkpt lat="49.6347512305" lon="12.1589514334"><ele>375.53</ele><time>2014-05-03T07:11:24Z</time></trkpt><trkpt lat="49.6347691678" lon="12.1590246912"><ele>376.01</ele><time>2014-05-03T07:11:25Z</time></trkpt><trkpt lat="49.6347855963" lon="12.1591032296"><ele>376.01</ele><time>2014-05-03T07:11:26Z</time></trkpt><trkpt lat="49.6347992588" lon="12.1591857914"><ele>376.01</ele><time>2014-05-03T07:11:27Z</time></trkpt><trkpt lat="49.6348127536" lon="12.1592691075"><ele>376.01</ele><time>2014-05-03T07:11:28Z</time></trkpt><trkpt lat="49.6348291822" lon="12.1593529265"><ele>376.01</ele><time>2014-05-03T07:11:29Z</time></trkpt><trkpt lat="49.6348467004" lon="12.1594366618"><ele>376.01</ele><time>2014-05-03T07:11:30Z</time></trkpt><trkpt lat="49.6348636318" lon="12.1595183015"><ele>376.01</ele><time>2014-05-03T07:11:31Z</time></trkpt><trkpt lat="49.6348824911" lon="12.1595987678"><ele>376.01</ele><time>2014-05-03T07:11:32Z</time></trkpt><trkpt lat="49.6349029429" lon="12.1596783120"><ele>376.01</ele><time>2014-05-03T07:11:33Z</time></trkpt><trkpt lat="49.6349212155" lon="12.1597563475"><ele>376.01</ele><time>2014-05-03T07:11:34Z</time></trkpt><trkpt lat="49.6349363867" lon="12.1598363947"><ele>376.01</ele><time>2014-05-03T07:11:35Z</time></trkpt><trkpt lat="49.6349510550" lon="12.1599178668"><ele>376.01</ele><time>2014-05-03T07:11:36Z</time></trkpt><trkpt lat="49.6349661425" lon="12.1599985007"><ele>376.01</ele><time>2014-05-03T07:11:37Z</time></trkpt><trkpt lat="49.6349826548" lon="12.1600781288"><ele>376.01</ele><time>2014-05-03T07:11:38Z</time></trkpt><trkpt lat="49.6349969879" lon="12.1601580083"><ele>376.49</ele><time>2014-05-03T07:11:39Z</time></trkpt><trkpt lat="49.6350091416" lon="12.1602372173"><ele>376.49</ele><time>2014-05-03T07:11:40Z</time></trkpt><trkpt lat="49.6350203734" lon="12.1603194438"><ele>376.49</ele><time>2014-05-03T07:11:41Z</time></trkpt><trkpt lat="49.6350308508" lon="12.1603999101"><ele>376.49</ele><time>2014-05-03T07:11:42Z</time></trkpt><trkpt lat="49.6350399870" lon="12.1604818851"><ele>376.49</ele><time>2014-05-03T07:11:43Z</time></trkpt><trkpt lat="49.6350495424" lon="12.1605644468"><ele>376.49</ele><time>2014-05-03T07:11:44Z</time></trkpt><trkpt lat="49.6350578405" lon="12.1606480144"><ele>376.49</ele><time>2014-05-03T07:11:45Z</time></trkpt><trkpt lat="49.6350633726" lon="12.1607318334"><ele>376.49</ele><time>2014-05-03T07:11:46Z</time></trkpt><trkpt lat="49.6350694075" lon="12.1608141437"><ele>376.49</ele><time>2014-05-03T07:11:47Z</time></trkpt><trkpt lat="49.6350732632" lon="12.1608969569"><ele>376.49</ele><time>2014-05-03T07:11:48Z</time></trkpt><trkpt lat="49.6350734308" lon="12.1609822009"><ele>376.97</ele><time>2014-05-03T07:11:49Z</time></trkpt><trkpt lat="49.6350720897" lon="12.1610681154"><ele>376.49</ele><time>2014-05-03T07:11:50Z</time></trkpt><trkpt lat="49.6350689046" lon="12.1611508448"><ele>376.97</ele><time>2014-05-03T07:11:51Z</time></trkpt><trkpt lat="49.6350639593" lon="12.1612332389"><ele>376.97</ele><time>2014-05-03T07:11:52Z</time></trkpt><trkpt lat="49.6350562479" lon="12.1613147948"><ele>376.97</ele><time>2014-05-03T07:11:53Z</time></trkpt><trkpt lat="49.6350483689" lon="12.1613965183"><ele>376.97</ele><time>2014-05-03T07:11:54Z</time></trkpt><trkpt lat="49.6350403223" lon="12.1614782419"><ele>376.97</ele><time>2014-05-03T07:11:55Z</time></trkpt><trkpt lat="49.6350306831" lon="12.1615566127"><ele>376.97</ele><time>2014-05-03T07:11:56Z</time></trkpt><trkpt lat="49.6350200381" lon="12.1616377495"><ele>376.97</ele><time>2014-05-03T07:11:57Z</time></trkpt><trkpt lat="49.6350089740" lon="12.1617197245"><ele>376.97</ele><time>2014-05-03T07:11:58Z</time></trkpt><trkpt lat="49.6349984128" lon="12.1618027892"><ele>376.97</ele><time>2014-05-03T07:11:59Z</time></trkpt><trkpt lat="49.6349891927" lon="12.1618891228"><ele>377.45</ele><time>2014-05-03T07:12:00Z</time></trkpt><trkpt lat="49.6349831577" lon="12.1619748697"><ele>377.45</ele><time>2014-05-03T07:12:01Z</time></trkpt><trkpt lat="49.6349798050" lon="12.1620609518"><ele>377.45</ele><time>2014-05-03T07:12:02Z</time></trkpt><trkpt lat="49.6349763684" lon="12.1621465310"><ele>377.45</ele><time>2014-05-03T07:12:03Z</time></trkpt><trkpt lat="49.6349726804" lon="12.1622330323"><ele>377.45</ele><time>2014-05-03T07:12:04Z</time></trkpt><trkpt lat="49.6349686570" lon="12.1623169351"><ele>377.45</ele><time>2014-05-03T07:12:05Z</time></trkpt><trkpt lat="49.6349642985" lon="12.1624005865"><ele>377.45</ele><time>2014-05-03T07:12:06Z</time></trkpt><trkpt lat="49.6349611133" lon="12.1624842379"><ele>377.94</ele><time>2014-05-03T07:12:07Z</time></trkpt><trkpt lat="49.6349567547" lon="12.1625673864"><ele>377.94</ele><time>2014-05-03T07:12:08Z</time></trkpt><trkpt lat="49.6349527314" lon="12.1626488585"><ele>377.94</ele><time>2014-05-03T07:12:09Z</time></trkpt><trkpt lat="49.6349490434" lon="12.1627278998"><ele>378.42</ele><time>2014-05-03T07:12:10Z</time></trkpt><trkpt lat="49.6349445172" lon="12.1628048457"><ele>378.42</ele><time>2014-05-03T07:12:11Z</time></trkpt><trkpt lat="49.6349415835" lon="12.1628805343"><ele>377.94</ele><time>2014-05-03T07:12:12Z</time></trkpt><trkpt lat="49.6349386498" lon="12.1629523672"><ele>378.42</ele><time>2014-05-03T07:12:13Z</time></trkpt><trkpt lat="49.6349359676" lon="12.1630215179"><ele>377.94</ele><time>2014-05-03T07:12:14Z</time></trkpt><trkpt lat="49.6349319443" lon="12.1630900819"><ele>378.42</ele><time>2014-05-03T07:12:15Z</time></trkpt><trkpt lat="49.6349263284" lon="12.1631571371"><ele>378.42</ele><time>2014-05-03T07:12:16Z</time></trkpt><trkpt lat="49.6349197067" lon="12.1632188279"><ele>378.42</ele><time>2014-05-03T07:12:17Z</time></trkpt><trkpt lat="49.6349056251" lon="12.1632806025"><ele>378.42</ele><time>2014-05-03T07:12:18Z</time></trkpt><trkpt lat="49.6348795574" lon="12.1633375157"><ele>378.90</ele><time>2014-05-03T07:12:19Z</time></trkpt><trkpt lat="49.6348473709" lon="12.1633826941"><ele>378.42</ele><time>2014-05-03T07:12:20Z</time></trkpt><trkpt lat="49.6348040365" lon="12.1634107735"><ele>378.90</ele><time>2014-05-03T07:12:21Z</time></trkpt><trkpt lat="49.6347565949" lon="12.1634225920"><ele>378.90</ele><time>2014-05-03T07:12:22Z</time></trkpt><trkpt lat="49.6347095724" lon="12.1634235140"><ele>378.90</ele><time>2014-05-03T07:12:23Z</time></trkpt><trkpt lat="49.6346623823" lon="12.1634296328"><ele>378.90</ele><time>2014-05-03T07:12:24Z</time></trkpt><trkpt lat="49.6346172877" lon="12.1634539403"><ele>378.90</ele><time>2014-05-03T07:12:25Z</time></trkpt><trkpt lat="49.6345775574" lon="12.1635027230"><ele>379.38</ele><time>2014-05-03T07:12:26Z</time></trkpt><trkpt lat="49.6345480531" lon="12.1635678504"><ele>379.38</ele><time>2014-05-03T07:12:27Z</time></trkpt><trkpt lat="49.6345351450" lon="12.1636393480"><ele>379.38</ele><time>2014-05-03T07:12:28Z</time></trkpt><trkpt lat="49.6345300321" lon="12.1637111809"><ele>379.38</ele><time>2014-05-03T07:12:29Z</time></trkpt><trkpt lat="49.6345216502" lon="12.1637802478"><ele>379.38</ele><time>2014-05-03T07:12:30Z</time></trkpt><trkpt lat="49.6345126815" lon="12.1638486441"><ele>379.86</ele><time>2014-05-03T07:12:31Z</time></trkpt><trkpt lat="49.6345052216" lon="12.1639134362"><ele>379.86</ele><time>2014-05-03T07:12:32Z</time></trkpt><trkpt lat="49.6344960853" lon="12.1639721934"><ele>379.86</ele><time>2014-05-03T07:12:33Z</time></trkpt><trkpt lat="49.6344831772" lon="12.1640248317"><ele>379.86</ele><time>2014-05-03T07:12:34Z</time></trkpt><trkpt lat="49.6344713587" lon="12.1640757099"><ele>379.86</ele><time>2014-05-03T07:12:35Z</time></trkpt><trkpt lat="49.6344586182" lon="12.1641288511"><ele>379.86</ele><time>2014-05-03T07:12:36Z</time></trkpt><trkpt lat="49.6344370767" lon="12.1641802322"><ele>379.86</ele><time>2014-05-03T07:12:37Z</time></trkpt><trkpt lat="49.6344089136" lon="12.1642287634"><ele>380.34</ele><time>2014-05-03T07:12:38Z</time></trkpt><trkpt lat="49.6343767270" lon="12.1642773785"><ele>380.34</ele><time>2014-05-03T07:12:39Z</time></trkpt><trkpt lat="49.6343427803" lon="12.1643286757"><ele>380.82</ele><time>2014-05-03T07:12:40Z</time></trkpt><trkpt lat="49.6343106776" lon="12.1643789671"><ele>380.82</ele><time>2014-05-03T07:12:41Z</time></trkpt><trkpt lat="49.6342810057" lon="12.1644280013"><ele>381.30</ele><time>2014-05-03T07:12:42Z</time></trkpt><trkpt lat="49.6342582908" lon="12.1644764487"><ele>381.30</ele><time>2014-05-03T07:12:43Z</time></trkpt><trkpt lat="49.6342399344" lon="12.1645327751"><ele>381.30</ele><time>2014-05-03T07:12:44Z</time></trkpt><trkpt lat="49.6342200693" lon="12.1645877603"><ele>381.78</ele><time>2014-05-03T07:12:45Z</time></trkpt><trkpt lat="49.6342002042" lon="12.1646398958"><ele>381.78</ele><time>2014-05-03T07:12:46Z</time></trkpt><trkpt lat="49.6341847815" lon="12.1646953840"><ele>381.78</ele><time>2014-05-03T07:12:47Z</time></trkpt><trkpt lat="49.6341727953" lon="12.1647553984"><ele>382.26</ele><time>2014-05-03T07:12:48Z</time></trkpt><trkpt lat="49.6341588814" lon="12.1648150776"><ele>382.26</ele><time>2014-05-03T07:12:49Z</time></trkpt><trkpt lat="49.6341448836" lon="12.1648701467"><ele>382.26</ele><time>2014-05-03T07:12:50Z</time></trkpt><trkpt lat="49.6341337357" lon="12.1649258863"><ele>382.26</ele><time>2014-05-03T07:12:51Z</time></trkpt><trkpt lat="49.6341234259" lon="12.1649809554"><ele>382.74</ele><time>2014-05-03T07:12:52Z</time></trkpt><trkpt lat="49.6341137029" lon="12.1650401317"><ele>382.74</ele><time>2014-05-03T07:12:53Z</time></trkpt><trkpt lat="49.6341041476" lon="12.1651003975"><ele>383.22</ele><time>2014-05-03T07:12:54Z</time></trkpt><trkpt lat="49.6340961009" lon="12.1651599929"><ele>383.22</ele><time>2014-05-03T07:12:55Z</time></trkpt><trkpt lat="49.6340887249" lon="12.1652197558"><ele>383.70</ele><time>2014-05-03T07:12:56Z</time></trkpt><trkpt lat="49.6340842824" lon="12.1652790997"><ele>384.18</ele><time>2014-05-03T07:12:57Z</time></trkpt><trkpt lat="49.6340823546" lon="12.1653401200"><ele>384.18</ele><time>2014-05-03T07:12:58Z</time></trkpt><trkpt lat="49.6340824384" lon="12.1653986257"><ele>384.18</ele><time>2014-05-03T07:12:59Z</time></trkpt><trkpt lat="49.6340814326" lon="12.1654542815"><ele>384.18</ele><time>2014-05-03T07:13:00Z</time></trkpt><trkpt lat="49.6340804268" lon="12.1655104402"><ele>384.66</ele><time>2014-05-03T07:13:01Z</time></trkpt><trkpt lat="49.6340793371" lon="12.1655678563"><ele>384.66</ele><time>2014-05-03T07:13:02Z</time></trkpt><trkpt lat="49.6340814326" lon="12.1656242665"><ele>385.15</ele><time>2014-05-03T07:13:03Z</time></trkpt><trkpt lat="49.6340867132" lon="12.1656779107"><ele>385.15</ele><time>2014-05-03T07:13:04Z</time></trkpt><trkpt lat="49.6340890601" lon="12.1657312196"><ele>385.15</ele><time>2014-05-03T07:13:05Z</time></trkpt><trkpt lat="49.6340915747" lon="12.1657840256"><ele>385.63</ele><time>2014-05-03T07:13:06Z</time></trkpt><trkpt lat="49.6340959333" lon="12.1658382565"><ele>386.11</ele><time>2014-05-03T07:13:07Z</time></trkpt><trkpt lat="49.6341011301" lon="12.1658927388"><ele>386.59</ele><time>2014-05-03T07:13:08Z</time></trkpt><trkpt lat="49.6341049857" lon="12.1659467183"><ele>386.59</ele><time>2014-05-03T07:13:09Z</time></trkpt><trkpt lat="49.6341091767" lon="12.1659949981"><ele>386.59</ele><time>2014-05-03T07:13:10Z</time></trkpt><trkpt lat="49.6341155469" lon="12.1660389192"><ele>386.59</ele><time>2014-05-03T07:13:11Z</time></trkpt><trkpt lat="49.6341230907" lon="12.1660844330"><ele>387.07</ele><time>2014-05-03T07:13:12Z</time></trkpt><trkpt lat="49.6341289580" lon="12.1661320422"><ele>387.55</ele><time>2014-05-03T07:13:13Z</time></trkpt><trkpt lat="49.6341375913" lon="12.1661801543"><ele>387.55</ele><time>2014-05-03T07:13:14Z</time></trkpt><trkpt lat="49.6341469791" lon="12.1662272606"><ele>387.55</ele><time>2014-05-03T07:13:15Z</time></trkpt><trkpt lat="49.6341546066" lon="12.1662755404"><ele>387.55</ele><time>2014-05-03T07:13:16Z</time></trkpt><trkpt lat="49.6341625694" lon="12.1663231496"><ele>388.03</ele><time>2014-05-03T07:13:17Z</time></trkpt><trkpt lat="49.6341692749" lon="12.1663698368"><ele>388.03</ele><time>2014-05-03T07:13:18Z</time></trkpt><trkpt lat="49.6341742203" lon="12.1664150991"><ele>388.03</ele><time>2014-05-03T07:13:19Z</time></trkpt><trkpt lat="49.6341803391" lon="12.1664630435"><ele>388.51</ele><time>2014-05-03T07:13:20Z</time></trkpt><trkpt lat="49.6341868769" lon="12.1665131673"><ele>388.51</ele><time>2014-05-03T07:13:21Z</time></trkpt><trkpt lat="49.6341906488" lon="12.1665606089"><ele>388.99</ele><time>2014-05-03T07:13:22Z</time></trkpt><trkpt lat="49.6341960970" lon="12.1666072123"><ele>388.99</ele><time>2014-05-03T07:13:23Z</time></trkpt><trkpt lat="49.6342031378" lon="12.1666510496"><ele>389.47</ele><time>2014-05-03T07:13:24Z</time></trkpt><trkpt lat="49.6342093404" lon="12.1666915342"><ele>389.47</ele><time>2014-05-03T07:13:25Z</time></trkpt><trkpt lat="49.6342155430" lon="12.1667291690"><ele>389.95</ele><time>2014-05-03T07:13:26Z</time></trkpt><trkpt lat="49.6342183929" lon="12.1667671390"><ele>389.95</ele><time>2014-05-03T07:13:27Z</time></trkpt><trkpt lat="49.6342190634" lon="12.1668037679"><ele>390.43</ele><time>2014-05-03T07:13:28Z</time></trkpt><trkpt lat="49.6342212427" lon="12.1668425761"><ele>390.91</ele><time>2014-05-03T07:13:29Z</time></trkpt><trkpt lat="49.6342230868" lon="12.1668828931"><ele>390.91</ele><time>2014-05-03T07:13:30Z</time></trkpt><trkpt lat="49.6342275292" lon="12.1669210307"><ele>391.39</ele><time>2014-05-03T07:13:31Z</time></trkpt><trkpt lat="49.6342316363" lon="12.1669557318"><ele>391.39</ele><time>2014-05-03T07:13:32Z</time></trkpt><trkpt lat="49.6342354920" lon="12.1669923607"><ele>391.87</ele><time>2014-05-03T07:13:33Z</time></trkpt><trkpt lat="49.6342373360" lon="12.1670254692"><ele>391.87</ele><time>2014-05-03T07:13:34Z</time></trkpt><trkpt lat="49.6342392638" lon="12.1670573205"><ele>392.36</ele><time>2014-05-03T07:13:35Z</time></trkpt><trkpt lat="49.6342428681" lon="12.1670911834"><ele>392.36</ele><time>2014-05-03T07:13:36Z</time></trkpt><trkpt lat="49.6342452988" lon="12.1671278961"><ele>392.84</ele><time>2014-05-03T07:13:37Z</time></trkpt><trkpt lat="49.6342454664" lon="12.1671625972"><ele>392.84</ele><time>2014-05-03T07:13:38Z</time></trkpt><trkpt lat="49.6342468075" lon="12.1671931911"><ele>393.32</ele><time>2014-05-03T07:13:39Z</time></trkpt><trkpt lat="49.6342468075" lon="12.1672235336"><ele>393.32</ele><time>2014-05-03T07:13:40Z</time></trkpt><trkpt lat="49.6342458855" lon="12.1672536246"><ele>393.80</ele><time>2014-05-03T07:13:41Z</time></trkpt><trkpt lat="49.6342434548" lon="12.1672867332"><ele>393.80</ele><time>2014-05-03T07:13:42Z</time></trkpt><trkpt lat="49.6342427842" lon="12.1673174948"><ele>394.28</ele><time>2014-05-03T07:13:43Z</time></trkpt><trkpt lat="49.6342421975" lon="12.1673497651"><ele>394.28</ele><time>2014-05-03T07:13:44Z</time></trkpt><trkpt lat="49.6342379227" lon="12.1673806943"><ele>394.76</ele><time>2014-05-03T07:13:45Z</time></trkpt><trkpt lat="49.6342333127" lon="12.1674107015"><ele>394.76</ele><time>2014-05-03T07:13:46Z</time></trkpt><trkpt lat="49.6342302114" lon="12.1674438100"><ele>395.24</ele><time>2014-05-03T07:13:47Z</time></trkpt><trkpt lat="49.6342276968" lon="12.1674761642"><ele>395.24</ele><time>2014-05-03T07:13:48Z</time></trkpt><trkpt lat="49.6342217457" lon="12.1675046626"><ele>395.72</ele><time>2014-05-03T07:13:49Z</time></trkpt><trkpt lat="49.6342141181" lon="12.1675355081"><ele>395.72</ele><time>2014-05-03T07:13:50Z</time></trkpt><trkpt lat="49.6342081670" lon="12.1675683651"><ele>396.20</ele><time>2014-05-03T07:13:51Z</time></trkpt><trkpt lat="49.6342011262" lon="12.1676003002"><ele>396.20</ele><time>2014-05-03T07:13:52Z</time></trkpt><trkpt lat="49.6341940854" lon="12.1676313132"><ele>396.68</ele><time>2014-05-03T07:13:53Z</time></trkpt><trkpt lat="49.6341875475" lon="12.1676599793"><ele>396.68</ele><time>2014-05-03T07:13:54Z</time></trkpt><trkpt lat="49.6341802552" lon="12.1676904056"><ele>397.16</ele><time>2014-05-03T07:13:55Z</time></trkpt><trkpt lat="49.6341728792" lon="12.1677203290"><ele>397.64</ele><time>2014-05-03T07:13:56Z</time></trkpt><trkpt lat="49.6341665089" lon="12.1677479893"><ele>397.64</ele><time>2014-05-03T07:13:57Z</time></trkpt><trkpt lat="49.6341614798" lon="12.1677772421"><ele>398.12</ele><time>2014-05-03T07:13:58Z</time></trkpt><trkpt lat="49.6341567021" lon="12.1678049024"><ele>398.12</ele><time>2014-05-03T07:13:59Z</time></trkpt><trkpt lat="49.6341520082" lon="12.1678309701"><ele>398.60</ele><time>2014-05-03T07:14:00Z</time></trkpt><trkpt lat="49.6341463923" lon="12.1678560320"><ele>398.60</ele><time>2014-05-03T07:14:01Z</time></trkpt><trkpt lat="49.6341416147" lon="12.1678826865"><ele>399.08</ele><time>2014-05-03T07:14:02Z</time></trkpt><trkpt lat="49.6341363341" lon="12.1679058205"><ele>399.08</ele><time>2014-05-03T07:14:03Z</time></trkpt><trkpt lat="49.6341301315" lon="12.1679254342"><ele>399.57</ele><time>2014-05-03T07:14:04Z</time></trkpt><trkpt lat="49.6341211628" lon="12.1679484844"><ele>399.57</ele><time>2014-05-03T07:14:05Z</time></trkpt><trkpt lat="49.6341112722" lon="12.1679752227"><ele>399.57</ele><time>2014-05-03T07:14:06Z</time></trkpt><trkpt lat="49.6341022197" lon="12.1680037212"><ele>400.05</ele><time>2014-05-03T07:14:07Z</time></trkpt><trkpt lat="49.6340960171" lon="12.1680312976"><ele>400.05</ele><time>2014-05-03T07:14:08Z</time></trkpt><trkpt lat="49.6340904012" lon="12.1680617239"><ele>400.05</ele><time>2014-05-03T07:14:09Z</time></trkpt><trkpt lat="49.6340871323" lon="12.1680937428"><ele>400.53</ele><time>2014-05-03T07:14:10Z</time></trkpt><trkpt lat="49.6340816841" lon="12.1681238338"><ele>400.53</ele><time>2014-05-03T07:14:11Z</time></trkpt><trkpt lat="49.6340772416" lon="12.1681536734"><ele>401.01</ele><time>2014-05-03T07:14:12Z</time></trkpt><trkpt lat="49.6340736374" lon="12.1681826748"><ele>401.01</ele><time>2014-05-03T07:14:13Z</time></trkpt><trkpt lat="49.6340673510" lon="12.1682079881"><ele>401.01</ele><time>2014-05-03T07:14:14Z</time></trkpt><trkpt lat="49.6340592206" lon="12.1682303678"><ele>401.01</ele><time>2014-05-03T07:14:15Z</time></trkpt><trkpt lat="49.6340531018" lon="12.1682577766"><ele>401.49</ele><time>2014-05-03T07:14:16Z</time></trkpt><trkpt lat="49.6340514254" lon="12.1682885382"><ele>401.49</ele><time>2014-05-03T07:14:17Z</time></trkpt><trkpt lat="49.6340505872" lon="12.1683204733"><ele>401.49</ele><time>2014-05-03T07:14:18Z</time></trkpt><trkpt lat="49.6340494975" lon="12.1683525760"><ele>401.97</ele><time>2014-05-03T07:14:19Z</time></trkpt><trkpt lat="49.6340476535" lon="12.1683826670"><ele>401.97</ele><time>2014-05-03T07:14:20Z</time></trkpt><trkpt lat="49.6340472344" lon="12.1684131771"><ele>402.45</ele><time>2014-05-03T07:14:21Z</time></trkpt><trkpt lat="49.6340463962" lon="12.1684441064"><ele>402.45</ele><time>2014-05-03T07:14:22Z</time></trkpt><trkpt lat="49.6340429597" lon="12.1684745327"><ele>402.45</ele><time>2014-05-03T07:14:23Z</time></trkpt><trkpt lat="49.6340391040" lon="12.1685047913"><ele>402.93</ele><time>2014-05-03T07:14:24Z</time></trkpt><trkpt lat="49.6340337396" lon="12.1685345471"><ele>402.93</ele><time>2014-05-03T07:14:25Z</time></trkpt><trkpt lat="49.6340247709" lon="12.1685612015"><ele>402.93</ele><time>2014-05-03T07:14:26Z</time></trkpt><trkpt lat="49.6340156347" lon="12.1685851738"><ele>403.41</ele><time>2014-05-03T07:14:27Z</time></trkpt><trkpt lat="49.6340111084" lon="12.1686104871"><ele>403.41</ele><time>2014-05-03T07:14:28Z</time></trkpt><trkpt lat="49.6340082586" lon="12.1686426736"><ele>403.41</ele><time>2014-05-03T07:14:29Z</time></trkpt><trkpt lat="49.6340044867" lon="12.1686772071"><ele>403.89</ele><time>2014-05-03T07:14:30Z</time></trkpt><trkpt lat="49.6339977812" lon="12.1687062085"><ele>403.89</ele><time>2014-05-03T07:14:31Z</time></trkpt><trkpt lat="49.6339919977" lon="12.1687335335"><ele>403.89</ele><time>2014-05-03T07:14:32Z</time></trkpt><trkpt lat="49.6339872200" lon="12.1687625349"><ele>404.37</ele><time>2014-05-03T07:14:33Z</time></trkpt><trkpt lat="49.6339823585" lon="12.1687922906"><ele>404.37</ele><time>2014-05-03T07:14:34Z</time></trkpt><trkpt lat="49.6339782514" lon="12.1688241418"><ele>404.37</ele><time>2014-05-03T07:14:35Z</time></trkpt><trkpt lat="49.6339748986" lon="12.1688537300"><ele>404.85</ele><time>2014-05-03T07:14:36Z</time></trkpt><trkpt lat="49.6339737251" lon="12.1688798815"><ele>404.85</ele><time>2014-05-03T07:14:37Z</time></trkpt><trkpt lat="49.6339702047" lon="12.1689067874"><ele>404.85</ele><time>2014-05-03T07:14:38Z</time></trkpt><trkpt lat="49.6339686960" lon="12.1689328551"><ele>405.33</ele><time>2014-05-03T07:14:39Z</time></trkpt><trkpt lat="49.6339646727" lon="12.1689619403"><ele>405.33</ele><time>2014-05-03T07:14:40Z</time></trkpt><trkpt lat="49.6339594759" lon="12.1689921152"><ele>405.81</ele><time>2014-05-03T07:14:41Z</time></trkpt><trkpt lat="49.6339543629" lon="12.1690212004"><ele>405.81</ele><time>2014-05-03T07:14:42Z</time></trkpt><trkpt lat="49.6339512616" lon="12.1690506209"><ele>405.81</ele><time>2014-05-03T07:14:43Z</time></trkpt><trkpt lat="49.6339489147" lon="12.1690791193"><ele>406.29</ele><time>2014-05-03T07:14:44Z</time></trkpt><trkpt lat="49.6339474060" lon="12.1691057738"><ele>406.29</ele><time>2014-05-03T07:14:45Z</time></trkpt><trkpt lat="49.6339440532" lon="12.1691325959"><ele>406.29</ele><time>2014-05-03T07:14:46Z</time></trkpt><trkpt lat="49.6339388564" lon="12.1691600885"><ele>406.77</ele><time>2014-05-03T07:14:47Z</time></trkpt><trkpt lat="49.6339341626" lon="12.1691892575"><ele>406.77</ele><time>2014-05-03T07:14:48Z</time></trkpt><trkpt lat="49.6339293849" lon="12.1692194324"><ele>407.26</ele><time>2014-05-03T07:14:49Z</time></trkpt><trkpt lat="49.6339254454" lon="12.1692505293"><ele>407.26</ele><time>2014-05-03T07:14:50Z</time></trkpt><trkpt lat="49.6339209192" lon="12.1692791954"><ele>407.74</ele><time>2014-05-03T07:14:51Z</time></trkpt><trkpt lat="49.6339155547" lon="12.1693074424"><ele>407.74</ele><time>2014-05-03T07:14:52Z</time></trkpt><trkpt lat="49.6339122858" lon="12.1693382878"><ele>407.74</ele><time>2014-05-03T07:14:53Z</time></trkpt><trkpt lat="49.6339106094" lon="12.1693722345"><ele>408.22</ele><time>2014-05-03T07:14:54Z</time></trkpt><trkpt lat="49.6339069214" lon="12.1694018226"><ele>408.22</ele><time>2014-05-03T07:14:55Z</time></trkpt><trkpt lat="49.6339017246" lon="12.1694293153"><ele>408.70</ele><time>2014-05-03T07:14:56Z</time></trkpt><trkpt lat="49.6338980366" lon="12.1694602445"><ele>409.18</ele><time>2014-05-03T07:14:57Z</time></trkpt><trkpt lat="49.6338944323" lon="12.1694926824"><ele>409.18</ele><time>2014-05-03T07:14:58Z</time></trkpt><trkpt lat="49.6338879783" lon="12.1695245337"><ele>409.18</ele><time>2014-05-03T07:14:59Z</time></trkpt><trkpt lat="49.6338796802" lon="12.1695534512"><ele>409.18</ele><time>2014-05-03T07:15:00Z</time></trkpt><trkpt lat="49.6338691190" lon="12.1695811953"><ele>409.18</ele><time>2014-05-03T07:15:01Z</time></trkpt><trkpt lat="49.6338582225" lon="12.1696094424"><ele>409.66</ele><time>2014-05-03T07:15:02Z</time></trkpt><trkpt lat="49.6338460688" lon="12.1696400363"><ele>409.66</ele><time>2014-05-03T07:15:03Z</time></trkpt><trkpt lat="49.6338332444" lon="12.1696728095"><ele>409.66</ele><time>2014-05-03T07:15:04Z</time></trkpt><trkpt lat="49.6338212583" lon="12.1697076783"><ele>409.66</ele><time>2014-05-03T07:15:05Z</time></trkpt><trkpt lat="49.6338086855" lon="12.1697448101"><ele>409.66</ele><time>2014-05-03T07:15:06Z</time></trkpt><trkpt lat="49.6337968670" lon="12.1697820257"><ele>410.14</ele><time>2014-05-03T07:15:07Z</time></trkpt><trkpt lat="49.6337858029" lon="12.1698184032"><ele>410.14</ele><time>2014-05-03T07:15:08Z</time></trkpt><trkpt lat="49.6337754931" lon="12.1698542777"><ele>410.14</ele><time>2014-05-03T07:15:09Z</time></trkpt><trkpt lat="49.6337673627" lon="12.1698911581"><ele>410.14</ele><time>2014-05-03T07:15:10Z</time></trkpt><trkpt lat="49.6337599028" lon="12.1699285414"><ele>410.62</ele><time>2014-05-03T07:15:11Z</time></trkpt><trkpt lat="49.6337507665" lon="12.1699661762"><ele>410.62</ele><time>2014-05-03T07:15:12Z</time></trkpt><trkpt lat="49.6337381098" lon="12.1700049844"><ele>410.62</ele><time>2014-05-03T07:15:13Z</time></trkpt><trkpt lat="49.6337262075" lon="12.1700402722"><ele>410.62</ele><time>2014-05-03T07:15:14Z</time></trkpt><trkpt lat="49.6337152272" lon="12.1700747218"><ele>410.62</ele><time>2014-05-03T07:15:15Z</time></trkpt><trkpt lat="49.6337051690" lon="12.1701116860"><ele>411.10</ele><time>2014-05-03T07:15:16Z</time></trkpt><trkpt lat="49.6336944401" lon="12.1701469738"><ele>411.10</ele><time>2014-05-03T07:15:17Z</time></trkpt><trkpt lat="49.6336832084" lon="12.1701821778"><ele>411.10</ele><time>2014-05-03T07:15:18Z</time></trkpt><trkpt lat="49.6336743236" lon="12.1702167951"><ele>411.10</ele><time>2014-05-03T07:15:19Z</time></trkpt><trkpt lat="49.6336663608" lon="12.1702516638"><ele>411.10</ele><time>2014-05-03T07:15:20Z</time></trkpt><trkpt lat="49.6336603258" lon="12.1702831797"><ele>411.10</ele><time>2014-05-03T07:15:21Z</time></trkpt><trkpt lat="49.6336558834" lon="12.1703077387"><ele>411.58</ele><time>2014-05-03T07:15:22Z</time></trkpt><trkpt lat="49.6336519439" lon="12.1703380812"><ele>411.58</ele><time>2014-05-03T07:15:23Z</time></trkpt><trkpt lat="49.6336467471" lon="12.1703669149"><ele>411.58</ele><time>2014-05-03T07:15:24Z</time></trkpt><trkpt lat="49.6336423047" lon="12.1703994367"><ele>412.06</ele><time>2014-05-03T07:15:25Z</time></trkpt><trkpt lat="49.6336348448" lon="12.1704369038"><ele>412.06</ele><time>2014-05-03T07:15:26Z</time></trkpt><trkpt lat="49.6336273849" lon="12.1704716049"><ele>412.06</ele><time>2014-05-03T07:15:27Z</time></trkpt><trkpt lat="49.6336195897" lon="12.1705072280"><ele>412.06</ele><time>2014-05-03T07:15:28Z</time></trkpt><trkpt lat="49.6336107049" lon="12.1705511492"><ele>412.06</ele><time>2014-05-03T07:15:29Z</time></trkpt><trkpt lat="49.6336034127" lon="12.1705914661"><ele>412.54</ele><time>2014-05-03T07:15:30Z</time></trkpt><trkpt lat="49.6335963719" lon="12.1706330404"><ele>412.54</ele><time>2014-05-03T07:15:31Z</time></trkpt><trkpt lat="49.6335907560" lon="12.1706773806"><ele>412.54</ele><time>2014-05-03T07:15:32Z</time></trkpt><trkpt lat="49.6335866489" lon="12.1707192063"><ele>413.02</ele><time>2014-05-03T07:15:33Z</time></trkpt><trkpt lat="49.6335842181" lon="12.1707583498"><ele>413.02</ele><time>2014-05-03T07:15:34Z</time></trkpt><trkpt lat="49.6335826255" lon="12.1707951464"><ele>413.02</ele><time>2014-05-03T07:15:35Z</time></trkpt><trkpt lat="49.6335802786" lon="12.1708333679"><ele>413.50</ele><time>2014-05-03T07:15:36Z</time></trkpt><trkpt lat="49.6335775126" lon="12.1708722599"><ele>413.50</ele><time>2014-05-03T07:15:37Z</time></trkpt><trkpt lat="49.6335766744" lon="12.1709114872"><ele>413.50</ele><time>2014-05-03T07:15:38Z</time></trkpt><trkpt lat="49.6335750818" lon="12.1709491219"><ele>413.98</ele><time>2014-05-03T07:15:39Z</time></trkpt><trkpt lat="49.6335723996" lon="12.1709861699"><ele>413.98</ele><time>2014-05-03T07:15:40Z</time></trkpt><trkpt lat="49.6335692145" lon="12.1710268222"><ele>413.98</ele><time>2014-05-03T07:15:41Z</time></trkpt><trkpt lat="49.6335662808" lon="12.1710644569"><ele>414.47</ele><time>2014-05-03T07:15:42Z</time></trkpt><trkpt lat="49.6335646883" lon="12.1711022593"><ele>414.47</ele><time>2014-05-03T07:15:43Z</time></trkpt><trkpt lat="49.6335625090" lon="12.1711434145"><ele>414.47</ele><time>2014-05-03T07:15:44Z</time></trkpt><trkpt lat="49.6335593238" lon="12.1711823065"><ele>414.95</ele><time>2014-05-03T07:15:45Z</time></trkpt><trkpt lat="49.6335553844" lon="12.1712213662"><ele>414.95</ele><time>2014-05-03T07:15:46Z</time></trkpt><trkpt lat="49.6335529536" lon="12.1712634433"><ele>414.95</ele><time>2014-05-03T07:15:47Z</time></trkpt><trkpt lat="49.6335496847" lon="12.1713075321"><ele>414.95</ele><time>2014-05-03T07:15:48Z</time></trkpt><trkpt lat="49.6335499361" lon="12.1713501960"><ele>415.43</ele><time>2014-05-03T07:15:49Z</time></trkpt><trkpt lat="49.6335454099" lon="12.1713916864"><ele>415.43</ele><time>2014-05-03T07:15:50Z</time></trkpt><trkpt lat="49.6335407998" lon="12.1714323387"><ele>415.43</ele><time>2014-05-03T07:15:51Z</time></trkpt><trkpt lat="49.6335389558" lon="12.1714752540"><ele>415.43</ele><time>2014-05-03T07:15:52Z</time></trkpt><trkpt lat="49.6335380338" lon="12.1715206001"><ele>415.91</ele><time>2014-05-03T07:15:53Z</time></trkpt><trkpt lat="49.6335350163" lon="12.1715659462"><ele>415.91</ele><time>2014-05-03T07:15:54Z</time></trkpt><trkpt lat="49.6335314959" lon="12.1716122143"><ele>415.91</ele><time>2014-05-03T07:15:55Z</time></trkpt><trkpt lat="49.6335291490" lon="12.1716573089"><ele>415.91</ele><time>2014-05-03T07:15:56Z</time></trkpt><trkpt lat="49.6335263830" lon="12.1717016492"><ele>416.39</ele><time>2014-05-03T07:15:57Z</time></trkpt><trkpt lat="49.6335227787" lon="12.1717463247"><ele>416.39</ele><time>2014-05-03T07:15:58Z</time></trkpt><trkpt lat="49.6335172467" lon="12.1717906650"><ele>416.39</ele><time>2014-05-03T07:15:59Z</time></trkpt><trkpt lat="49.6335114632" lon="12.1718357597"><ele>416.87</ele><time>2014-05-03T07:16:00Z</time></trkpt><trkpt lat="49.6335038356" lon="12.1718809381"><ele>416.39</ele><time>2014-05-03T07:16:01Z</time></trkpt><trkpt lat="49.6334945317" lon="12.1719270386"><ele>416.87</ele><time>2014-05-03T07:16:02Z</time></trkpt><trkpt lat="49.6334838029" lon="12.1719691157"><ele>416.87</ele><time>2014-05-03T07:16:03Z</time></trkpt><trkpt lat="49.6334733255" lon="12.1720042359"><ele>417.35</ele><time>2014-05-03T07:16:04Z</time></trkpt><trkpt lat="49.6334614232" lon="12.1720407810"><ele>417.35</ele><time>2014-05-03T07:16:05Z</time></trkpt><trkpt lat="49.6334491018" lon="12.1720839478"><ele>417.35</ele><time>2014-05-03T07:16:06Z</time></trkpt><trkpt lat="49.6334369481" lon="12.1721264441"><ele>417.83</ele><time>2014-05-03T07:16:07Z</time></trkpt><trkpt lat="49.6334252134" lon="12.1721690241"><ele>417.35</ele><time>2014-05-03T07:16:08Z</time></trkpt><trkpt lat="49.6334136464" lon="12.1722136158"><ele>417.83</ele><time>2014-05-03T07:16:09Z</time></trkpt><trkpt lat="49.6334039234" lon="12.1722585429"><ele>417.83</ele><time>2014-05-03T07:16:10Z</time></trkpt><trkpt lat="49.6333940327" lon="12.1723056491"><ele>417.83</ele><time>2014-05-03T07:16:11Z</time></trkpt><trkpt lat="49.6333828848" lon="12.1723503247"><ele>417.83</ele><time>2014-05-03T07:16:12Z</time></trkpt><trkpt lat="49.6333694737" lon="12.1723924857"><ele>418.31</ele><time>2014-05-03T07:16:13Z</time></trkpt><trkpt lat="49.6333549730" lon="12.1724348143"><ele>418.31</ele><time>2014-05-03T07:16:14Z</time></trkpt><trkpt lat="49.6333428193" lon="12.1724786516"><ele>418.31</ele><time>2014-05-03T07:16:15Z</time></trkpt><trkpt lat="49.6333300788" lon="12.1725229919"><ele>418.31</ele><time>2014-05-03T07:16:16Z</time></trkpt><trkpt lat="49.6333166678" lon="12.1725676674"><ele>418.31</ele><time>2014-05-03T07:16:17Z</time></trkpt><trkpt lat="49.6333049331" lon="12.1726122592"><ele>418.79</ele><time>2014-05-03T07:16:18Z</time></trkpt><trkpt lat="49.6332941204" lon="12.1726563480"><ele>418.79</ele><time>2014-05-03T07:16:19Z</time></trkpt><trkpt lat="49.6332834754" lon="12.1727008559"><ele>418.79</ele><time>2014-05-03T07:16:20Z</time></trkpt><trkpt lat="49.6332737524" lon="12.1727433521"><ele>418.79</ele><time>2014-05-03T07:16:21Z</time></trkpt><trkpt lat="49.6332658734" lon="12.1727845911"><ele>418.79</ele><time>2014-05-03T07:16:22Z</time></trkpt><trkpt lat="49.6332567371" lon="12.1728278417"><ele>419.27</ele><time>2014-05-03T07:16:23Z</time></trkpt><trkpt lat="49.6332462598" lon="12.1728735231"><ele>419.27</ele><time>2014-05-03T07:16:24Z</time></trkpt><trkpt lat="49.6332360338" lon="12.1729221381"><ele>419.27</ele><time>2014-05-03T07:16:25Z</time></trkpt><trkpt lat="49.6332252212" lon="12.1729716752"><ele>419.27</ele><time>2014-05-03T07:16:26Z</time></trkpt><trkpt lat="49.6332165040" lon="12.1730198711"><ele>419.27</ele><time>2014-05-03T07:16:27Z</time></trkpt><trkpt lat="49.6332068648" lon="12.1730681509"><ele>419.27</ele><time>2014-05-03T07:16:28Z</time></trkpt><trkpt lat="49.6331977285" lon="12.1731165983"><ele>419.75</ele><time>2014-05-03T07:16:29Z</time></trkpt><trkpt lat="49.6331911068" lon="12.1731676441"><ele>419.75</ele><time>2014-05-03T07:16:30Z</time></trkpt><trkpt lat="49.6331859939" lon="12.1732174326"><ele>419.75</ele><time>2014-05-03T07:16:31Z</time></trkpt><trkpt lat="49.6331802942" lon="12.1732617728"><ele>420.23</ele><time>2014-05-03T07:16:32Z</time></trkpt><trkpt lat="49.6331736725" lon="12.1733068675"><ele>420.23</ele><time>2014-05-03T07:16:33Z</time></trkpt><trkpt lat="49.6331679728" lon="12.1733564045"><ele>420.23</ele><time>2014-05-03T07:16:34Z</time></trkpt><trkpt lat="49.6331657097" lon="12.1734061092"><ele>420.23</ele><time>2014-05-03T07:16:35Z</time></trkpt><trkpt lat="49.6331662126" lon="12.1734590828"><ele>420.71</ele><time>2014-05-03T07:16:36Z</time></trkpt><trkpt lat="49.6331670508" lon="12.1735118050"><ele>420.71</ele><time>2014-05-03T07:16:37Z</time></trkpt><trkpt lat="49.6331652906" lon="12.1735630184"><ele>420.71</ele><time>2014-05-03T07:16:38Z</time></trkpt><trkpt lat="49.6331638657" lon="12.1736143157"><ele>421.19</ele><time>2014-05-03T07:16:39Z</time></trkpt><trkpt lat="49.6331648715" lon="12.1736637689"><ele>421.19</ele><time>2014-05-03T07:16:40Z</time></trkpt><trkpt lat="49.6331676375" lon="12.1737134736"><ele>421.19</ele><time>2014-05-03T07:16:41Z</time></trkpt><trkpt lat="49.6331688948" lon="12.1737617534"><ele>421.19</ele><time>2014-05-03T07:16:42Z</time></trkpt><trkpt lat="49.6331683919" lon="12.1738118771"><ele>421.68</ele><time>2014-05-03T07:16:43Z</time></trkpt><trkpt lat="49.6331693139" lon="12.1738627553"><ele>421.68</ele><time>2014-05-03T07:16:44Z</time></trkpt><trkpt lat="49.6331701521" lon="12.1739091072"><ele>421.68</ele><time>2014-05-03T07:16:45Z</time></trkpt><trkpt lat="49.6331711579" lon="12.1739546210"><ele>422.16</ele><time>2014-05-03T07:16:46Z</time></trkpt><trkpt lat="49.6331715770" lon="12.1740017273"><ele>422.16</ele><time>2014-05-03T07:16:47Z</time></trkpt><trkpt lat="49.6331704035" lon="12.1740517672"><ele>422.16</ele><time>2014-05-03T07:16:48Z</time></trkpt><trkpt lat="49.6331678890" lon="12.1741024777"><ele>422.64</ele><time>2014-05-03T07:16:49Z</time></trkpt><trkpt lat="49.6331650391" lon="12.1741527691"><ele>422.64</ele><time>2014-05-03T07:16:50Z</time></trkpt><trkpt lat="49.6331603453" lon="12.1742030606"><ele>422.64</ele><time>2014-05-03T07:16:51Z</time></trkpt><trkpt lat="49.6331557352" lon="12.1742500830"><ele>423.12</ele><time>2014-05-03T07:16:52Z</time></trkpt><trkpt lat="49.6331507061" lon="12.1742963511"><ele>423.12</ele><time>2014-05-03T07:16:53Z</time></trkpt><trkpt lat="49.6331449226" lon="12.1743380092"><ele>423.12</ele><time>2014-05-03T07:16:54Z</time></trkpt><trkpt lat="49.6331386361" lon="12.1743797511"><ele>423.60</ele><time>2014-05-03T07:16:55Z</time></trkpt><trkpt lat="49.6331310924" lon="12.1744183078"><ele>423.60</ele><time>2014-05-03T07:16:56Z</time></trkpt><trkpt lat="49.6331227943" lon="12.1744571161"><ele>424.08</ele><time>2014-05-03T07:16:57Z</time></trkpt><trkpt lat="49.6331134066" lon="12.1744971815"><ele>424.08</ele><time>2014-05-03T07:16:58Z</time></trkpt><trkpt lat="49.6331017558" lon="12.1745427791"><ele>424.08</ele><time>2014-05-03T07:16:59Z</time></trkpt><trkpt lat="49.6330940444" lon="12.1745893825"><ele>424.56</ele><time>2014-05-03T07:17:00Z</time></trkpt><trkpt lat="49.6330878418" lon="12.1746342257"><ele>424.56</ele><time>2014-05-03T07:17:01Z</time></trkpt><trkpt lat="49.6330777835" lon="12.1746783145"><ele>424.56</ele><time>2014-05-03T07:17:02Z</time></trkpt><trkpt lat="49.6330662165" lon="12.1747225709"><ele>424.56</ele><time>2014-05-03T07:17:03Z</time></trkpt><trkpt lat="49.6330567449" lon="12.1747664083"><ele>425.04</ele><time>2014-05-03T07:17:04Z</time></trkpt><trkpt lat="49.6330480278" lon="12.1748105809"><ele>425.04</ele><time>2014-05-03T07:17:05Z</time></trkpt><trkpt lat="49.6330393944" lon="12.1748529095"><ele>425.04</ele><time>2014-05-03T07:17:06Z</time></trkpt><trkpt lat="49.6330292523" lon="12.1748964116"><ele>425.04</ele><time>2014-05-03T07:17:07Z</time></trkpt><trkpt lat="49.6330199484" lon="12.1749373153"><ele>425.52</ele><time>2014-05-03T07:17:08Z</time></trkpt><trkpt lat="49.6330139972" lon="12.1749763750"><ele>425.52</ele><time>2014-05-03T07:17:09Z</time></trkpt><trkpt lat="49.6330092195" lon="12.1750165243"><ele>425.52</ele><time>2014-05-03T07:17:10Z</time></trkpt><trkpt lat="49.6330025140" lon="12.1750542428"><ele>426.00</ele><time>2014-05-03T07:17:11Z</time></trkpt><trkpt lat="49.6329901926" lon="12.1750964038"><ele>426.00</ele><time>2014-05-03T07:17:12Z</time></trkpt><trkpt lat="49.6329797152" lon="12.1751398221"><ele>426.00</ele><time>2014-05-03T07:17:13Z</time></trkpt><trkpt lat="49.6329722553" lon="12.1751798876"><ele>426.48</ele><time>2014-05-03T07:17:14Z</time></trkpt><trkpt lat="49.6329642087" lon="12.1752181929"><ele>426.48</ele><time>2014-05-03T07:17:15Z</time></trkpt><trkpt lat="49.6329548210" lon="12.1752591804"><ele>426.96</ele><time>2014-05-03T07:17:16Z</time></trkpt><trkpt lat="49.6329450142" lon="12.1753013413"><ele>426.96</ele><time>2014-05-03T07:17:17Z</time></trkpt><trkpt lat="49.6329354588" lon="12.1753430832"><ele>426.96</ele><time>2014-05-03T07:17:18Z</time></trkpt><trkpt lat="49.6329252329" lon="12.1753854118"><ele>426.96</ele><time>2014-05-03T07:17:19Z</time></trkpt><trkpt lat="49.6329159290" lon="12.1754294168"><ele>427.44</ele><time>2014-05-03T07:17:20Z</time></trkpt><trkpt lat="49.6329088882" lon="12.1754724998"><ele>427.44</ele><time>2014-05-03T07:17:21Z</time></trkpt><trkpt lat="49.6328992490" lon="12.1755190194"><ele>427.92</ele><time>2014-05-03T07:17:22Z</time></trkpt><trkpt lat="49.6328884363" lon="12.1755647007"><ele>427.92</ele><time>2014-05-03T07:17:23Z</time></trkpt><trkpt lat="49.6328800544" lon="12.1756092086"><ele>428.40</ele><time>2014-05-03T07:17:24Z</time></trkpt><trkpt lat="49.6328715049" lon="12.1756532136"><ele>428.40</ele><time>2014-05-03T07:17:25Z</time></trkpt><trkpt lat="49.6328629553" lon="12.1757003199"><ele>428.40</ele><time>2014-05-03T07:17:26Z</time></trkpt><trkpt lat="49.6328544896" lon="12.1757462528"><ele>428.89</ele><time>2014-05-03T07:17:27Z</time></trkpt><trkpt lat="49.6328461915" lon="12.1757895034"><ele>428.89</ele><time>2014-05-03T07:17:28Z</time></trkpt><trkpt lat="49.6328339539" lon="12.1758311614"><ele>429.37</ele><time>2014-05-03T07:17:29Z</time></trkpt><trkpt lat="49.6328232251" lon="12.1758735739"><ele>429.37</ele><time>2014-05-03T07:17:30Z</time></trkpt><trkpt lat="49.6328157652" lon="12.1759148128"><ele>429.37</ele><time>2014-05-03T07:17:31Z</time></trkpt><trkpt lat="49.6328055393" lon="12.1759569738"><ele>429.85</ele><time>2014-05-03T07:17:32Z</time></trkpt><trkpt lat="49.6327946428" lon="12.1760019846"><ele>430.33</ele><time>2014-05-03T07:17:33Z</time></trkpt><trkpt lat="49.6327845845" lon="12.1760455705"><ele>430.33</ele><time>2014-05-03T07:17:34Z</time></trkpt><trkpt lat="49.6327775437" lon="12.1760863904"><ele>430.81</ele><time>2014-05-03T07:17:35Z</time></trkpt><trkpt lat="49.6327693295" lon="12.1761279646"><ele>430.81</ele><time>2014-05-03T07:17:36Z</time></trkpt><trkpt lat="49.6327624563" lon="12.1761684492"><ele>430.81</ele><time>2014-05-03T07:17:37Z</time></trkpt><trkpt lat="49.6327554993" lon="12.1762091853"><ele>431.29</ele><time>2014-05-03T07:17:38Z</time></trkpt><trkpt lat="49.6327501349" lon="12.1762447245"><ele>431.29</ele><time>2014-05-03T07:17:39Z</time></trkpt><trkpt lat="49.6327423397" lon="12.1762798447"><ele>431.77</ele><time>2014-05-03T07:17:40Z</time></trkpt><trkpt lat="49.6327326167" lon="12.1763138752"><ele>431.77</ele><time>2014-05-03T07:17:41Z</time></trkpt><trkpt lat="49.6327233128" lon="12.1763496660"><ele>432.25</ele><time>2014-05-03T07:17:42Z</time></trkpt><trkpt lat="49.6327133384" lon="12.1763843670"><ele>432.25</ele><time>2014-05-03T07:17:43Z</time></trkpt><trkpt lat="49.6327031124" lon="12.1764199063"><ele>432.25</ele><time>2014-05-03T07:17:44Z</time></trkpt><trkpt lat="49.6326938085" lon="12.1764569543"><ele>432.73</ele><time>2014-05-03T07:17:45Z</time></trkpt><trkpt lat="49.6326871868" lon="12.1764927451"><ele>432.73</ele><time>2014-05-03T07:17:46Z</time></trkpt><trkpt lat="49.6326811519" lon="12.1765286196"><ele>433.21</ele><time>2014-05-03T07:17:47Z</time></trkpt><trkpt lat="49.6326731052" lon="12.1765650809"><ele>433.21</ele><time>2014-05-03T07:17:48Z</time></trkpt><trkpt lat="49.6326648910" lon="12.1766030509"><ele>433.69</ele><time>2014-05-03T07:17:49Z</time></trkpt><trkpt lat="49.6326571796" lon="12.1766419429"><ele>433.69</ele><time>2014-05-03T07:17:50Z</time></trkpt><trkpt lat="49.6326463670" lon="12.1766787395"><ele>433.69</ele><time>2014-05-03T07:17:51Z</time></trkpt><trkpt lat="49.6326346323" lon="12.1767148655"><ele>434.17</ele><time>2014-05-03T07:17:52Z</time></trkpt><trkpt lat="49.6326250769" lon="12.1767496504"><ele>434.17</ele><time>2014-05-03T07:17:53Z</time></trkpt><trkpt lat="49.6326187905" lon="12.1767816693"><ele>434.65</ele><time>2014-05-03T07:17:54Z</time></trkpt><trkpt lat="49.6326120850" lon="12.1768158674"><ele>434.65</ele><time>2014-05-03T07:17:55Z</time></trkpt><trkpt lat="49.6326032840" lon="12.1768514067"><ele>435.13</ele><time>2014-05-03T07:17:56Z</time></trkpt><trkpt lat="49.6325965784" lon="12.1768868621"><ele>435.13</ele><time>2014-05-03T07:17:57Z</time></trkpt><trkpt lat="49.6325886995" lon="12.1769224852"><ele>435.13</ele><time>2014-05-03T07:17:58Z</time></trkpt><trkpt lat="49.6325810719" lon="12.1769588627"><ele>435.61</ele><time>2014-05-03T07:17:59Z</time></trkpt><trkpt lat="49.6325729415" lon="12.1769944858"><ele>435.61</ele><time>2014-05-03T07:18:00Z</time></trkpt><trkpt lat="49.6325653978" lon="12.1770270076"><ele>436.10</ele><time>2014-05-03T07:18:01Z</time></trkpt><trkpt lat="49.6325587761" lon="12.1770572662"><ele>436.10</ele><time>2014-05-03T07:18:02Z</time></trkpt><trkpt lat="49.6325493883" lon="12.1770892013"><ele>436.58</ele><time>2014-05-03T07:18:03Z</time></trkpt><trkpt lat="49.6325404197" lon="12.1771190409"><ele>436.58</ele><time>2014-05-03T07:18:04Z</time></trkpt><trkpt lat="49.6325335465" lon="12.1771482099"><ele>437.06</ele><time>2014-05-03T07:18:05Z</time></trkpt><trkpt lat="49.6325254999" lon="12.1771747805"><ele>437.06</ele><time>2014-05-03T07:18:06Z</time></trkpt><trkpt lat="49.6325163636" lon="12.1772000100"><ele>437.06</ele><time>2014-05-03T07:18:07Z</time></trkpt><trkpt lat="49.6325072274" lon="12.1772295143"><ele>437.54</ele><time>2014-05-03T07:18:08Z</time></trkpt><trkpt lat="49.6324993484" lon="12.1772558335"><ele>437.54</ele><time>2014-05-03T07:18:09Z</time></trkpt><trkpt lat="49.6324892901" lon="12.1772788838"><ele>438.02</ele><time>2014-05-03T07:18:10Z</time></trkpt><trkpt lat="49.6324809082" lon="12.1772982460"><ele>438.02</ele><time>2014-05-03T07:18:11Z</time></trkpt><trkpt lat="49.6324720234" lon="12.1773195360"><ele>438.50</ele><time>2014-05-03T07:18:12Z</time></trkpt><trkpt lat="49.6324620489" lon="12.1773385629"><ele>438.50</ele><time>2014-05-03T07:18:13Z</time></trkpt><trkpt lat="49.6324507333" lon="12.1773565840"><ele>438.50</ele><time>2014-05-03T07:18:14Z</time></trkpt><trkpt lat="49.6324403398" lon="12.1773731802"><ele>438.98</ele><time>2014-05-03T07:18:15Z</time></trkpt><trkpt lat="49.6324271802" lon="12.1773934644"><ele>438.98</ele><time>2014-05-03T07:18:16Z</time></trkpt><trkpt lat="49.6324162837" lon="12.1774136648"><ele>439.46</ele><time>2014-05-03T07:18:17Z</time></trkpt><trkpt lat="49.6324042976" lon="12.1774330270"><ele>439.46</ele><time>2014-05-03T07:18:18Z</time></trkpt><trkpt lat="49.6323918086" lon="12.1774515510"><ele>439.94</ele><time>2014-05-03T07:18:19Z</time></trkpt><trkpt lat="49.6323774755" lon="12.1774699911"><ele>439.94</ele><time>2014-05-03T07:18:20Z</time></trkpt><trkpt lat="49.6323637292" lon="12.1774890181"><ele>439.94</ele><time>2014-05-03T07:18:21Z</time></trkpt><trkpt lat="49.6323545929" lon="12.1775056981"><ele>440.42</ele><time>2014-05-03T07:18:22Z</time></trkpt><trkpt lat="49.6323448699" lon="12.1775248088"><ele>440.42</ele><time>2014-05-03T07:18:23Z</time></trkpt><trkpt lat="49.6323305368" lon="12.1775479428"><ele>440.90</ele><time>2014-05-03T07:18:24Z</time></trkpt><trkpt lat="49.6323172096" lon="12.1775666345"><ele>440.90</ele><time>2014-05-03T07:18:25Z</time></trkpt><trkpt lat="49.6323026251" lon="12.1775889304"><ele>440.90</ele><time>2014-05-03T07:18:26Z</time></trkpt><trkpt lat="49.6322885435" lon="12.1776191890"><ele>441.38</ele><time>2014-05-03T07:18:27Z</time></trkpt><trkpt lat="49.6322781499" lon="12.1776460111"><ele>441.38</ele><time>2014-05-03T07:18:28Z</time></trkpt><trkpt lat="49.6322659124" lon="12.1776701510"><ele>441.86</ele><time>2014-05-03T07:18:29Z</time></trkpt><trkpt lat="49.6322567761" lon="12.1776930336"><ele>441.86</ele><time>2014-05-03T07:18:30Z</time></trkpt><trkpt lat="49.6322502382" lon="12.1777174249"><ele>441.86</ele><time>2014-05-03T07:18:31Z</time></trkpt><trkpt lat="49.6322385874" lon="12.1777439117"><ele>442.34</ele><time>2014-05-03T07:18:32Z</time></trkpt><trkpt lat="49.6322253440" lon="12.1777703147"><ele>442.34</ele><time>2014-05-03T07:18:33Z</time></trkpt><trkpt lat="49.6322136093" lon="12.1777867433"><ele>442.82</ele><time>2014-05-03T07:18:34Z</time></trkpt><trkpt lat="49.6322003659" lon="12.1777998190"><ele>442.82</ele><time>2014-05-03T07:18:35Z</time></trkpt><trkpt lat="49.6321846917" lon="12.1778235398"><ele>442.82</ele><time>2014-05-03T07:18:36Z</time></trkpt><trkpt lat="49.6321761422" lon="12.1778447460"><ele>443.31</ele><time>2014-05-03T07:18:37Z</time></trkpt><trkpt lat="49.6321650781" lon="12.1778649464"><ele>443.31</ele><time>2014-05-03T07:18:38Z</time></trkpt><trkpt lat="49.6321528405" lon="12.1778891701"><ele>443.31</ele><time>2014-05-03T07:18:39Z</time></trkpt><trkpt lat="49.6321411896" lon="12.1779137291"><ele>443.79</ele><time>2014-05-03T07:18:40Z</time></trkpt><trkpt lat="49.6321306285" lon="12.1779405512"><ele>443.31</ele><time>2014-05-03T07:18:41Z</time></trkpt><trkpt lat="49.6321214922" lon="12.1779708937"><ele>443.79</ele><time>2014-05-03T07:18:42Z</time></trkpt><trkpt lat="49.6321131941" lon="12.1780044213"><ele>443.79</ele><time>2014-05-03T07:18:43Z</time></trkpt><trkpt lat="49.6321068238" lon="12.1780351829"><ele>443.79</ele><time>2014-05-03T07:18:44Z</time></trkpt><trkpt lat="49.6320996992" lon="12.1780675370"><ele>444.27</ele><time>2014-05-03T07:18:45Z</time></trkpt><trkpt lat="49.6320946701" lon="12.1780945268"><ele>444.27</ele><time>2014-05-03T07:18:46Z</time></trkpt><trkpt lat="49.6320909820" lon="12.1781224385"><ele>444.27</ele><time>2014-05-03T07:18:47Z</time></trkpt><trkpt lat="49.6320862044" lon="12.1781573910"><ele>444.75</ele><time>2014-05-03T07:18:48Z</time></trkpt><trkpt lat="49.6320807561" lon="12.1781928465"><ele>444.75</ele><time>2014-05-03T07:18:49Z</time></trkpt><trkpt lat="49.6320727933" lon="12.1782277990"><ele>444.75</ele><time>2014-05-03T07:18:50Z</time></trkpt><trkpt lat="49.6320646629" lon="12.1782647632"><ele>445.23</ele><time>2014-05-03T07:18:51Z</time></trkpt><trkpt lat="49.6320549399" lon="12.1783027332"><ele>445.23</ele><time>2014-05-03T07:18:52Z</time></trkpt><trkpt lat="49.6320447139" lon="12.1783460677"><ele>445.71</ele><time>2014-05-03T07:18:53Z</time></trkpt><trkpt lat="49.6320380922" lon="12.1783764940"><ele>445.71</ele><time>2014-05-03T07:18:54Z</time></trkpt><trkpt lat="49.6320330631" lon="12.1784045734"><ele>446.19</ele><time>2014-05-03T07:18:55Z</time></trkpt><trkpt lat="49.6320358291" lon="12.1784422919"><ele>445.71</ele><time>2014-05-03T07:18:56Z</time></trkpt><trkpt lat="49.6320396848" lon="12.1784733050"><ele>446.67</ele><time>2014-05-03T07:18:57Z</time></trkpt><trkpt lat="49.6320401039" lon="12.1785064135"><ele>446.19</ele><time>2014-05-03T07:18:58Z</time></trkpt><trkpt lat="49.6320395172" lon="12.1785378456"><ele>446.67</ele><time>2014-05-03T07:18:59Z</time></trkpt><trkpt lat="49.6320421994" lon="12.1785695292"><ele>446.67</ele><time>2014-05-03T07:19:00Z</time></trkpt><trkpt lat="49.6320437081" lon="12.1786069125"><ele>447.15</ele><time>2014-05-03T07:19:01Z</time></trkpt><trkpt lat="49.6320432890" lon="12.1786408592"><ele>447.15</ele><time>2014-05-03T07:19:02Z</time></trkpt><trkpt lat="49.6320457198" lon="12.1786727943"><ele>447.63</ele><time>2014-05-03T07:19:03Z</time></trkpt><trkpt lat="49.6320442110" lon="12.1787084173"><ele>447.63</ele><time>2014-05-03T07:19:04Z</time></trkpt><trkpt lat="49.6320427861" lon="12.1787416097"><ele>447.63</ele><time>2014-05-03T07:19:05Z</time></trkpt><trkpt lat="49.6320442110" lon="12.1787748858"><ele>448.11</ele><time>2014-05-03T07:19:06Z</time></trkpt><trkpt lat="49.6320484858" lon="12.1788074914"><ele>448.11</ele><time>2014-05-03T07:19:07Z</time></trkpt><trkpt lat="49.6320510004" lon="12.1788393427"><ele>448.11</ele><time>2014-05-03T07:19:08Z</time></trkpt><trkpt lat="49.6320516709" lon="12.1788670868"><ele>448.59</ele><time>2014-05-03T07:19:09Z</time></trkpt><trkpt lat="49.6320520900" lon="12.1788921487"><ele>448.59</ele><time>2014-05-03T07:19:10Z</time></trkpt><trkpt lat="49.6320512518" lon="12.1789202280"><ele>449.07</ele><time>2014-05-03T07:19:11Z</time></trkpt><trkpt lat="49.6320546884" lon="12.1789558511"><ele>449.07</ele><time>2014-05-03T07:19:12Z</time></trkpt><trkpt lat="49.6320585441" lon="12.1789904684"><ele>449.07</ele><time>2014-05-03T07:19:13Z</time></trkpt><trkpt lat="49.6320603043" lon="12.1790220682"><ele>449.55</ele><time>2014-05-03T07:19:14Z</time></trkpt><trkpt lat="49.6320618130" lon="12.1790574398"><ele>449.55</ele><time>2014-05-03T07:19:15Z</time></trkpt><trkpt lat="49.6320598014" lon="12.1790885366"><ele>450.03</ele><time>2014-05-03T07:19:16Z</time></trkpt><trkpt lat="49.6320535988" lon="12.1791246627"><ele>450.03</ele><time>2014-05-03T07:19:17Z</time></trkpt><trkpt lat="49.6320535988" lon="12.1791609563"><ele>450.03</ele><time>2014-05-03T07:19:18Z</time></trkpt><trkpt lat="49.6320515033" lon="12.1791980881"><ele>450.52</ele><time>2014-05-03T07:19:19Z</time></trkpt><trkpt lat="49.6320499107" lon="12.1792332921"><ele>450.52</ele><time>2014-05-03T07:19:20Z</time></trkpt><trkpt lat="49.6320510004" lon="12.1792694181"><ele>451.00</ele><time>2014-05-03T07:19:21Z</time></trkpt><trkpt lat="49.6320538502" lon="12.1793053765"><ele>451.00</ele><time>2014-05-03T07:19:22Z</time></trkpt><trkpt lat="49.6320560295" lon="12.1793417539"><ele>451.00</ele><time>2014-05-03T07:19:23Z</time></trkpt><trkpt lat="49.6320570353" lon="12.1793783829"><ele>451.48</ele><time>2014-05-03T07:19:24Z</time></trkpt><trkpt lat="49.6320583764" lon="12.1794195380"><ele>451.48</ele><time>2014-05-03T07:19:25Z</time></trkpt><trkpt lat="49.6320605557" lon="12.1794571728"><ele>451.96</ele><time>2014-05-03T07:19:26Z</time></trkpt><trkpt lat="49.6320631541" lon="12.1794947237"><ele>451.96</ele><time>2014-05-03T07:19:27Z</time></trkpt><trkpt lat="49.6320636570" lon="12.1795376390"><ele>451.96</ele><time>2014-05-03T07:19:28Z</time></trkpt><trkpt lat="49.6320596337" lon="12.1795785427"><ele>452.44</ele><time>2014-05-03T07:19:29Z</time></trkpt><trkpt lat="49.6320603881" lon="12.1796243917"><ele>452.44</ele><time>2014-05-03T07:19:30Z</time></trkpt><trkpt lat="49.6320628189" lon="12.1796654630"><ele>452.92</ele><time>2014-05-03T07:19:31Z</time></trkpt><trkpt lat="49.6320655849" lon="12.1797076240"><ele>452.92</ele><time>2014-05-03T07:19:32Z</time></trkpt><trkpt lat="49.6320650820" lon="12.1797573287"><ele>452.92</ele><time>2014-05-03T07:19:33Z</time></trkpt><trkpt lat="49.6320649143" lon="12.1798042674"><ele>452.92</ele><time>2014-05-03T07:19:34Z</time></trkpt><trkpt lat="49.6320654172" lon="12.1798495296"><ele>453.40</ele><time>2014-05-03T07:19:35Z</time></trkpt><trkpt lat="49.6320679318" lon="12.1798911877"><ele>453.40</ele><time>2014-05-03T07:19:36Z</time></trkpt><trkpt lat="49.6320712846" lon="12.1799341030"><ele>453.88</ele><time>2014-05-03T07:19:37Z</time></trkpt><trkpt lat="49.6320761461" lon="12.1799727436"><ele>453.88</ele><time>2014-05-03T07:19:38Z</time></trkpt><trkpt lat="49.6320786607" lon="12.1800107136"><ele>453.88</ele><time>2014-05-03T07:19:39Z</time></trkpt><trkpt lat="49.6320843603" lon="12.1800533775"><ele>454.36</ele><time>2014-05-03T07:19:40Z</time></trkpt><trkpt lat="49.6320877969" lon="12.1800915990"><ele>454.36</ele><time>2014-05-03T07:19:41Z</time></trkpt><trkpt lat="49.6320944186" lon="12.1801341791"><ele>454.36</ele><time>2014-05-03T07:19:42Z</time></trkpt><trkpt lat="49.6320968494" lon="12.1801729035"><ele>454.36</ele><time>2014-05-03T07:19:43Z</time></trkpt><trkpt lat="49.6320999507" lon="12.1802119631"><ele>455.32</ele><time>2014-05-03T07:19:44Z</time></trkpt><trkpt lat="49.6320954245" lon="12.1802599076"><ele>455.32</ele><time>2014-05-03T07:19:45Z</time></trkpt><trkpt lat="49.6320881322" lon="12.1803040802"><ele>455.32</ele><time>2014-05-03T07:19:46Z</time></trkpt><trkpt lat="49.6320930775" lon="12.1803430561"><ele>455.32</ele><time>2014-05-03T07:19:47Z</time></trkpt><trkpt lat="49.6320996992" lon="12.1803779248"><ele>455.32</ele><time>2014-05-03T07:19:48Z</time></trkpt><trkpt lat="49.6321043931" lon="12.1804098599"><ele>455.80</ele><time>2014-05-03T07:19:49Z</time></trkpt><trkpt lat="49.6321076620" lon="12.1804450639"><ele>455.80</ele><time>2014-05-03T07:19:50Z</time></trkpt><trkpt lat="49.6321172174" lon="12.1804880630"><ele>455.80</ele><time>2014-05-03T07:19:51Z</time></trkpt><trkpt lat="49.6321246773" lon="12.1805287991"><ele>455.80</ele><time>2014-05-03T07:19:52Z</time></trkpt><trkpt lat="49.6321335621" lon="12.1805717982"><ele>456.28</ele><time>2014-05-03T07:19:53Z</time></trkpt><trkpt lat="49.6321385913" lon="12.1806148812"><ele>455.80</ele><time>2014-05-03T07:19:54Z</time></trkpt><trkpt lat="49.6321457997" lon="12.1806554496"><ele>456.28</ele><time>2014-05-03T07:19:55Z</time></trkpt><trkpt lat="49.6321487334" lon="12.1806898154"><ele>456.28</ele><time>2014-05-03T07:19:56Z</time></trkpt><trkpt lat="49.6321520861" lon="12.1807246841"><ele>456.28</ele><time>2014-05-03T07:19:57Z</time></trkpt><trkpt lat="49.6321549360" lon="12.1807608940"><ele>456.76</ele><time>2014-05-03T07:19:58Z</time></trkpt><trkpt lat="49.6321569476" lon="12.1807986964"><ele>456.76</ele><time>2014-05-03T07:19:59Z</time></trkpt><trkpt lat="49.6321604680" lon="12.1808439586"><ele>456.76</ele><time>2014-05-03T07:20:00Z</time></trkpt><trkpt lat="49.6321723703" lon="12.1808877122"><ele>456.76</ele><time>2014-05-03T07:20:01Z</time></trkpt><trkpt lat="49.6321860328" lon="12.1809338965"><ele>456.76</ele><time>2014-05-03T07:20:02Z</time></trkpt><trkpt lat="49.6321992762" lon="12.1809785720"><ele>456.76</ele><time>2014-05-03T07:20:03Z</time></trkpt><trkpt lat="49.6322057303" lon="12.1810224932"><ele>456.76</ele><time>2014-05-03T07:20:04Z</time></trkpt><trkpt lat="49.6322110947" lon="12.1810643189"><ele>457.24</ele><time>2014-05-03T07:20:05Z</time></trkpt><trkpt lat="49.6322274394" lon="12.1811041329"><ele>457.24</ele><time>2014-05-03T07:20:06Z</time></trkpt><trkpt lat="49.6322515793" lon="12.1811426058"><ele>457.24</ele><time>2014-05-03T07:20:07Z</time></trkpt><trkpt lat="49.6322678402" lon="12.1811764687"><ele>457.24</ele><time>2014-05-03T07:20:08Z</time></trkpt><trkpt lat="49.6322897170" lon="12.1812066436"><ele>457.72</ele><time>2014-05-03T07:20:09Z</time></trkpt><trkpt lat="49.6323188860" lon="12.1812331304"><ele>457.24</ele><time>2014-05-03T07:20:10Z</time></trkpt><trkpt lat="49.6323414333" lon="12.1812689211"><ele>457.72</ele><time>2014-05-03T07:20:11Z</time></trkpt><trkpt lat="49.6323597059" lon="12.1813077293"><ele>457.72</ele><time>2014-05-03T07:20:12Z</time></trkpt><trkpt lat="49.6323715243" lon="12.1813507285"><ele>457.72</ele><time>2014-05-03T07:20:13Z</time></trkpt><trkpt lat="49.6323864441" lon="12.1813921351"><ele>457.72</ele><time>2014-05-03T07:20:14Z</time></trkpt><trkpt lat="49.6324012801" lon="12.1814380679"><ele>458.21</ele><time>2014-05-03T07:20:15Z</time></trkpt><trkpt lat="49.6324185468" lon="12.1814793907"><ele>458.21</ele><time>2014-05-03T07:20:16Z</time></trkpt><trkpt lat="49.6324318741" lon="12.1815213840"><ele>458.21</ele><time>2014-05-03T07:20:17Z</time></trkpt><trkpt lat="49.6324523259" lon="12.1815623716"><ele>458.21</ele><time>2014-05-03T07:20:18Z</time></trkpt><trkpt lat="49.6324673295" lon="12.1816056222"><ele>458.69</ele><time>2014-05-03T07:20:19Z</time></trkpt><trkpt lat="49.6324822493" lon="12.1816501301"><ele>458.69</ele><time>2014-05-03T07:20:20Z</time></trkpt><trkpt lat="49.6325016953" lon="12.1816952247"><ele>458.69</ele><time>2014-05-03T07:20:21Z</time></trkpt><trkpt lat="49.6325210575" lon="12.1817396488"><ele>458.69</ele><time>2014-05-03T07:20:22Z</time></trkpt><trkpt lat="49.6325376537" lon="12.1817871742"><ele>458.69</ele><time>2014-05-03T07:20:23Z</time></trkpt><trkpt lat="49.6325538307" lon="12.1818331070"><ele>458.69</ele><time>2014-05-03T07:20:24Z</time></trkpt><trkpt lat="49.6325750370" lon="12.1818780340"><ele>458.69</ele><time>2014-05-03T07:20:25Z</time></trkpt><trkpt lat="49.6325924713" lon="12.1819321811"><ele>458.69</ele><time>2014-05-03T07:20:26Z</time></trkpt><trkpt lat="49.6326083131" lon="12.1819840651"><ele>458.69</ele><time>2014-05-03T07:20:27Z</time></trkpt><trkpt lat="49.6326197963" lon="12.1820355300"><ele>458.69</ele><time>2014-05-03T07:20:28Z</time></trkpt><trkpt lat="49.6326251607" lon="12.1820879169"><ele>458.69</ele><time>2014-05-03T07:20:29Z</time></trkpt><trkpt lat="49.6326312795" lon="12.1821427345"><ele>458.69</ele><time>2014-05-03T07:20:30Z</time></trkpt><trkpt lat="49.6326374821" lon="12.1821890865"><ele>458.69</ele><time>2014-05-03T07:20:31Z</time></trkpt><trkpt lat="49.6326424275" lon="12.1822392102"><ele>458.69</ele><time>2014-05-03T07:20:32Z</time></trkpt><trkpt lat="49.6326436009" lon="12.1822987217"><ele>458.69</ele><time>2014-05-03T07:20:33Z</time></trkpt><trkpt lat="49.6326436009" lon="12.1823653579"><ele>458.69</ele><time>2014-05-03T07:20:34Z</time></trkpt><trkpt lat="49.6326389071" lon="12.1824310720"><ele>458.69</ele><time>2014-05-03T07:20:35Z</time></trkpt><trkpt lat="49.6326296870" lon="12.1824932657"><ele>458.69</ele><time>2014-05-03T07:20:36Z</time></trkpt><trkpt lat="49.6326207183" lon="12.1825625841"><ele>458.69</ele><time>2014-05-03T07:20:37Z</time></trkpt><trkpt lat="49.6326140966" lon="12.1826297231"><ele>458.69</ele><time>2014-05-03T07:20:38Z</time></trkpt><trkpt lat="49.6326104086" lon="12.1827003825"><ele>458.69</ele><time>2014-05-03T07:20:39Z</time></trkpt><trkpt lat="49.6326058824" lon="12.1827712096"><ele>459.17</ele><time>2014-05-03T07:20:40Z</time></trkpt><trkpt lat="49.6326011047" lon="12.1828397736"><ele>458.69</ele><time>2014-05-03T07:20:41Z</time></trkpt><trkpt lat="49.6325976681" lon="12.1829106845"><ele>459.17</ele><time>2014-05-03T07:20:42Z</time></trkpt><trkpt lat="49.6325963270" lon="12.1829843614"><ele>459.17</ele><time>2014-05-03T07:20:43Z</time></trkpt><trkpt lat="49.6325937286" lon="12.1830546856"><ele>458.69</ele><time>2014-05-03T07:20:44Z</time></trkpt><trkpt lat="49.6325941477" lon="12.1831251774"><ele>458.69</ele><time>2014-05-03T07:20:45Z</time></trkpt><trkpt lat="49.6325956564" lon="12.1831961721"><ele>459.17</ele><time>2014-05-03T07:20:46Z</time></trkpt><trkpt lat="49.6325995959" lon="12.1832661610"><ele>459.17</ele><time>2014-05-03T07:20:47Z</time></trkpt><trkpt lat="49.6326037869" lon="12.1833350603"><ele>459.17</ele><time>2014-05-03T07:20:48Z</time></trkpt><trkpt lat="49.6326071396" lon="12.1834073123"><ele>459.17</ele><time>2014-05-03T07:20:49Z</time></trkpt><trkpt lat="49.6326094866" lon="12.1834783070"><ele>459.17</ele><time>2014-05-03T07:20:50Z</time></trkpt><trkpt lat="49.6326114144" lon="12.1835471224"><ele>459.17</ele><time>2014-05-03T07:20:51Z</time></trkpt><trkpt lat="49.6326158568" lon="12.1836137585"><ele>459.17</ele><time>2014-05-03T07:20:52Z</time></trkpt><trkpt lat="49.6326196287" lon="12.1836795565"><ele>459.65</ele><time>2014-05-03T07:20:53Z</time></trkpt><trkpt lat="49.6326249093" lon="12.1837450191"><ele>459.65</ele><time>2014-05-03T07:20:54Z</time></trkpt><trkpt lat="49.6326293517" lon="12.1838129126"><ele>459.65</ele><time>2014-05-03T07:20:55Z</time></trkpt><trkpt lat="49.6326347161" lon="12.1838816442"><ele>459.65</ele><time>2014-05-03T07:20:56Z</time></trkpt><trkpt lat="49.6326404158" lon="12.1839504596"><ele>459.65</ele><time>2014-05-03T07:20:57Z</time></trkpt><trkpt lat="49.6326447744" lon="12.1840219572"><ele>460.13</ele><time>2014-05-03T07:20:58Z</time></trkpt><trkpt lat="49.6326499712" lon="12.1840926167"><ele>460.13</ele><time>2014-05-03T07:20:59Z</time></trkpt><trkpt lat="49.6326557547" lon="12.1841610968"><ele>460.13</ele><time>2014-05-03T07:21:00Z</time></trkpt><trkpt lat="49.6326617897" lon="12.1842304152"><ele>460.13</ele><time>2014-05-03T07:21:01Z</time></trkpt><trkpt lat="49.6326634660" lon="12.1843019966"><ele>460.13</ele><time>2014-05-03T07:21:02Z</time></trkpt><trkpt lat="49.6326652262" lon="12.1843696386"><ele>460.13</ele><time>2014-05-03T07:21:03Z</time></trkpt><trkpt lat="49.6326716803" lon="12.1844367776"><ele>460.61</ele><time>2014-05-03T07:21:04Z</time></trkpt><trkpt lat="49.6326813195" lon="12.1845037490"><ele>460.61</ele><time>2014-05-03T07:21:05Z</time></trkpt><trkpt lat="49.6326904558" lon="12.1845716424"><ele>460.61</ele><time>2014-05-03T07:21:06Z</time></trkpt><trkpt lat="49.6326982509" lon="12.1846417990"><ele>461.09</ele><time>2014-05-03T07:21:07Z</time></trkpt><trkpt lat="49.6327064652" lon="12.1847117878"><ele>461.09</ele><time>2014-05-03T07:21:08Z</time></trkpt><trkpt lat="49.6327155177" lon="12.1847784240"><ele>461.09</ele><time>2014-05-03T07:21:09Z</time></trkpt><trkpt lat="49.6327250730" lon="12.1848474909"><ele>461.57</ele><time>2014-05-03T07:21:10Z</time></trkpt><trkpt lat="49.6327371430" lon="12.1849175636"><ele>461.57</ele><time>2014-05-03T07:21:11Z</time></trkpt><trkpt lat="49.6327481233" lon="12.1849874686"><ele>461.57</ele><time>2014-05-03T07:21:12Z</time></trkpt><trkpt lat="49.6327579301" lon="12.1850542724"><ele>462.05</ele><time>2014-05-03T07:21:13Z</time></trkpt><trkpt lat="49.6327666473" lon="12.1851205733"><ele>462.05</ele><time>2014-05-03T07:21:14Z</time></trkpt><trkpt lat="49.6327783819" lon="12.1851863712"><ele>462.05</ele><time>2014-05-03T07:21:15Z</time></trkpt><trkpt lat="49.6327929664" lon="12.1852533426"><ele>462.53</ele><time>2014-05-03T07:21:16Z</time></trkpt><trkpt lat="49.6328069642" lon="12.1853205655"><ele>463.01</ele><time>2014-05-03T07:21:17Z</time></trkpt><trkpt lat="49.6328170225" lon="12.1853903029"><ele>463.01</ele><time>2014-05-03T07:21:18Z</time></trkpt><trkpt lat="49.6328253206" lon="12.1854622196"><ele>463.01</ele><time>2014-05-03T07:21:19Z</time></trkpt><trkpt lat="49.6328366362" lon="12.1855296101"><ele>463.01</ele><time>2014-05-03T07:21:20Z</time></trkpt><trkpt lat="49.6328487899" lon="12.1855976712"><ele>463.01</ele><time>2014-05-03T07:21:21Z</time></trkpt><trkpt lat="49.6328607760" lon="12.1856653132"><ele>463.49</ele><time>2014-05-03T07:21:22Z</time></trkpt><trkpt lat="49.6328722592" lon="12.1857311949"><ele>463.49</ele><time>2014-05-03T07:21:23Z</time></trkpt><trkpt lat="49.6328838263" lon="12.1857954003"><ele>463.97</ele><time>2014-05-03T07:21:24Z</time></trkpt><trkpt lat="49.6328943875" lon="12.1858594380"><ele>463.97</ele><time>2014-05-03T07:21:25Z</time></trkpt><trkpt lat="49.6329047810" lon="12.1859254036"><ele>464.45</ele><time>2014-05-03T07:21:26Z</time></trkpt><trkpt lat="49.6329164319" lon="12.1859894414"><ele>464.45</ele><time>2014-05-03T07:21:27Z</time></trkpt><trkpt lat="49.6329275798" lon="12.1860564966"><ele>464.93</ele><time>2014-05-03T07:21:28Z</time></trkpt><trkpt lat="49.6329383925" lon="12.1861233003"><ele>464.93</ele><time>2014-05-03T07:21:29Z</time></trkpt><trkpt lat="49.6329498757" lon="12.1861887630"><ele>464.93</ele><time>2014-05-03T07:21:30Z</time></trkpt><trkpt lat="49.6329618618" lon="12.1862557344"><ele>465.42</ele><time>2014-05-03T07:21:31Z</time></trkpt><trkpt lat="49.6329741832" lon="12.1863236278"><ele>465.42</ele><time>2014-05-03T07:21:32Z</time></trkpt><trkpt lat="49.6329853311" lon="12.1863901801"><ele>465.90</ele><time>2014-05-03T07:21:33Z</time></trkpt><trkpt lat="49.6329963952" lon="12.1864557266"><ele>465.90</ele><time>2014-05-03T07:21:34Z</time></trkpt><trkpt lat="49.6330081299" lon="12.1865210216"><ele>466.38</ele><time>2014-05-03T07:21:35Z</time></trkpt><trkpt lat="49.6330176014" lon="12.1865863167"><ele>466.86</ele><time>2014-05-03T07:21:36Z</time></trkpt><trkpt lat="49.6330233850" lon="12.1866518632"><ele>466.86</ele><time>2014-05-03T07:21:37Z</time></trkpt><trkpt lat="49.6330288332" lon="12.1867202595"><ele>466.86</ele><time>2014-05-03T07:21:38Z</time></trkpt><trkpt lat="49.6330374666" lon="12.1867879853"><ele>467.34</ele><time>2014-05-03T07:21:39Z</time></trkpt><trkpt lat="49.6330471896" lon="12.1868560463"><ele>467.34</ele><time>2014-05-03T07:21:40Z</time></trkpt><trkpt lat="49.6330577508" lon="12.1869238559"><ele>467.82</ele><time>2014-05-03T07:21:41Z</time></trkpt><trkpt lat="49.6330679767" lon="12.1869916655"><ele>467.82</ele><time>2014-05-03T07:21:42Z</time></trkpt><trkpt lat="49.6330745984" lon="12.1870606486"><ele>468.30</ele><time>2014-05-03T07:21:43Z</time></trkpt><trkpt lat="49.6330789570" lon="12.1871247701"><ele>468.30</ele><time>2014-05-03T07:21:44Z</time></trkpt><trkpt lat="49.6330860816" lon="12.1871892270"><ele>468.30</ele><time>2014-05-03T07:21:45Z</time></trkpt><trkpt lat="49.6330938768" lon="12.1872548573"><ele>468.78</ele><time>2014-05-03T07:21:46Z</time></trkpt><trkpt lat="49.6331026778" lon="12.1873220801"><ele>468.78</ele><time>2014-05-03T07:21:47Z</time></trkpt><trkpt lat="49.6331107244" lon="12.1873910632"><ele>469.26</ele><time>2014-05-03T07:21:48Z</time></trkpt><trkpt lat="49.6331173461" lon="12.1874582861"><ele>469.26</ele><time>2014-05-03T07:21:49Z</time></trkpt><trkpt lat="49.6331230458" lon="12.1875266824"><ele>469.74</ele><time>2014-05-03T07:21:50Z</time></trkpt><trkpt lat="49.6331298351" lon="12.1875945758"><ele>469.74</ele><time>2014-05-03T07:21:51Z</time></trkpt><trkpt lat="49.6331393905" lon="12.1876633074"><ele>469.74</ele><time>2014-05-03T07:21:52Z</time></trkpt><trkpt lat="49.6331468504" lon="12.1877346374"><ele>469.74</ele><time>2014-05-03T07:21:53Z</time></trkpt><trkpt lat="49.6331522986" lon="12.1878084820"><ele>470.22</ele><time>2014-05-03T07:21:54Z</time></trkpt><trkpt lat="49.6331590880" lon="12.1878798120"><ele>470.22</ele><time>2014-05-03T07:21:55Z</time></trkpt><trkpt lat="49.6331661288" lon="12.1879510581"><ele>470.22</ele><time>2014-05-03T07:21:56Z</time></trkpt><trkpt lat="49.6331732534" lon="12.1880255733"><ele>470.70</ele><time>2014-05-03T07:21:57Z</time></trkpt><trkpt lat="49.6331784502" lon="12.1881029382"><ele>470.70</ele><time>2014-05-03T07:21:58Z</time></trkpt><trkpt lat="49.6331852395" lon="12.1881774534"><ele>471.18</ele><time>2014-05-03T07:21:59Z</time></trkpt><trkpt lat="49.6331924479" lon="12.1882522199"><ele>471.18</ele><time>2014-05-03T07:22:00Z</time></trkpt><trkpt lat="49.6331994049" lon="12.1883232985"><ele>471.66</ele><time>2014-05-03T07:22:01Z</time></trkpt><trkpt lat="49.6332078706" lon="12.1883906052"><ele>471.18</ele><time>2014-05-03T07:22:02Z</time></trkpt><trkpt lat="49.6332163364" lon="12.1884567384"><ele>471.66</ele><time>2014-05-03T07:22:03Z</time></trkpt><trkpt lat="49.6332264785" lon="12.1885196865"><ele>471.66</ele><time>2014-05-03T07:22:04Z</time></trkpt><trkpt lat="49.6332358662" lon="12.1885804553"><ele>471.66</ele><time>2014-05-03T07:22:05Z</time></trkpt><trkpt lat="49.6332404763" lon="12.1886412241"><ele>472.14</ele><time>2014-05-03T07:22:06Z</time></trkpt><trkpt lat="49.6332389675" lon="12.1886998974"><ele>471.66</ele><time>2014-05-03T07:22:07Z</time></trkpt><trkpt lat="49.6332352795" lon="12.1887524519"><ele>472.14</ele><time>2014-05-03T07:22:08Z</time></trkpt><trkpt lat="49.6332262270" lon="12.1888017375"><ele>472.14</ele><time>2014-05-03T07:22:09Z</time></trkpt><trkpt lat="49.6332061104" lon="12.1888392884"><ele>472.14</ele><time>2014-05-03T07:22:10Z</time></trkpt><trkpt lat="49.6331821382" lon="12.1888596565"><ele>472.14</ele><time>2014-05-03T07:22:11Z</time></trkpt><trkpt lat="49.6331578307" lon="12.1888692956"><ele>472.63</ele><time>2014-05-03T07:22:12Z</time></trkpt><trkpt lat="49.6331366245" lon="12.1888772584"><ele>472.63</ele><time>2014-05-03T07:22:13Z</time></trkpt><trkpt lat="49.6331180166" lon="12.1888867300"><ele>472.63</ele><time>2014-05-03T07:22:14Z</time></trkpt><trkpt lat="49.6331027616" lon="12.1888951957"><ele>472.63</ele><time>2014-05-03T07:22:15Z</time></trkpt><trkpt lat="49.6330891829" lon="12.1888968721"><ele>472.63</ele><time>2014-05-03T07:22:16Z</time></trkpt><trkpt lat="49.6330756880" lon="12.1888968721"><ele>472.63</ele><time>2014-05-03T07:22:17Z</time></trkpt><trkpt lat="49.6330647077" lon="12.1889003087"><ele>472.63</ele><time>2014-05-03T07:22:18Z</time></trkpt><trkpt lat="49.6330529731" lon="12.1889039129"><ele>472.63</ele><time>2014-05-03T07:22:19Z</time></trkpt><trkpt lat="49.6330415737" lon="12.1889113728"><ele>472.63</ele><time>2014-05-03T07:22:20Z</time></trkpt><trkpt lat="49.6330393944" lon="12.1889290586"><ele>472.63</ele><time>2014-05-03T07:22:21Z</time></trkpt><trkpt lat="49.6330445912" lon="12.1889376920"><ele>472.63</ele><time>2014-05-03T07:22:22Z</time></trkpt><trkpt lat="49.6330540627" lon="12.1889348421"><ele>472.63</ele><time>2014-05-03T07:22:23Z</time></trkpt><trkpt lat="49.6330629475" lon="12.1889303159"><ele>472.63</ele><time>2014-05-03T07:22:24Z</time></trkpt><trkpt lat="49.6330713294" lon="12.1889276337"><ele>472.63</ele><time>2014-05-03T07:22:25Z</time></trkpt><trkpt lat="49.6330795437" lon="12.1889278013"><ele>472.63</ele><time>2014-05-03T07:22:26Z</time></trkpt><trkpt lat="49.6330860816" lon="12.1889283881"><ele>472.63</ele><time>2014-05-03T07:22:27Z</time></trkpt><trkpt lat="49.6330906078" lon="12.1889307350"><ele>472.63</ele><time>2014-05-03T07:22:28Z</time></trkpt><trkpt lat="49.6330935415" lon="12.1889312379"><ele>472.63</ele><time>2014-05-03T07:22:29Z</time></trkpt><trkpt lat="49.6330943797" lon="12.1889288072"><ele>470.70</ele><time>2014-05-03T07:22:30Z</time></trkpt><trkpt lat="49.6330945473" lon="12.1889276337"><ele>474.55</ele><time>2014-05-03T07:22:31Z</time></trkpt><trkpt lat="49.6330955531" lon="12.1889276337"><ele>472.63</ele><time>2014-05-03T07:22:32Z</time></trkpt><trkpt lat="49.6330984030" lon="12.1889264602"><ele>472.63</ele><time>2014-05-03T07:22:43Z</time></trkpt><trkpt lat="49.6330983192" lon="12.1889265440"><ele>472.63</ele><time>2014-05-03T07:22:44Z</time></trkpt><trkpt lat="49.6330997441" lon="12.1889284719"><ele>472.63</ele><time>2014-05-03T07:22:56Z</time></trkpt><trkpt lat="49.6330993250" lon="12.1889272984"><ele>472.63</ele><time>2014-05-03T07:22:57Z</time></trkpt><trkpt lat="49.6330888476" lon="12.1889142226"><ele>473.11</ele><time>2014-05-03T07:22:58Z</time></trkpt><trkpt lat="49.6330697369" lon="12.1889104508"><ele>473.11</ele><time>2014-05-03T07:22:59Z</time></trkpt><trkpt lat="49.6330525540" lon="12.1889179107"><ele>473.11</ele><time>2014-05-03T07:23:00Z</time></trkpt><trkpt lat="49.6330363769" lon="12.1889324114"><ele>473.59</ele><time>2014-05-03T07:23:01Z</time></trkpt><trkpt lat="49.6330154222" lon="12.1889369376"><ele>473.59</ele><time>2014-05-03T07:23:02Z</time></trkpt><trkpt lat="49.6329919528" lon="12.1889421344"><ele>473.11</ele><time>2014-05-03T07:23:03Z</time></trkpt><trkpt lat="49.6329689026" lon="12.1889552101"><ele>473.11</ele><time>2014-05-03T07:23:04Z</time></trkpt><trkpt lat="49.6329445951" lon="12.1889651846"><ele>473.11</ele><time>2014-05-03T07:23:05Z</time></trkpt><trkpt lat="49.6329153422" lon="12.1889739018"><ele>473.11</ele><time>2014-05-03T07:23:06Z</time></trkpt><trkpt lat="49.6328832395" lon="12.1889857203"><ele>473.11</ele><time>2014-05-03T07:23:07Z</time></trkpt><trkpt lat="49.6328500472" lon="12.1890029870"><ele>473.11</ele><time>2014-05-03T07:23:08Z</time></trkpt><trkpt lat="49.6328158490" lon="12.1890204214"><ele>473.11</ele><time>2014-05-03T07:23:09Z</time></trkpt><trkpt lat="49.6327812318" lon="12.1890371013"><ele>473.11</ele><time>2014-05-03T07:23:10Z</time></trkpt><trkpt lat="49.6327435132" lon="12.1890517697"><ele>473.11</ele><time>2014-05-03T07:23:11Z</time></trkpt><trkpt lat="49.6327029448" lon="12.1890656836"><ele>473.11</ele><time>2014-05-03T07:23:12Z</time></trkpt><trkpt lat="49.6326622088" lon="12.1890791785"><ele>473.11</ele><time>2014-05-03T07:23:13Z</time></trkpt><trkpt lat="49.6326219756" lon="12.1890907455"><ele>473.11</ele><time>2014-05-03T07:23:14Z</time></trkpt><trkpt lat="49.6325816587" lon="12.1891008038"><ele>473.11</ele><time>2014-05-03T07:23:15Z</time></trkpt><trkpt lat="49.6325433534" lon="12.1891102754"><ele>473.11</ele><time>2014-05-03T07:23:16Z</time></trkpt><trkpt lat="49.6325037908" lon="12.1891176514"><ele>473.11</ele><time>2014-05-03T07:23:17Z</time></trkpt><trkpt lat="49.6324629709" lon="12.1891239379"><ele>473.11</ele><time>2014-05-03T07:23:18Z</time></trkpt><trkpt lat="49.6324226540" lon="12.1891322359"><ele>473.11</ele><time>2014-05-03T07:23:19Z</time></trkpt><trkpt lat="49.6323819179" lon="12.1891381871"><ele>473.11</ele><time>2014-05-03T07:23:20Z</time></trkpt><trkpt lat="49.6323432773" lon="12.1891388576"><ele>473.11</ele><time>2014-05-03T07:23:21Z</time></trkpt><trkpt lat="49.6323075704" lon="12.1891411208"><ele>473.11</ele><time>2014-05-03T07:23:22Z</time></trkpt><trkpt lat="49.6322719473" lon="12.1891455632"><ele>473.11</ele><time>2014-05-03T07:23:23Z</time></trkpt><trkpt lat="49.6322357375" lon="12.1891506761"><ele>473.59</ele><time>2014-05-03T07:23:24Z</time></trkpt><trkpt lat="49.6322012879" lon="12.1891529392"><ele>473.59</ele><time>2014-05-03T07:23:25Z</time></trkpt><trkpt lat="49.6321699396" lon="12.1891524363"><ele>473.59</ele><time>2014-05-03T07:23:26Z</time></trkpt><trkpt lat="49.6321441233" lon="12.1891495865"><ele>473.59</ele><time>2014-05-03T07:23:27Z</time></trkpt><trkpt lat="49.6321219113" lon="12.1891402826"><ele>473.59</ele><time>2014-05-03T07:23:28Z</time></trkpt><trkpt lat="49.6321010403" lon="12.1891310625"><ele>473.59</ele><time>2014-05-03T07:23:29Z</time></trkpt><trkpt lat="49.6320779901" lon="12.1891238540"><ele>473.59</ele><time>2014-05-03T07:23:30Z</time></trkpt><trkpt lat="49.6320554428" lon="12.1891085152"><ele>473.59</ele><time>2014-05-03T07:23:31Z</time></trkpt><trkpt lat="49.6320329793" lon="12.1890900750"><ele>473.59</ele><time>2014-05-03T07:23:32Z</time></trkpt><trkpt lat="49.6320067439" lon="12.1890682820"><ele>473.59</ele><time>2014-05-03T07:23:33Z</time></trkpt><trkpt lat="49.6319797542" lon="12.1890475787"><ele>473.59</ele><time>2014-05-03T07:23:34Z</time></trkpt><trkpt lat="49.6319531836" lon="12.1890255343"><ele>473.59</ele><time>2014-05-03T07:23:35Z</time></trkpt><trkpt lat="49.6319264453" lon="12.1890049148"><ele>474.07</ele><time>2014-05-03T07:23:36Z</time></trkpt><trkpt lat="49.6319004614" lon="12.1889790148"><ele>473.59</ele><time>2014-05-03T07:23:37Z</time></trkpt><trkpt lat="49.6318725497" lon="12.1889541205"><ele>474.07</ele><time>2014-05-03T07:23:38Z</time></trkpt><trkpt lat="49.6318454761" lon="12.1889289748"><ele>473.59</ele><time>2014-05-03T07:23:39Z</time></trkpt><trkpt lat="49.6318196598" lon="12.1889050025"><ele>474.07</ele><time>2014-05-03T07:23:40Z</time></trkpt><trkpt lat="49.6317941789" lon="12.1888803598"><ele>473.59</ele><time>2014-05-03T07:23:41Z</time></trkpt><trkpt lat="49.6317687817" lon="12.1888551302"><ele>474.07</ele><time>2014-05-03T07:23:42Z</time></trkpt><trkpt lat="49.6317422111" lon="12.1888306551"><ele>474.07</ele><time>2014-05-03T07:23:43Z</time></trkpt><trkpt lat="49.6317136288" lon="12.1888139751"><ele>474.07</ele><time>2014-05-03T07:23:44Z</time></trkpt><trkpt lat="49.6316832025" lon="12.1887962893"><ele>474.07</ele><time>2014-05-03T07:23:45Z</time></trkpt><trkpt lat="49.6316531952" lon="12.1887733229"><ele>474.07</ele><time>2014-05-03T07:23:46Z</time></trkpt><trkpt lat="49.6316269599" lon="12.1887476742"><ele>474.07</ele><time>2014-05-03T07:23:47Z</time></trkpt><trkpt lat="49.6316008084" lon="12.1887199301"><ele>474.55</ele><time>2014-05-03T07:23:48Z</time></trkpt><trkpt lat="49.6315733157" lon="12.1886946168"><ele>474.55</ele><time>2014-05-03T07:23:49Z</time></trkpt><trkpt lat="49.6315478347" lon="12.1886738297"><ele>474.55</ele><time>2014-05-03T07:23:50Z</time></trkpt><trkpt lat="49.6315176599" lon="12.1886501089"><ele>474.55</ele><time>2014-05-03T07:23:51Z</time></trkpt><trkpt lat="49.6314874850" lon="12.1886254661"><ele>474.55</ele><time>2014-05-03T07:23:52Z</time></trkpt><trkpt lat="49.6314584836" lon="12.1886045951"><ele>475.03</ele><time>2014-05-03T07:23:53Z</time></trkpt><trkpt lat="49.6314303204" lon="12.1885840595"><ele>475.03</ele><time>2014-05-03T07:23:54Z</time></trkpt><trkpt lat="49.6314026602" lon="12.1885627694"><ele>475.03</ele><time>2014-05-03T07:23:55Z</time></trkpt><trkpt lat="49.6313722339" lon="12.1885336004"><ele>475.03</ele><time>2014-05-03T07:23:56Z</time></trkpt><trkpt lat="49.6313429810" lon="12.1885071974"><ele>475.51</ele><time>2014-05-03T07:23:57Z</time></trkpt><trkpt lat="49.6313105430" lon="12.1884829737"><ele>475.51</ele><time>2014-05-03T07:23:58Z</time></trkpt><trkpt lat="49.6312801167" lon="12.1884605940"><ele>475.51</ele><time>2014-05-03T07:23:59Z</time></trkpt><trkpt lat="49.6312482655" lon="12.1884313412"><ele>475.51</ele><time>2014-05-03T07:24:00Z</time></trkpt><trkpt lat="49.6312170010" lon="12.1883982327"><ele>475.99</ele><time>2014-05-03T07:24:01Z</time></trkpt><trkpt lat="49.6311860718" lon="12.1883666329"><ele>475.99</ele><time>2014-05-03T07:24:02Z</time></trkpt><trkpt lat="49.6311565675" lon="12.1883362066"><ele>475.99</ele><time>2014-05-03T07:24:03Z</time></trkpt><trkpt lat="49.6311273146" lon="12.1883113123"><ele>475.99</ele><time>2014-05-03T07:24:04Z</time></trkpt><trkpt lat="49.6310994867" lon="12.1882856637"><ele>476.47</ele><time>2014-05-03T07:24:05Z</time></trkpt><trkpt lat="49.6310703177" lon="12.1882591769"><ele>476.47</ele><time>2014-05-03T07:24:06Z</time></trkpt><trkpt lat="49.6310418192" lon="12.1882330254"><ele>476.47</ele><time>2014-05-03T07:24:07Z</time></trkpt><trkpt lat="49.6310147457" lon="12.1882115677"><ele>476.47</ele><time>2014-05-03T07:24:08Z</time></trkpt><trkpt lat="49.6309865825" lon="12.1881927084"><ele>476.95</ele><time>2014-05-03T07:24:09Z</time></trkpt><trkpt lat="49.6309583355" lon="12.1881699096"><ele>476.95</ele><time>2014-05-03T07:24:10Z</time></trkpt><trkpt lat="49.6309321839" lon="12.1881478652"><ele>476.95</ele><time>2014-05-03T07:24:11Z</time></trkpt><trkpt lat="49.6309053618" lon="12.1881362144"><ele>476.95</ele><time>2014-05-03T07:24:12Z</time></trkpt><trkpt lat="49.6308774501" lon="12.1881367173"><ele>477.43</ele><time>2014-05-03T07:24:13Z</time></trkpt><trkpt lat="49.6308491193" lon="12.1881373040"><ele>477.43</ele><time>2014-05-03T07:24:14Z</time></trkpt><trkpt lat="49.6308192797" lon="12.1881465241"><ele>477.43</ele><time>2014-05-03T07:24:15Z</time></trkpt><trkpt lat="49.6307939664" lon="12.1881591808"><ele>477.91</ele><time>2014-05-03T07:24:16Z</time></trkpt><trkpt lat="49.6307683177" lon="12.1881733462"><ele>478.39</ele><time>2014-05-03T07:24:17Z</time></trkpt><trkpt lat="49.6307439264" lon="12.1881906968"><ele>478.39</ele><time>2014-05-03T07:24:18Z</time></trkpt><trkpt lat="49.6307200380" lon="12.1882172674"><ele>478.87</ele><time>2014-05-03T07:24:19Z</time></trkpt><trkpt lat="49.6307013463" lon="12.1882428322"><ele>478.87</ele><time>2014-05-03T07:24:20Z</time></trkpt><trkpt lat="49.6306836605" lon="12.1882683132"><ele>479.35</ele><time>2014-05-03T07:24:21Z</time></trkpt><trkpt lat="49.6306664776" lon="12.1882942971"><ele>479.35</ele><time>2014-05-03T07:24:22Z</time></trkpt><trkpt lat="49.6306441817" lon="12.1883221250"><ele>479.35</ele><time>2014-05-03T07:24:23Z</time></trkpt><trkpt lat="49.6306193713" lon="12.1883455943"><ele>479.84</ele><time>2014-05-03T07:24:24Z</time></trkpt><trkpt lat="49.6305964887" lon="12.1883730032"><ele>479.84</ele><time>2014-05-03T07:24:25Z</time></trkpt><trkpt lat="49.6305741090" lon="12.1884043515"><ele>480.32</ele><time>2014-05-03T07:24:26Z</time></trkpt><trkpt lat="49.6305507235" lon="12.1884372085"><ele>480.32</ele><time>2014-05-03T07:24:27Z</time></trkpt><trkpt lat="49.6305290982" lon="12.1884717420"><ele>480.32</ele><time>2014-05-03T07:24:28Z</time></trkpt><trkpt lat="49.6305109933" lon="12.1885065269"><ele>480.80</ele><time>2014-05-03T07:24:29Z</time></trkpt><trkpt lat="49.6304907091" lon="12.1885414794"><ele>480.80</ele><time>2014-05-03T07:24:30Z</time></trkpt><trkpt lat="49.6304669883" lon="12.1885740012"><ele>480.80</ele><time>2014-05-03T07:24:31Z</time></trkpt><trkpt lat="49.6304410044" lon="12.1886035055"><ele>480.80</ele><time>2014-05-03T07:24:32Z</time></trkpt><trkpt lat="49.6304192115" lon="12.1886375360"><ele>481.28</ele><time>2014-05-03T07:24:33Z</time></trkpt><trkpt lat="49.6303960774" lon="12.1886764280"><ele>481.28</ele><time>2014-05-03T07:24:34Z</time></trkpt><trkpt lat="49.6303700935" lon="12.1887110453"><ele>481.28</ele><time>2014-05-03T07:24:35Z</time></trkpt><trkpt lat="49.6303438582" lon="12.1887408849"><ele>481.28</ele><time>2014-05-03T07:24:36Z</time></trkpt><trkpt lat="49.6303193830" lon="12.1887796093"><ele>481.28</ele><time>2014-05-03T07:24:37Z</time></trkpt><trkpt lat="49.6302959975" lon="12.1888182499"><ele>481.28</ele><time>2014-05-03T07:24:38Z</time></trkpt><trkpt lat="49.6302734502" lon="12.1888544597"><ele>481.28</ele><time>2014-05-03T07:24:39Z</time></trkpt><trkpt lat="49.6302504838" lon="12.1888814494"><ele>477.91</ele><time>2014-05-03T07:24:40Z</time></trkpt><trkpt lat="49.6302274335" lon="12.1889143903"><ele>483.68</ele><time>2014-05-03T07:24:41Z</time></trkpt><trkpt lat="49.6302059758" lon="12.1889508516"><ele>480.80</ele><time>2014-05-03T07:24:42Z</time></trkpt><trkpt lat="49.6301806625" lon="12.1889940184"><ele>480.80</ele><time>2014-05-03T07:24:43Z</time></trkpt><trkpt lat="49.6301498171" lon="12.1890408732"><ele>480.80</ele><time>2014-05-03T07:24:44Z</time></trkpt><trkpt lat="49.6301174629" lon="12.1890912484"><ele>480.80</ele><time>2014-05-03T07:24:45Z</time></trkpt><trkpt lat="49.6300849412" lon="12.1891473234"><ele>480.80</ele><time>2014-05-03T07:24:46Z</time></trkpt><trkpt lat="49.6300503239" lon="12.1892032307"><ele>480.32</ele><time>2014-05-03T07:24:47Z</time></trkpt><trkpt lat="49.6300126892" lon="12.1892553661"><ele>480.32</ele><time>2014-05-03T07:24:48Z</time></trkpt><trkpt lat="49.6299783234" lon="12.1893074177"><ele>477.91</ele><time>2014-05-03T07:24:49Z</time></trkpt><trkpt lat="49.6299432870" lon="12.1893587988"><ele>481.28</ele><time>2014-05-03T07:24:50Z</time></trkpt><trkpt lat="49.6299089212" lon="12.1894142870"><ele>479.84</ele><time>2014-05-03T07:24:51Z</time></trkpt><trkpt lat="49.6298722085" lon="12.1894718707"><ele>476.95</ele><time>2014-05-03T07:24:52Z</time></trkpt><trkpt lat="49.6298360825" lon="12.1895267721"><ele>482.24</ele><time>2014-05-03T07:24:53Z</time></trkpt><trkpt lat="49.6298002917" lon="12.1895784885"><ele>479.84</ele><time>2014-05-03T07:24:54Z</time></trkpt><trkpt lat="49.6297645010" lon="12.1896310430"><ele>479.84</ele><time>2014-05-03T07:24:55Z</time></trkpt><trkpt lat="49.6297282912" lon="12.1896825917"><ele>479.35</ele><time>2014-05-03T07:24:56Z</time></trkpt><trkpt lat="49.6296933386" lon="12.1897300333"><ele>477.43</ele><time>2014-05-03T07:24:57Z</time></trkpt><trkpt lat="49.6296616551" lon="12.1897788998"><ele>485.12</ele><time>2014-05-03T07:24:58Z</time></trkpt><trkpt lat="49.6296344139" lon="12.1898234077"><ele>480.32</ele><time>2014-05-03T07:24:59Z</time></trkpt><trkpt lat="49.6296059992" lon="12.1898651496"><ele>479.84</ele><time>2014-05-03T07:25:00Z</time></trkpt><trkpt lat="49.6295771655" lon="12.1899130940"><ele>479.35</ele><time>2014-05-03T07:25:01Z</time></trkpt><trkpt lat="49.6295464039" lon="12.1899587754"><ele>479.35</ele><time>2014-05-03T07:25:02Z</time></trkpt><trkpt lat="49.6295154747" lon="12.1900038701"><ele>479.35</ele><time>2014-05-03T07:25:03Z</time></trkpt><trkpt lat="49.6294811927" lon="12.1900534071"><ele>479.35</ele><time>2014-05-03T07:25:04Z</time></trkpt><trkpt lat="49.6294470783" lon="12.1901038662"><ele>479.35</ele><time>2014-05-03T07:25:05Z</time></trkpt><trkpt lat="49.6294154786" lon="12.1901563369"><ele>479.35</ele><time>2014-05-03T07:25:06Z</time></trkpt><trkpt lat="49.6293856390" lon="12.1902124118"><ele>479.35</ele><time>2014-05-03T07:25:07Z</time></trkpt><trkpt lat="49.6293558832" lon="12.1902660560"><ele>479.35</ele><time>2014-05-03T07:25:08Z</time></trkpt><trkpt lat="49.6293267980" lon="12.1903100610"><ele>479.35</ele><time>2014-05-03T07:25:09Z</time></trkpt><trkpt lat="49.6293006465" lon="12.1903487854"><ele>479.35</ele><time>2014-05-03T07:25:10Z</time></trkpt><trkpt lat="49.6292761713" lon="12.1903884318"><ele>479.35</ele><time>2014-05-03T07:25:11Z</time></trkpt><trkpt lat="49.6292480081" lon="12.1904328559"><ele>479.35</ele><time>2014-05-03T07:25:12Z</time></trkpt><trkpt lat="49.6292191744" lon="12.1904756874"><ele>479.35</ele><time>2014-05-03T07:25:13Z</time></trkpt><trkpt lat="49.6291916817" lon="12.1905186865"><ele>479.84</ele><time>2014-05-03T07:25:14Z</time></trkpt><trkpt lat="49.6291654464" lon="12.1905618533"><ele>479.84</ele><time>2014-05-03T07:25:15Z</time></trkpt><trkpt lat="49.6291365288" lon="12.1906048525"><ele>479.84</ele><time>2014-05-03T07:25:16Z</time></trkpt><trkpt lat="49.6291082818" lon="12.1906459238"><ele>479.84</ele><time>2014-05-03T07:25:17Z</time></trkpt><trkpt lat="49.6290833037" lon="12.1906854864"><ele>479.84</ele><time>2014-05-03T07:25:18Z</time></trkpt><trkpt lat="49.6290582418" lon="12.1907273959"><ele>480.32</ele><time>2014-05-03T07:25:19Z</time></trkpt><trkpt lat="49.6290318388" lon="12.1907742508"><ele>480.32</ele><time>2014-05-03T07:25:20Z</time></trkpt><trkpt lat="49.6290066931" lon="12.1908149030"><ele>480.32</ele><time>2014-05-03T07:25:21Z</time></trkpt><trkpt lat="49.6289814636" lon="12.1908537112"><ele>479.35</ele><time>2014-05-03T07:25:22Z</time></trkpt><trkpt lat="49.6289551444" lon="12.1908952855"><ele>481.76</ele><time>2014-05-03T07:25:23Z</time></trkpt><trkpt lat="49.6289310046" lon="12.1909394581"><ele>478.39</ele><time>2014-05-03T07:25:24Z</time></trkpt><trkpt lat="49.6289117262" lon="12.1909803618"><ele>481.28</ele><time>2014-05-03T07:25:25Z</time></trkpt><trkpt lat="49.6288935374" lon="12.1910251211"><ele>480.32</ele><time>2014-05-03T07:25:26Z</time></trkpt><trkpt lat="49.6288760193" lon="12.1910728142"><ele>480.32</ele><time>2014-05-03T07:25:27Z</time></trkpt><trkpt lat="49.6288590878" lon="12.1911208425"><ele>480.32</ele><time>2014-05-03T07:25:28Z</time></trkpt><trkpt lat="49.6288430784" lon="12.1911728941"><ele>480.32</ele><time>2014-05-03T07:25:29Z</time></trkpt><trkpt lat="49.6288241353" lon="12.1912365966"><ele>480.32</ele><time>2014-05-03T07:25:30Z</time></trkpt><trkpt lat="49.6288062818" lon="12.1913024783"><ele>480.32</ele><time>2014-05-03T07:25:31Z</time></trkpt><trkpt lat="49.6287922002" lon="12.1913631633"><ele>479.84</ele><time>2014-05-03T07:25:32Z</time></trkpt><trkpt lat="49.6287810523" lon="12.1914177295"><ele>480.80</ele><time>2014-05-03T07:25:33Z</time></trkpt><trkpt lat="49.6287721675" lon="12.1914733015"><ele>480.32</ele><time>2014-05-03T07:25:34Z</time></trkpt><trkpt lat="49.6287657972" lon="12.1915303823"><ele>479.35</ele><time>2014-05-03T07:25:35Z</time></trkpt><trkpt lat="49.6287611034" lon="12.1915874630"><ele>480.32</ele><time>2014-05-03T07:25:36Z</time></trkpt><trkpt lat="49.6287565771" lon="12.1916441247"><ele>480.32</ele><time>2014-05-03T07:25:37Z</time></trkpt><trkpt lat="49.6287512966" lon="12.1917038038"><ele>480.32</ele><time>2014-05-03T07:25:38Z</time></trkpt><trkpt lat="49.6287482791" lon="12.1917653270"><ele>480.32</ele><time>2014-05-03T07:25:39Z</time></trkpt><trkpt lat="49.6287447587" lon="12.1918286942"><ele>480.32</ele><time>2014-05-03T07:25:40Z</time></trkpt><trkpt lat="49.6287424117" lon="12.1918959171"><ele>480.32</ele><time>2014-05-03T07:25:41Z</time></trkpt><trkpt lat="49.6287410706" lon="12.1919662412"><ele>480.32</ele><time>2014-05-03T07:25:42Z</time></trkpt><trkpt lat="49.6287358738" lon="12.1920377389"><ele>480.32</ele><time>2014-05-03T07:25:43Z</time></trkpt><trkpt lat="49.6287302580" lon="12.1921101585"><ele>480.32</ele><time>2014-05-03T07:25:44Z</time></trkpt><trkpt lat="49.6287277434" lon="12.1921810694"><ele>479.84</ele><time>2014-05-03T07:25:45Z</time></trkpt><trkpt lat="49.6287200321" lon="12.1922524832"><ele>478.39</ele><time>2014-05-03T07:25:46Z</time></trkpt><trkpt lat="49.6287056152" lon="12.1923283394"><ele>480.32</ele><time>2014-05-03T07:25:47Z</time></trkpt><trkpt lat="49.6286858339" lon="12.1924092248"><ele>479.35</ele><time>2014-05-03T07:25:48Z</time></trkpt><trkpt lat="49.6286637895" lon="12.1924906131"><ele>478.87</ele><time>2014-05-03T07:25:49Z</time></trkpt><trkpt lat="49.6286414098" lon="12.1925733425"><ele>478.87</ele><time>2014-05-03T07:25:50Z</time></trkpt><trkpt lat="49.6286190301" lon="12.1926517133"><ele>478.39</ele><time>2014-05-03T07:25:51Z</time></trkpt><trkpt lat="49.6285958122" lon="12.1927303355"><ele>477.91</ele><time>2014-05-03T07:25:52Z</time></trkpt><trkpt lat="49.6285698283" lon="12.1928035095"><ele>477.91</ele><time>2014-05-03T07:25:53Z</time></trkpt><trkpt lat="49.6285397373" lon="12.1928705648"><ele>477.43</ele><time>2014-05-03T07:25:54Z</time></trkpt><trkpt lat="49.6285010967" lon="12.1929289028"><ele>476.95</ele><time>2014-05-03T07:25:55Z</time></trkpt><trkpt lat="49.6284490451" lon="12.1929655317"><ele>476.47</ele><time>2014-05-03T07:25:56Z</time></trkpt><trkpt lat="49.6283905394" lon="12.1929761767"><ele>475.99</ele><time>2014-05-03T07:25:57Z</time></trkpt><trkpt lat="49.6283266693" lon="12.1929713152"><ele>475.51</ele><time>2014-05-03T07:25:58Z</time></trkpt><trkpt lat="49.6282571834" lon="12.1929638553"><ele>474.55</ele><time>2014-05-03T07:25:59Z</time></trkpt><trkpt lat="49.6281840093" lon="12.1929582395"><ele>474.07</ele><time>2014-05-03T07:26:00Z</time></trkpt><trkpt lat="49.6281090751" lon="12.1929518692"><ele>473.59</ele><time>2014-05-03T07:26:01Z</time></trkpt><trkpt lat="49.6280343924" lon="12.1929404698"><ele>472.63</ele><time>2014-05-03T07:26:02Z</time></trkpt><trkpt lat="49.6279606316" lon="12.1929263882"><ele>472.14</ele><time>2014-05-03T07:26:03Z</time></trkpt><trkpt lat="49.6278889664" lon="12.1929160785"><ele>471.18</ele><time>2014-05-03T07:26:04Z</time></trkpt><trkpt lat="49.6278167982" lon="12.1929115523"><ele>470.22</ele><time>2014-05-03T07:26:05Z</time></trkpt><trkpt lat="49.6277435403" lon="12.1929123905"><ele>469.26</ele><time>2014-05-03T07:26:06Z</time></trkpt><trkpt lat="49.6276619844" lon="12.1929182578"><ele>468.30</ele><time>2014-05-03T07:26:07Z</time></trkpt><trkpt lat="49.6275727171" lon="12.1929278132"><ele>467.34</ele><time>2014-05-03T07:26:08Z</time></trkpt><trkpt lat="49.6274816059" lon="12.1929425653"><ele>466.38</ele><time>2014-05-03T07:26:09Z</time></trkpt><trkpt lat="49.6273914166" lon="12.1929630172"><ele>465.42</ele><time>2014-05-03T07:26:10Z</time></trkpt><trkpt lat="49.6273029037" lon="12.1929859836"><ele>464.45</ele><time>2014-05-03T07:26:11Z</time></trkpt><trkpt lat="49.6272150613" lon="12.1930066030"><ele>463.49</ele><time>2014-05-03T07:26:12Z</time></trkpt><trkpt lat="49.6271257941" lon="12.1930268034"><ele>462.53</ele><time>2014-05-03T07:26:13Z</time></trkpt><trkpt lat="49.6270320006" lon="12.1930489317"><ele>461.57</ele><time>2014-05-03T07:26:14Z</time></trkpt><trkpt lat="49.6269340999" lon="12.1930747479"><ele>460.61</ele><time>2014-05-03T07:26:15Z</time></trkpt><trkpt lat="49.6268331818" lon="12.1930983011"><ele>459.65</ele><time>2014-05-03T07:26:16Z</time></trkpt><trkpt lat="49.6267294977" lon="12.1931202617"><ele>458.21</ele><time>2014-05-03T07:26:17Z</time></trkpt><trkpt lat="49.6266279928" lon="12.1931411326"><ele>457.24</ele><time>2014-05-03T07:26:18Z</time></trkpt><trkpt lat="49.6265274938" lon="12.1931603272"><ele>456.28</ele><time>2014-05-03T07:26:19Z</time></trkpt><trkpt lat="49.6264267433" lon="12.1931755822"><ele>455.32</ele><time>2014-05-03T07:26:20Z</time></trkpt><trkpt lat="49.6263275854" lon="12.1931870654"><ele>452.92</ele><time>2014-05-03T07:26:21Z</time></trkpt><trkpt lat="49.6262281761" lon="12.1931921784"><ele>451.96</ele><time>2014-05-03T07:26:22Z</time></trkpt><trkpt lat="49.6261253301" lon="12.1931827068"><ele>451.00</ele><time>2014-05-03T07:26:23Z</time></trkpt><trkpt lat="49.6260261722" lon="12.1931586508"><ele>450.03</ele><time>2014-05-03T07:26:24Z</time></trkpt><trkpt lat="49.6259403415" lon="12.1931283083"><ele>449.55</ele><time>2014-05-03T07:26:25Z</time></trkpt><trkpt lat="49.6258695144" lon="12.1931035817"><ele>448.11</ele><time>2014-05-03T07:26:26Z</time></trkpt><trkpt lat="49.6258106735" lon="12.1930855606"><ele>447.63</ele><time>2014-05-03T07:26:27Z</time></trkpt><trkpt lat="49.6257584542" lon="12.1930703055"><ele>447.15</ele><time>2014-05-03T07:26:28Z</time></trkpt><trkpt lat="49.6257088333" lon="12.1930538770"><ele>446.67</ele><time>2014-05-03T07:26:29Z</time></trkpt><trkpt lat="49.6256615594" lon="12.1930449083"><ele>446.67</ele><time>2014-05-03T07:26:30Z</time></trkpt><trkpt lat="49.6256168000" lon="12.1930630133"><ele>446.19</ele><time>2014-05-03T07:26:31Z</time></trkpt><trkpt lat="49.6255785786" lon="12.1931113768"><ele>446.19</ele><time>2014-05-03T07:26:32Z</time></trkpt><trkpt lat="49.6255473141" lon="12.1931720618"><ele>446.19</ele><time>2014-05-03T07:26:33Z</time></trkpt><trkpt lat="49.6255155466" lon="12.1932316571"><ele>445.71</ele><time>2014-05-03T07:26:34Z</time></trkpt><trkpt lat="49.6254811808" lon="12.1932892408"><ele>445.71</ele><time>2014-05-03T07:26:35Z</time></trkpt><trkpt lat="49.6254438814" lon="12.1933469921"><ele>445.23</ele><time>2014-05-03T07:26:36Z</time></trkpt><trkpt lat="49.6254049893" lon="12.1934031509"><ele>445.23</ele><time>2014-05-03T07:26:37Z</time></trkpt><trkpt lat="49.6253668517" lon="12.1934614051"><ele>445.23</ele><time>2014-05-03T07:26:38Z</time></trkpt><trkpt lat="49.6253283788" lon="12.1935220063"><ele>445.23</ele><time>2014-05-03T07:26:39Z</time></trkpt><trkpt lat="49.6252903249" lon="12.1935838647"><ele>444.75</ele><time>2014-05-03T07:26:40Z</time></trkpt><trkpt lat="49.6252521034" lon="12.1936493274"><ele>444.75</ele><time>2014-05-03T07:26:41Z</time></trkpt><trkpt lat="49.6252145525" lon="12.1937180590"><ele>444.27</ele><time>2014-05-03T07:26:42Z</time></trkpt><trkpt lat="49.6251775045" lon="12.1937888023"><ele>444.27</ele><time>2014-05-03T07:26:43Z</time></trkpt><trkpt lat="49.6251399536" lon="12.1938592102"><ele>443.79</ele><time>2014-05-03T07:26:44Z</time></trkpt><trkpt lat="49.6251022350" lon="12.1939304564"><ele>443.79</ele><time>2014-05-03T07:26:45Z</time></trkpt><trkpt lat="49.6250656899" lon="12.1940063965"><ele>442.34</ele><time>2014-05-03T07:26:46Z</time></trkpt><trkpt lat="49.6250285581" lon="12.1940838452"><ele>443.31</ele><time>2014-05-03T07:26:47Z</time></trkpt><trkpt lat="49.6249867324" lon="12.1941607073"><ele>442.82</ele><time>2014-05-03T07:26:48Z</time></trkpt><trkpt lat="49.6249405481" lon="12.1942341328"><ele>442.34</ele><time>2014-05-03T07:26:49Z</time></trkpt><trkpt lat="49.6248905919" lon="12.1943048760"><ele>441.86</ele><time>2014-05-03T07:26:50Z</time></trkpt><trkpt lat="49.6248381212" lon="12.1943725180"><ele>441.86</ele><time>2014-05-03T07:26:51Z</time></trkpt><trkpt lat="49.6247831360" lon="12.1944396570"><ele>441.86</ele><time>2014-05-03T07:26:52Z</time></trkpt><trkpt lat="49.6247250494" lon="12.1945028566"><ele>441.38</ele><time>2014-05-03T07:26:53Z</time></trkpt><trkpt lat="49.6246657055" lon="12.1945594344"><ele>440.90</ele><time>2014-05-03T07:26:54Z</time></trkpt><trkpt lat="49.6246058587" lon="12.1946088038"><ele>440.90</ele><time>2014-05-03T07:26:55Z</time></trkpt><trkpt lat="49.6245485265" lon="12.1946543176"><ele>440.42</ele><time>2014-05-03T07:26:56Z</time></trkpt><trkpt lat="49.6244944632" lon="12.1946984902"><ele>439.94</ele><time>2014-05-03T07:26:57Z</time></trkpt><trkpt lat="49.6244425792" lon="12.1947413217"><ele>440.42</ele><time>2014-05-03T07:26:58Z</time></trkpt><trkpt lat="49.6243927907" lon="12.1947777830"><ele>439.46</ele><time>2014-05-03T07:26:59Z</time></trkpt><trkpt lat="49.6243513841" lon="12.1948174294"><ele>439.46</ele><time>2014-05-03T07:27:00Z</time></trkpt><trkpt lat="49.6243218798" lon="12.1948684752"><ele>438.98</ele><time>2014-05-03T07:27:01Z</time></trkpt><trkpt lat="49.6243092231" lon="12.1949354466"><ele>438.98</ele><time>2014-05-03T07:27:02Z</time></trkpt><trkpt lat="49.6243121568" lon="12.1950041782"><ele>438.98</ele><time>2014-05-03T07:27:03Z</time></trkpt><trkpt lat="49.6243228856" lon="12.1950679645"><ele>439.46</ele><time>2014-05-03T07:27:04Z</time></trkpt><trkpt lat="49.6243365481" lon="12.1951208543"><ele>438.98</ele><time>2014-05-03T07:27:05Z</time></trkpt><trkpt lat="49.6243510488" lon="12.1951734088"><ele>438.98</ele><time>2014-05-03T07:27:06Z</time></trkpt><trkpt lat="49.6243683994" lon="12.1952237003"><ele>439.46</ele><time>2014-05-03T07:27:07Z</time></trkpt><trkpt lat="49.6243866719" lon="12.1952779312"><ele>439.46</ele><time>2014-05-03T07:27:08Z</time></trkpt><trkpt lat="49.6244058665" lon="12.1953346767"><ele>439.46</ele><time>2014-05-03T07:27:09Z</time></trkpt><trkpt lat="49.6244253125" lon="12.1953938529"><ele>439.46</ele><time>2014-05-03T07:27:10Z</time></trkpt><trkpt lat="49.6244411543" lon="12.1954568848"><ele>439.46</ele><time>2014-05-03T07:27:11Z</time></trkpt><trkpt lat="49.6244558226" lon="12.1955193300"><ele>439.46</ele><time>2014-05-03T07:27:12Z</time></trkpt><trkpt lat="49.6244741790" lon="12.1955799311"><ele>439.46</ele><time>2014-05-03T07:27:13Z</time></trkpt><trkpt lat="49.6244939603" lon="12.1956415381"><ele>439.46</ele><time>2014-05-03T07:27:14Z</time></trkpt><trkpt lat="49.6245089639" lon="12.1957054920"><ele>439.94</ele><time>2014-05-03T07:27:15Z</time></trkpt><trkpt lat="49.6245237999" lon="12.1957681887"><ele>439.94</ele><time>2014-05-03T07:27:16Z</time></trkpt><trkpt lat="49.6245415695" lon="12.1958342381"><ele>439.94</ele><time>2014-05-03T07:27:17Z</time></trkpt><trkpt lat="49.6245579142" lon="12.1959044784"><ele>439.94</ele><time>2014-05-03T07:27:18Z</time></trkpt><trkpt lat="49.6245735046" lon="12.1959775686"><ele>439.94</ele><time>2014-05-03T07:27:19Z</time></trkpt><trkpt lat="49.6245885920" lon="12.1960510779"><ele>439.94</ele><time>2014-05-03T07:27:20Z</time></trkpt><trkpt lat="49.6246033441" lon="12.1961246710"><ele>439.94</ele><time>2014-05-03T07:27:21Z</time></trkpt><trkpt lat="49.6246174257" lon="12.1961983480"><ele>440.42</ele><time>2014-05-03T07:27:22Z</time></trkpt><trkpt lat="49.6246321779" lon="12.1962739527"><ele>440.42</ele><time>2014-05-03T07:27:23Z</time></trkpt><trkpt lat="49.6246463433" lon="12.1963502280"><ele>440.42</ele><time>2014-05-03T07:27:24Z</time></trkpt><trkpt lat="49.6246609278" lon="12.1964261681"><ele>440.42</ele><time>2014-05-03T07:27:25Z</time></trkpt><trkpt lat="49.6246759314" lon="12.1965003479"><ele>440.42</ele><time>2014-05-03T07:27:26Z</time></trkpt><trkpt lat="49.6246892586" lon="12.1965750307"><ele>440.42</ele><time>2014-05-03T07:27:27Z</time></trkpt><trkpt lat="49.6247029211" lon="12.1966518089"><ele>440.42</ele><time>2014-05-03T07:27:28Z</time></trkpt><trkpt lat="49.6247172542" lon="12.1967304312"><ele>440.90</ele><time>2014-05-03T07:27:29Z</time></trkpt><trkpt lat="49.6247307491" lon="12.1968070418"><ele>440.90</ele><time>2014-05-03T07:27:30Z</time></trkpt><trkpt lat="49.6247455850" lon="12.1968825627"><ele>440.90</ele><time>2014-05-03T07:27:31Z</time></trkpt><trkpt lat="49.6247591637" lon="12.1969548985"><ele>440.90</ele><time>2014-05-03T07:27:32Z</time></trkpt><trkpt lat="49.6247718204" lon="12.1970263124"><ele>440.90</ele><time>2014-05-03T07:27:33Z</time></trkpt><trkpt lat="49.6247876622" lon="12.1970978938"><ele>440.90</ele><time>2014-05-03T07:27:34Z</time></trkpt><trkpt lat="49.6248037554" lon="12.1971756779"><ele>440.90</ele><time>2014-05-03T07:27:35Z</time></trkpt><trkpt lat="49.6248180885" lon="12.1972573176"><ele>440.90</ele><time>2014-05-03T07:27:36Z</time></trkpt><trkpt lat="49.6248318348" lon="12.1973352693"><ele>440.90</ele><time>2014-05-03T07:27:37Z</time></trkpt><trkpt lat="49.6248480119" lon="12.1974127181"><ele>440.90</ele><time>2014-05-03T07:27:38Z</time></trkpt><trkpt lat="49.6248673741" lon="12.1974927653"><ele>441.38</ele><time>2014-05-03T07:27:39Z</time></trkpt><trkpt lat="49.6248848084" lon="12.1975728124"><ele>441.38</ele><time>2014-05-03T07:27:40Z</time></trkpt><trkpt lat="49.6249035839" lon="12.1976526920"><ele>441.38</ele><time>2014-05-03T07:27:41Z</time></trkpt><trkpt lat="49.6249212697" lon="12.1977318171"><ele>441.38</ele><time>2014-05-03T07:27:42Z</time></trkpt><trkpt lat="49.6249383688" lon="12.1978094336"><ele>441.38</ele><time>2014-05-03T07:27:43Z</time></trkpt><trkpt lat="49.6249574795" lon="12.1978821047"><ele>441.38</ele><time>2014-05-03T07:27:44Z</time></trkpt><trkpt lat="49.6249757521" lon="12.1979553625"><ele>441.38</ele><time>2014-05-03T07:27:45Z</time></trkpt><trkpt lat="49.6249920130" lon="12.1980271116"><ele>441.86</ele><time>2014-05-03T07:27:46Z</time></trkpt><trkpt lat="49.6250086091" lon="12.1980984416"><ele>441.86</ele><time>2014-05-03T07:27:47Z</time></trkpt><trkpt lat="49.6250249539" lon="12.1981672570"><ele>441.86</ele><time>2014-05-03T07:27:48Z</time></trkpt><trkpt lat="49.6250423882" lon="12.1982341446"><ele>441.86</ele><time>2014-05-03T07:27:49Z</time></trkpt><trkpt lat="49.6250609960" lon="12.1983013675"><ele>441.86</ele><time>2014-05-03T07:27:50Z</time></trkpt><trkpt lat="49.6250806935" lon="12.1983676683"><ele>441.86</ele><time>2014-05-03T07:27:51Z</time></trkpt><trkpt lat="49.6251003072" lon="12.1984317899"><ele>442.34</ele><time>2014-05-03T07:27:52Z</time></trkpt><trkpt lat="49.6251201723" lon="12.1984920558"><ele>442.34</ele><time>2014-05-03T07:27:53Z</time></trkpt><trkpt lat="49.6251397859" lon="12.1985538304"><ele>442.34</ele><time>2014-05-03T07:27:54Z</time></trkpt><trkpt lat="49.6251599863" lon="12.1986149345"><ele>442.34</ele><time>2014-05-03T07:27:55Z</time></trkpt><trkpt lat="49.6251816954" lon="12.1986753680"><ele>442.34</ele><time>2014-05-03T07:27:56Z</time></trkpt><trkpt lat="49.6252055001" lon="12.1987352148"><ele>442.82</ele><time>2014-05-03T07:27:57Z</time></trkpt><trkpt lat="49.6252292208" lon="12.1987924632"><ele>442.34</ele><time>2014-05-03T07:27:58Z</time></trkpt><trkpt lat="49.6252513491" lon="12.1988473646"><ele>442.34</ele><time>2014-05-03T07:27:59Z</time></trkpt><trkpt lat="49.6252727229" lon="12.1988953929"><ele>442.34</ele><time>2014-05-03T07:28:00Z</time></trkpt><trkpt lat="49.6252933424" lon="12.1989402361"><ele>442.34</ele><time>2014-05-03T07:28:01Z</time></trkpt><trkpt lat="49.6253161412" lon="12.1989885159"><ele>442.82</ele><time>2014-05-03T07:28:02Z</time></trkpt><trkpt lat="49.6253374312" lon="12.1990404837"><ele>442.82</ele><time>2014-05-03T07:28:03Z</time></trkpt><trkpt lat="49.6253592242" lon="12.1990946308"><ele>442.82</ele><time>2014-05-03T07:28:04Z</time></trkpt><trkpt lat="49.6253823582" lon="12.1991521306"><ele>442.82</ele><time>2014-05-03T07:28:05Z</time></trkpt><trkpt lat="49.6254059952" lon="12.1992135700"><ele>442.82</ele><time>2014-05-03T07:28:06Z</time></trkpt><trkpt lat="49.6254325658" lon="12.1992750932"><ele>442.82</ele><time>2014-05-03T07:28:07Z</time></trkpt><trkpt lat="49.6254630759" lon="12.1993336827"><ele>443.31</ele><time>2014-05-03T07:28:08Z</time></trkpt><trkpt lat="49.6254934184" lon="12.1993911825"><ele>443.31</ele><time>2014-05-03T07:28:09Z</time></trkpt><trkpt lat="49.6255255211" lon="12.1994463354"><ele>443.31</ele><time>2014-05-03T07:28:10Z</time></trkpt><trkpt lat="49.6255580429" lon="12.1995037515"><ele>443.31</ele><time>2014-05-03T07:28:11Z</time></trkpt><trkpt lat="49.6255890559" lon="12.1995629277"><ele>443.31</ele><time>2014-05-03T07:28:12Z</time></trkpt><trkpt lat="49.6256230026" lon="12.1996213496"><ele>443.31</ele><time>2014-05-03T07:28:13Z</time></trkpt><trkpt lat="49.6256600507" lon="12.1996771730"><ele>443.31</ele><time>2014-05-03T07:28:14Z</time></trkpt><trkpt lat="49.6256969310" lon="12.1997355949"><ele>443.79</ele><time>2014-05-03T07:28:15Z</time></trkpt><trkpt lat="49.6257337276" lon="12.1997939330"><ele>443.31</ele><time>2014-05-03T07:28:16Z</time></trkpt><trkpt lat="49.6257714462" lon="12.1998524386"><ele>443.79</ele><time>2014-05-03T07:28:17Z</time></trkpt><trkpt lat="49.6258094162" lon="12.1999114472"><ele>443.79</ele><time>2014-05-03T07:28:18Z</time></trkpt><trkpt lat="49.6258481406" lon="12.1999683604"><ele>443.79</ele><time>2014-05-03T07:28:19Z</time></trkpt><trkpt lat="49.6258888766" lon="12.2000213340"><ele>444.27</ele><time>2014-05-03T07:28:20Z</time></trkpt><trkpt lat="49.6259292774" lon="12.2000706196"><ele>444.27</ele><time>2014-05-03T07:28:21Z</time></trkpt><trkpt lat="49.6259683371" lon="12.2001166362"><ele>444.27</ele><time>2014-05-03T07:28:22Z</time></trkpt><trkpt lat="49.6260056365" lon="12.2001602221"><ele>444.27</ele><time>2014-05-03T07:28:23Z</time></trkpt><trkpt lat="49.6260417625" lon="12.2001997009"><ele>444.27</ele><time>2014-05-03T07:28:24Z</time></trkpt><trkpt lat="49.6260763798" lon="12.2002391797"><ele>444.27</ele><time>2014-05-03T07:28:25Z</time></trkpt><trkpt lat="49.6261101589" lon="12.2002782393"><ele>444.27</ele><time>2014-05-03T07:28:26Z</time></trkpt><trkpt lat="49.6261432674" lon="12.2003184725"><ele>444.27</ele><time>2014-05-03T07:28:27Z</time></trkpt><trkpt lat="49.6261774655" lon="12.2003629804"><ele>444.27</ele><time>2014-05-03T07:28:28Z</time></trkpt><trkpt lat="49.6262145136" lon="12.2004078235"><ele>444.27</ele><time>2014-05-03T07:28:29Z</time></trkpt><trkpt lat="49.6262533218" lon="12.2004519124"><ele>444.27</ele><time>2014-05-03T07:28:30Z</time></trkpt><trkpt lat="49.6262912918" lon="12.2004975099"><ele>444.27</ele><time>2014-05-03T07:28:31Z</time></trkpt><trkpt lat="49.6263311896" lon="12.2005431075"><ele>444.27</ele><time>2014-05-03T07:28:32Z</time></trkpt><trkpt lat="49.6263736859" lon="12.2005902138"><ele>444.27</ele><time>2014-05-03T07:28:33Z</time></trkpt><trkpt lat="49.6264173556" lon="12.2006352246"><ele>444.27</ele><time>2014-05-03T07:28:34Z</time></trkpt><trkpt lat="49.6264629532" lon="12.2006824985"><ele>444.27</ele><time>2014-05-03T07:28:35Z</time></trkpt><trkpt lat="49.6265086345" lon="12.2007316165"><ele>444.27</ele><time>2014-05-03T07:28:36Z</time></trkpt><trkpt lat="49.6265541483" lon="12.2007818241"><ele>444.27</ele><time>2014-05-03T07:28:37Z</time></trkpt><trkpt lat="49.6266005002" lon="12.2008291818"><ele>444.27</ele><time>2014-05-03T07:28:38Z</time></trkpt><trkpt lat="49.6266481094" lon="12.2008777969"><ele>444.27</ele><time>2014-05-03T07:28:39Z</time></trkpt><trkpt lat="49.6266944613" lon="12.2009288426"><ele>444.27</ele><time>2014-05-03T07:28:40Z</time></trkpt><trkpt lat="49.6267402265" lon="12.2009844147"><ele>444.27</ele><time>2014-05-03T07:28:41Z</time></trkpt><trkpt lat="49.6267855726" lon="12.2010434233"><ele>444.27</ele><time>2014-05-03T07:28:42Z</time></trkpt><trkpt lat="49.6268315054" lon="12.2011035215"><ele>444.27</ele><time>2014-05-03T07:28:43Z</time></trkpt><trkpt lat="49.6268772706" lon="12.2011668887"><ele>444.27</ele><time>2014-05-03T07:28:44Z</time></trkpt><trkpt lat="49.6269229520" lon="12.2012315132"><ele>444.27</ele><time>2014-05-03T07:28:45Z</time></trkpt><trkpt lat="49.6269693878" lon="12.2012975626"><ele>444.27</ele><time>2014-05-03T07:28:46Z</time></trkpt><trkpt lat="49.6270159911" lon="12.2013678867"><ele>443.79</ele><time>2014-05-03T07:28:47Z</time></trkpt><trkpt lat="49.6270613372" lon="12.2014387138"><ele>443.79</ele><time>2014-05-03T07:28:48Z</time></trkpt><trkpt lat="49.6271045040" lon="12.2015108820"><ele>443.79</ele><time>2014-05-03T07:28:49Z</time></trkpt><trkpt lat="49.6271498501" lon="12.2015838884"><ele>443.79</ele><time>2014-05-03T07:28:50Z</time></trkpt><trkpt lat="49.6271956153" lon="12.2016593255"><ele>443.31</ele><time>2014-05-03T07:28:51Z</time></trkpt><trkpt lat="49.6272414643" lon="12.2017335892"><ele>443.31</ele><time>2014-05-03T07:28:52Z</time></trkpt><trkpt lat="49.6272882354" lon="12.2018081043"><ele>442.82</ele><time>2014-05-03T07:28:53Z</time></trkpt><trkpt lat="49.6273325756" lon="12.2018863913"><ele>442.82</ele><time>2014-05-03T07:28:54Z</time></trkpt><trkpt lat="49.6273773350" lon="12.2019659355"><ele>442.82</ele><time>2014-05-03T07:28:55Z</time></trkpt><trkpt lat="49.6274223458" lon="12.2020477429"><ele>442.34</ele><time>2014-05-03T07:28:56Z</time></trkpt><trkpt lat="49.6274643391" lon="12.2021362558"><ele>442.34</ele><time>2014-05-03T07:28:57Z</time></trkpt><trkpt lat="49.6275041532" lon="12.2022297140"><ele>442.34</ele><time>2014-05-03T07:28:58Z</time></trkpt><trkpt lat="49.6275425423" lon="12.2023223341"><ele>441.86</ele><time>2014-05-03T07:28:59Z</time></trkpt><trkpt lat="49.6275765728" lon="12.2024176363"><ele>441.86</ele><time>2014-05-03T07:29:00Z</time></trkpt><trkpt lat="49.6276069991" lon="12.2025153693"><ele>441.86</ele><time>2014-05-03T07:29:01Z</time></trkpt><trkpt lat="49.6276362520" lon="12.2026138566"><ele>441.86</ele><time>2014-05-03T07:29:02Z</time></trkpt><trkpt lat="49.6276652534" lon="12.2027117573"><ele>441.38</ele><time>2014-05-03T07:29:03Z</time></trkpt><trkpt lat="49.6276922431" lon="12.2028137650"><ele>441.38</ele><time>2014-05-03T07:29:04Z</time></trkpt><trkpt lat="49.6277196519" lon="12.2029145155"><ele>440.90</ele><time>2014-05-03T07:29:05Z</time></trkpt><trkpt lat="49.6277463064" lon="12.2030138411"><ele>440.90</ele><time>2014-05-03T07:29:06Z</time></trkpt><trkpt lat="49.6277679317" lon="12.2031178605"><ele>440.42</ele><time>2014-05-03T07:29:07Z</time></trkpt><trkpt lat="49.6277912334" lon="12.2032212093"><ele>440.42</ele><time>2014-05-03T07:29:08Z</time></trkpt><trkpt lat="49.6278152894" lon="12.2033263184"><ele>439.94</ele><time>2014-05-03T07:29:09Z</time></trkpt><trkpt lat="49.6278431173" lon="12.2034261469"><ele>439.94</ele><time>2014-05-03T07:29:10Z</time></trkpt><trkpt lat="49.6278729569" lon="12.2035240475"><ele>439.94</ele><time>2014-05-03T07:29:11Z</time></trkpt><trkpt lat="49.6279002819" lon="12.2036232892"><ele>439.94</ele><time>2014-05-03T07:29:12Z</time></trkpt><trkpt lat="49.6279276069" lon="12.2037237883"><ele>439.46</ele><time>2014-05-03T07:29:13Z</time></trkpt><trkpt lat="49.6279543452" lon="12.2038283944"><ele>439.46</ele><time>2014-05-03T07:29:14Z</time></trkpt><trkpt lat="49.6279861126" lon="12.2039319947"><ele>438.98</ele><time>2014-05-03T07:29:15Z</time></trkpt><trkpt lat="49.6280147787" lon="12.2040366847"><ele>438.98</ele><time>2014-05-03T07:29:16Z</time></trkpt><trkpt lat="49.6280402597" lon="12.2041462362"><ele>438.50</ele><time>2014-05-03T07:29:17Z</time></trkpt><trkpt lat="49.6280622203" lon="12.2042602301"><ele>438.50</ele><time>2014-05-03T07:29:18Z</time></trkpt><trkpt lat="49.6280820016" lon="12.2043774929"><ele>438.50</ele><time>2014-05-03T07:29:19Z</time></trkpt><trkpt lat="49.6281021181" lon="12.2044979408"><ele>438.02</ele><time>2014-05-03T07:29:20Z</time></trkpt><trkpt lat="49.6281225700" lon="12.2046186402"><ele>437.54</ele><time>2014-05-03T07:29:21Z</time></trkpt><trkpt lat="49.6281431057" lon="12.2047401778"><ele>437.54</ele><time>2014-05-03T07:29:22Z</time></trkpt><trkpt lat="49.6281636413" lon="12.2048617154"><ele>437.54</ele><time>2014-05-03T07:29:23Z</time></trkpt><trkpt lat="49.6281834226" lon="12.2049823310"><ele>437.06</ele><time>2014-05-03T07:29:24Z</time></trkpt><trkpt lat="49.6282034554" lon="12.2051031981"><ele>437.06</ele><time>2014-05-03T07:29:25Z</time></trkpt><trkpt lat="49.6282185428" lon="12.2052263282"><ele>437.06</ele><time>2014-05-03T07:29:26Z</time></trkpt><trkpt lat="49.6282317024" lon="12.2053515539"><ele>436.58</ele><time>2014-05-03T07:29:27Z</time></trkpt><trkpt lat="49.6282438561" lon="12.2054769471"><ele>436.58</ele><time>2014-05-03T07:29:28Z</time></trkpt><trkpt lat="49.6282545011" lon="12.2056046873"><ele>436.10</ele><time>2014-05-03T07:29:29Z</time></trkpt><trkpt lat="49.6282618772" lon="12.2057322599"><ele>436.10</ele><time>2014-05-03T07:29:30Z</time></trkpt><trkpt lat="49.6282662358" lon="12.2058596648"><ele>435.61</ele><time>2014-05-03T07:29:31Z</time></trkpt><trkpt lat="49.6282693371" lon="12.2059884947"><ele>435.61</ele><time>2014-05-03T07:29:32Z</time></trkpt><trkpt lat="49.6282720193" lon="12.2061173245"><ele>435.61</ele><time>2014-05-03T07:29:33Z</time></trkpt><trkpt lat="49.6282766294" lon="12.2062469926"><ele>435.13</ele><time>2014-05-03T07:29:34Z</time></trkpt><trkpt lat="49.6282795630" lon="12.2063767444"><ele>435.13</ele><time>2014-05-03T07:29:35Z</time></trkpt><trkpt lat="49.6282863524" lon="12.2065053228"><ele>434.65</ele><time>2014-05-03T07:29:36Z</time></trkpt><trkpt lat="49.6282928903" lon="12.2066337336"><ele>434.65</ele><time>2014-05-03T07:29:37Z</time></trkpt><trkpt lat="49.6282949019" lon="12.2067616414"><ele>434.65</ele><time>2014-05-03T07:29:38Z</time></trkpt><trkpt lat="49.6282958239" lon="12.2068863641"><ele>434.65</ele><time>2014-05-03T07:29:39Z</time></trkpt><trkpt lat="49.6282980870" lon="12.2070116736"><ele>434.17</ele><time>2014-05-03T07:29:40Z</time></trkpt><trkpt lat="49.6282999311" lon="12.2071365640"><ele>434.17</ele><time>2014-05-03T07:29:41Z</time></trkpt><trkpt lat="49.6282988414" lon="12.2072622925"><ele>433.69</ele><time>2014-05-03T07:29:42Z</time></trkpt><trkpt lat="49.6282961592" lon="12.2073884401"><ele>433.21</ele><time>2014-05-03T07:29:43Z</time></trkpt><trkpt lat="49.6282893699" lon="12.2075134981"><ele>433.21</ele><time>2014-05-03T07:29:44Z</time></trkpt><trkpt lat="49.6282800660" lon="12.2076389752"><ele>433.21</ele><time>2014-05-03T07:29:45Z</time></trkpt><trkpt lat="49.6282752883" lon="12.2077635303"><ele>432.73</ele><time>2014-05-03T07:29:46Z</time></trkpt><trkpt lat="49.6282708459" lon="12.2078886721"><ele>432.73</ele><time>2014-05-03T07:29:47Z</time></trkpt><trkpt lat="49.6282664035" lon="12.2080152389"><ele>432.25</ele><time>2014-05-03T07:29:48Z</time></trkpt><trkpt lat="49.6282615419" lon="12.2081406321"><ele>432.25</ele><time>2014-05-03T07:29:49Z</time></trkpt><trkpt lat="49.6282570995" lon="12.2082667798"><ele>431.77</ele><time>2014-05-03T07:29:50Z</time></trkpt><trkpt lat="49.6282534115" lon="12.2083956935"><ele>431.77</ele><time>2014-05-03T07:29:51Z</time></trkpt><trkpt lat="49.6282512322" lon="12.2085245233"><ele>431.77</ele><time>2014-05-03T07:29:52Z</time></trkpt><trkpt lat="49.6282489691" lon="12.2086536884"><ele>431.29</ele><time>2014-05-03T07:29:53Z</time></trkpt><trkpt lat="49.6282396652" lon="12.2087838594"><ele>431.29</ele><time>2014-05-03T07:29:54Z</time></trkpt><trkpt lat="49.6282297745" lon="12.2089136112"><ele>430.81</ele><time>2014-05-03T07:29:55Z</time></trkpt><trkpt lat="49.6282230690" lon="12.2090416029"><ele>430.81</ele><time>2014-05-03T07:29:56Z</time></trkpt><trkpt lat="49.6282182913" lon="12.2091708519"><ele>430.33</ele><time>2014-05-03T07:29:57Z</time></trkpt><trkpt lat="49.6282112505" lon="12.2092990112"><ele>430.33</ele><time>2014-05-03T07:29:58Z</time></trkpt><trkpt lat="49.6281989291" lon="12.2094270866"><ele>430.33</ele><time>2014-05-03T07:29:59Z</time></trkpt><trkpt lat="49.6281870268" lon="12.2095544077"><ele>430.33</ele><time>2014-05-03T07:30:00Z</time></trkpt><trkpt lat="49.6281752083" lon="12.2096798848"><ele>429.85</ele><time>2014-05-03T07:30:01Z</time></trkpt><trkpt lat="49.6281614620" lon="12.2098036855"><ele>429.85</ele><time>2014-05-03T07:30:02Z</time></trkpt><trkpt lat="49.6281472128" lon="12.2099258099"><ele>429.37</ele><time>2014-05-03T07:30:03Z</time></trkpt><trkpt lat="49.6281354781" lon="12.2100474313"><ele>429.37</ele><time>2014-05-03T07:30:04Z</time></trkpt><trkpt lat="49.6281272639" lon="12.2101650294"><ele>428.89</ele><time>2014-05-03T07:30:05Z</time></trkpt><trkpt lat="49.6281231567" lon="12.2102843877"><ele>428.89</ele><time>2014-05-03T07:30:06Z</time></trkpt><trkpt lat="49.6281167865" lon="12.2104079369"><ele>428.89</ele><time>2014-05-03T07:30:07Z</time></trkpt><trkpt lat="49.6281070635" lon="12.2105303966"><ele>428.40</ele><time>2014-05-03T07:30:08Z</time></trkpt><trkpt lat="49.6280951612" lon="12.2106547002"><ele>427.92</ele><time>2014-05-03T07:30:09Z</time></trkpt><trkpt lat="49.6280869469" lon="12.2107746452"><ele>427.92</ele><time>2014-05-03T07:30:10Z</time></trkpt><trkpt lat="49.6280775592" lon="12.2108928300"><ele>427.44</ele><time>2014-05-03T07:30:11Z</time></trkpt><trkpt lat="49.6280654892" lon="12.2110121883"><ele>427.44</ele><time>2014-05-03T07:30:12Z</time></trkpt><trkpt lat="49.6280525811" lon="12.2111348156"><ele>427.44</ele><time>2014-05-03T07:30:13Z</time></trkpt><trkpt lat="49.6280412655" lon="12.2112585325"><ele>426.96</ele><time>2014-05-03T07:30:14Z</time></trkpt><trkpt lat="49.6280276030" lon="12.2113806568"><ele>426.96</ele><time>2014-05-03T07:30:15Z</time></trkpt><trkpt lat="49.6280156169" lon="12.2115040384"><ele>426.48</ele><time>2014-05-03T07:30:16Z</time></trkpt><trkpt lat="49.6280052233" lon="12.2116296832"><ele>426.48</ele><time>2014-05-03T07:30:17Z</time></trkpt><trkpt lat="49.6279924829" lon="12.2117520589"><ele>426.00</ele><time>2014-05-03T07:30:18Z</time></trkpt><trkpt lat="49.6279776469" lon="12.2118728422"><ele>426.00</ele><time>2014-05-03T07:30:19Z</time></trkpt><trkpt lat="49.6279651579" lon="12.2119974811"><ele>426.00</ele><time>2014-05-03T07:30:20Z</time></trkpt><trkpt lat="49.6279521659" lon="12.2121241316"><ele>425.52</ele><time>2014-05-03T07:30:21Z</time></trkpt><trkpt lat="49.6279343963" lon="12.2122483514"><ele>425.52</ele><time>2014-05-03T07:30:22Z</time></trkpt><trkpt lat="49.6279163752" lon="12.2123701405"><ele>425.04</ele><time>2014-05-03T07:30:23Z</time></trkpt><trkpt lat="49.6278995275" lon="12.2124904208"><ele>425.04</ele><time>2014-05-03T07:30:24Z</time></trkpt><trkpt lat="49.6278827637" lon="12.2126090247"><ele>425.04</ele><time>2014-05-03T07:30:25Z</time></trkpt><trkpt lat="49.6278651617" lon="12.2127254494"><ele>424.56</ele><time>2014-05-03T07:30:26Z</time></trkpt><trkpt lat="49.6278509963" lon="12.2128456458"><ele>424.56</ele><time>2014-05-03T07:30:27Z</time></trkpt><trkpt lat="49.6278370824" lon="12.2129648365"><ele>424.56</ele><time>2014-05-03T07:30:28Z</time></trkpt><trkpt lat="49.6278235037" lon="12.2130803391"><ele>424.08</ele><time>2014-05-03T07:30:29Z</time></trkpt><trkpt lat="49.6278097574" lon="12.2131971829"><ele>423.60</ele><time>2014-05-03T07:30:30Z</time></trkpt><trkpt lat="49.6277929936" lon="12.2133187205"><ele>423.60</ele><time>2014-05-03T07:30:31Z</time></trkpt><trkpt lat="49.6277750563" lon="12.2134384140"><ele>423.12</ele><time>2014-05-03T07:30:32Z</time></trkpt><trkpt lat="49.6277562808" lon="12.2135584429"><ele>423.12</ele><time>2014-05-03T07:30:33Z</time></trkpt><trkpt lat="49.6277401038" lon="12.2136809025"><ele>423.12</ele><time>2014-05-03T07:30:34Z</time></trkpt><trkpt lat="49.6277243458" lon="12.2138039488"><ele>422.64</ele><time>2014-05-03T07:30:35Z</time></trkpt><trkpt lat="49.6277059056" lon="12.2139275819"><ele>422.64</ele><time>2014-05-03T07:30:36Z</time></trkpt><trkpt lat="49.6276878007" lon="12.2140505444"><ele>422.16</ele><time>2014-05-03T07:30:37Z</time></trkpt><trkpt lat="49.6276753955" lon="12.2141694836"><ele>422.16</ele><time>2014-05-03T07:30:38Z</time></trkpt><trkpt lat="49.6276636608" lon="12.2142871656"><ele>421.68</ele><time>2014-05-03T07:30:39Z</time></trkpt><trkpt lat="49.6276522614" lon="12.2144047637"><ele>421.68</ele><time>2014-05-03T07:30:40Z</time></trkpt><trkpt lat="49.6276405267" lon="12.2145256307"><ele>421.68</ele><time>2014-05-03T07:30:41Z</time></trkpt><trkpt lat="49.6276304685" lon="12.2146464977"><ele>421.68</ele><time>2014-05-03T07:30:42Z</time></trkpt><trkpt lat="49.6276202425" lon="12.2147666104"><ele>421.19</ele><time>2014-05-03T07:30:43Z</time></trkpt><trkpt lat="49.6276083402" lon="12.2148881480"><ele>421.19</ele><time>2014-05-03T07:30:44Z</time></trkpt><trkpt lat="49.6275981143" lon="12.2150081769"><ele>420.71</ele><time>2014-05-03T07:30:45Z</time></trkpt><trkpt lat="49.6275933366" lon="12.2151209135"><ele>420.71</ele><time>2014-05-03T07:30:46Z</time></trkpt><trkpt lat="49.6275919117" lon="12.2152099293"><ele>420.71</ele><time>2014-05-03T07:30:47Z</time></trkpt><trkpt lat="49.6275893971" lon="12.2152934968"><ele>420.23</ele><time>2014-05-03T07:30:48Z</time></trkpt><trkpt lat="49.6275822725" lon="12.2153744660"><ele>420.23</ele><time>2014-05-03T07:30:49Z</time></trkpt><trkpt lat="49.6275739744" lon="12.2154576145"><ele>420.23</ele><time>2014-05-03T07:30:50Z</time></trkpt><trkpt lat="49.6275664307" lon="12.2155407630"><ele>420.23</ele><time>2014-05-03T07:30:51Z</time></trkpt><trkpt lat="49.6275579650" lon="12.2156274319"><ele>419.75</ele><time>2014-05-03T07:30:52Z</time></trkpt><trkpt lat="49.6275527682" lon="12.2157153580"><ele>419.75</ele><time>2014-05-03T07:30:53Z</time></trkpt><trkpt lat="49.6275501698" lon="12.2158043738"><ele>419.75</ele><time>2014-05-03T07:30:54Z</time></trkpt><trkpt lat="49.6275513433" lon="12.2158938088"><ele>419.75</ele><time>2014-05-03T07:30:55Z</time></trkpt><trkpt lat="49.6275470685" lon="12.2159789689"><ele>419.27</ele><time>2014-05-03T07:30:56Z</time></trkpt><trkpt lat="49.6275349148" lon="12.2160633747"><ele>419.27</ele><time>2014-05-03T07:30:57Z</time></trkpt><trkpt lat="49.6275211684" lon="12.2161496244"><ele>419.27</ele><time>2014-05-03T07:30:58Z</time></trkpt><trkpt lat="49.6275050752" lon="12.2162382212"><ele>419.27</ele><time>2014-05-03T07:30:59Z</time></trkpt><trkpt lat="49.6274868026" lon="12.2163269017"><ele>418.79</ele><time>2014-05-03T07:31:00Z</time></trkpt><trkpt lat="49.6274650935" lon="12.2164187673"><ele>418.79</ele><time>2014-05-03T07:31:01Z</time></trkpt><trkpt lat="49.6274453122" lon="12.2165148240"><ele>418.79</ele><time>2014-05-03T07:31:02Z</time></trkpt><trkpt lat="49.6274247766" lon="12.2166127246"><ele>418.79</ele><time>2014-05-03T07:31:03Z</time></trkpt><trkpt lat="49.6274055820" lon="12.2167133074"><ele>418.31</ele><time>2014-05-03T07:31:04Z</time></trkpt><trkpt lat="49.6273849625" lon="12.2168166563"><ele>418.31</ele><time>2014-05-03T07:31:05Z</time></trkpt><trkpt lat="49.6273606550" lon="12.2169208433"><ele>418.31</ele><time>2014-05-03T07:31:06Z</time></trkpt><trkpt lat="49.6273379400" lon="12.2170279641"><ele>417.83</ele><time>2014-05-03T07:31:07Z</time></trkpt><trkpt lat="49.6273170691" lon="12.2171368450"><ele>417.83</ele><time>2014-05-03T07:31:08Z</time></trkpt><trkpt lat="49.6272964496" lon="12.2172463965"><ele>417.83</ele><time>2014-05-03T07:31:09Z</time></trkpt><trkpt lat="49.6272744890" lon="12.2173551936"><ele>417.35</ele><time>2014-05-03T07:31:10Z</time></trkpt><trkpt lat="49.6272499301" lon="12.2174634039"><ele>417.35</ele><time>2014-05-03T07:31:11Z</time></trkpt><trkpt lat="49.6272247005" lon="12.2175716143"><ele>416.87</ele><time>2014-05-03T07:31:12Z</time></trkpt><trkpt lat="49.6271991357" lon="12.2176794894"><ele>416.87</ele><time>2014-05-03T07:31:13Z</time></trkpt><trkpt lat="49.6271723136" lon="12.2177840117"><ele>416.87</ele><time>2014-05-03T07:31:14Z</time></trkpt><trkpt lat="49.6271437313" lon="12.2178876959"><ele>416.87</ele><time>2014-05-03T07:31:15Z</time></trkpt><trkpt lat="49.6271164063" lon="12.2179909609"><ele>416.39</ele><time>2014-05-03T07:31:16Z</time></trkpt><trkpt lat="49.6270872373" lon="12.2180923820"><ele>416.39</ele><time>2014-05-03T07:31:17Z</time></trkpt><trkpt lat="49.6270576492" lon="12.2181978263"><ele>415.91</ele><time>2014-05-03T07:31:18Z</time></trkpt><trkpt lat="49.6270270552" lon="12.2183048632"><ele>415.91</ele><time>2014-05-03T07:31:19Z</time></trkpt><trkpt lat="49.6269931085" lon="12.2184140794"><ele>415.43</ele><time>2014-05-03T07:31:20Z</time></trkpt><trkpt lat="49.6269549709" lon="12.2185235471"><ele>415.43</ele><time>2014-05-03T07:31:21Z</time></trkpt><trkpt lat="49.6269114688" lon="12.2186305840"><ele>415.43</ele><time>2014-05-03T07:31:22Z</time></trkpt><trkpt lat="49.6268682182" lon="12.2187347710"><ele>414.95</ele><time>2014-05-03T07:31:23Z</time></trkpt><trkpt lat="49.6268252190" lon="12.2188366111"><ele>414.95</ele><time>2014-05-03T07:31:24Z</time></trkpt><trkpt lat="49.6267823875" lon="12.2189425584"><ele>414.95</ele><time>2014-05-03T07:31:25Z</time></trkpt><trkpt lat="49.6267411485" lon="12.2190484218"><ele>414.95</ele><time>2014-05-03T07:31:26Z</time></trkpt><trkpt lat="49.6266994905" lon="12.2191514354"><ele>414.47</ele><time>2014-05-03T07:31:27Z</time></trkpt><trkpt lat="49.6266562399" lon="12.2192554548"><ele>414.47</ele><time>2014-05-03T07:31:28Z</time></trkpt><trkpt lat="49.6266135760" lon="12.2193551995"><ele>414.47</ele><time>2014-05-03T07:31:29Z</time></trkpt><trkpt lat="49.6265683975" lon="12.2194449697"><ele>414.47</ele><time>2014-05-03T07:31:30Z</time></trkpt><trkpt lat="49.6265218779" lon="12.2195328120"><ele>414.47</ele><time>2014-05-03T07:31:31Z</time></trkpt><trkpt lat="49.6264743526" lon="12.2196157090"><ele>414.47</ele><time>2014-05-03T07:31:32Z</time></trkpt><trkpt lat="49.6264255699" lon="12.2196936607"><ele>414.47</ele><time>2014-05-03T07:31:33Z</time></trkpt><trkpt lat="49.6263803076" lon="12.2197701037"><ele>414.47</ele><time>2014-05-03T07:31:34Z</time></trkpt><trkpt lat="49.6263403259" lon="12.2198513243"><ele>414.95</ele><time>2014-05-03T07:31:35Z</time></trkpt><trkpt lat="49.6263034455" lon="12.2199347243"><ele>414.95</ele><time>2014-05-03T07:31:36Z</time></trkpt><trkpt lat="49.6262698341" lon="12.2200164478"><ele>414.95</ele><time>2014-05-03T07:31:37Z</time></trkpt><trkpt lat="49.6262385696" lon="12.2200939804"><ele>415.43</ele><time>2014-05-03T07:31:38Z</time></trkpt><trkpt lat="49.6262084786" lon="12.2201692499"><ele>415.91</ele><time>2014-05-03T07:31:39Z</time></trkpt><trkpt lat="49.6261787228" lon="12.2202456091"><ele>415.91</ele><time>2014-05-03T07:31:40Z</time></trkpt><trkpt lat="49.6261503082" lon="12.2203237284"><ele>415.91</ele><time>2014-05-03T07:31:41Z</time></trkpt><trkpt lat="49.6261252463" lon="12.2204027697"><ele>415.91</ele><time>2014-05-03T07:31:42Z</time></trkpt><trkpt lat="49.6260990947" lon="12.2204817273"><ele>416.39</ele><time>2014-05-03T07:31:43Z</time></trkpt><trkpt lat="49.6260746196" lon="12.2205594275"><ele>416.39</ele><time>2014-05-03T07:31:44Z</time></trkpt><trkpt lat="49.6260549221" lon="12.2206374630"><ele>416.87</ele><time>2014-05-03T07:31:45Z</time></trkpt><trkpt lat="49.6260372363" lon="12.2207183484"><ele>416.87</ele><time>2014-05-03T07:31:46Z</time></trkpt><trkpt lat="49.6260229032" lon="12.2207982279"><ele>417.83</ele><time>2014-05-03T07:31:47Z</time></trkpt><trkpt lat="49.6260086540" lon="12.2208734974"><ele>417.83</ele><time>2014-05-03T07:31:48Z</time></trkpt><trkpt lat="49.6259970870" lon="12.2209501080"><ele>418.31</ele><time>2014-05-03T07:31:49Z</time></trkpt><trkpt lat="49.6259869449" lon="12.2210238688"><ele>418.31</ele><time>2014-05-03T07:31:50Z</time></trkpt><trkpt lat="49.6259778924" lon="12.2210978810"><ele>418.79</ele><time>2014-05-03T07:31:51Z</time></trkpt><trkpt lat="49.6259695943" lon="12.2211664449"><ele>418.79</ele><time>2014-05-03T07:31:52Z</time></trkpt><trkpt lat="49.6259662416" lon="12.2212330811"><ele>419.27</ele><time>2014-05-03T07:31:53Z</time></trkpt><trkpt lat="49.6259663254" lon="12.2212945204"><ele>419.27</ele><time>2014-05-03T07:31:54Z</time></trkpt><trkpt lat="49.6259649005" lon="12.2213548701"><ele>419.27</ele><time>2014-05-03T07:31:55Z</time></trkpt><trkpt lat="49.6259586141" lon="12.2214115318"><ele>419.75</ele><time>2014-05-03T07:31:56Z</time></trkpt><trkpt lat="49.6259524953" lon="12.2214618232"><ele>419.75</ele><time>2014-05-03T07:31:57Z</time></trkpt><trkpt lat="49.6259438619" lon="12.2215076722"><ele>419.75</ele><time>2014-05-03T07:31:58Z</time></trkpt><trkpt lat="49.6259262599" lon="12.2215491626"><ele>420.23</ele><time>2014-05-03T07:31:59Z</time></trkpt><trkpt lat="49.6259063110" lon="12.2215876356"><ele>420.23</ele><time>2014-05-03T07:32:00Z</time></trkpt><trkpt lat="49.6258887928" lon="12.2216227558"><ele>420.23</ele><time>2014-05-03T07:32:01Z</time></trkpt><trkpt lat="49.6258672513" lon="12.2216534335"><ele>420.23</ele><time>2014-05-03T07:32:02Z</time></trkpt><trkpt lat="49.6258399263" lon="12.2216823511"><ele>420.23</ele><time>2014-05-03T07:32:03Z</time></trkpt><trkpt lat="49.6258089133" lon="12.2217092570"><ele>420.23</ele><time>2014-05-03T07:32:04Z</time></trkpt><trkpt lat="49.6257737093" lon="12.2217318881"><ele>420.23</ele><time>2014-05-03T07:32:05Z</time></trkpt><trkpt lat="49.6257338952" lon="12.2217539325"><ele>420.23</ele><time>2014-05-03T07:32:06Z</time></trkpt><trkpt lat="49.6256904770" lon="12.2217796650"><ele>420.71</ele><time>2014-05-03T07:32:07Z</time></trkpt><trkpt lat="49.6256471425" lon="12.2218133602"><ele>420.71</ele><time>2014-05-03T07:32:08Z</time></trkpt><trkpt lat="49.6256029699" lon="12.2218437027"><ele>420.71</ele><time>2014-05-03T07:32:09Z</time></trkpt><trkpt lat="49.6255606413" lon="12.2218708601"><ele>420.71</ele><time>2014-05-03T07:32:10Z</time></trkpt><trkpt lat="49.6255176421" lon="12.2218992747"><ele>420.71</ele><time>2014-05-03T07:32:11Z</time></trkpt><trkpt lat="49.6254743915" lon="12.2219279408"><ele>420.71</ele><time>2014-05-03T07:32:12Z</time></trkpt><trkpt lat="49.6254312247" lon="12.2219570260"><ele>420.71</ele><time>2014-05-03T07:32:13Z</time></trkpt><trkpt lat="49.6253889799" lon="12.2219879553"><ele>420.71</ele><time>2014-05-03T07:32:14Z</time></trkpt><trkpt lat="49.6253448073" lon="12.2220193036"><ele>420.71</ele><time>2014-05-03T07:32:15Z</time></trkpt><trkpt lat="49.6253012214" lon="12.2220551781"><ele>421.19</ele><time>2014-05-03T07:32:16Z</time></trkpt><trkpt lat="49.6252587251" lon="12.2221005242"><ele>421.19</ele><time>2014-05-03T07:32:17Z</time></trkpt><trkpt lat="49.6252209228" lon="12.2221474629"><ele>421.19</ele><time>2014-05-03T07:32:18Z</time></trkpt><trkpt lat="49.6251858026" lon="12.2221987601"><ele>421.19</ele><time>2014-05-03T07:32:19Z</time></trkpt><trkpt lat="49.6251532808" lon="12.2222518176"><ele>421.68</ele><time>2014-05-03T07:32:20Z</time></trkpt><trkpt lat="49.6251232736" lon="12.2223094851"><ele>421.68</ele><time>2014-05-03T07:32:21Z</time></trkpt><trkpt lat="49.6250949427" lon="12.2223662306"><ele>422.16</ele><time>2014-05-03T07:32:22Z</time></trkpt><trkpt lat="49.6250709705" lon="12.2224241495"><ele>421.68</ele><time>2014-05-03T07:32:23Z</time></trkpt><trkpt lat="49.6250510216" lon="12.2224807274"><ele>422.16</ele><time>2014-05-03T07:32:24Z</time></trkpt><trkpt lat="49.6250326652" lon="12.2225392330"><ele>422.16</ele><time>2014-05-03T07:32:25Z</time></trkpt><trkpt lat="49.6250157338" lon="12.2226024326"><ele>422.16</ele><time>2014-05-03T07:32:26Z</time></trkpt><trkpt lat="49.6249982994" lon="12.2226638719"><ele>422.16</ele><time>2014-05-03T07:32:27Z</time></trkpt><trkpt lat="49.6249821223" lon="12.2227228805"><ele>422.16</ele><time>2014-05-03T07:32:28Z</time></trkpt><trkpt lat="49.6249666996" lon="12.2227836493"><ele>422.64</ele><time>2014-05-03T07:32:29Z</time></trkpt><trkpt lat="49.6249527857" lon="12.2228483576"><ele>422.64</ele><time>2014-05-03T07:32:30Z</time></trkpt><trkpt lat="49.6249414701" lon="12.2229129821"><ele>422.64</ele><time>2014-05-03T07:32:31Z</time></trkpt><trkpt lat="49.6249284782" lon="12.2229729965"><ele>423.12</ele><time>2014-05-03T07:32:32Z</time></trkpt><trkpt lat="49.6249203477" lon="12.2230371181"><ele>423.12</ele><time>2014-05-03T07:32:33Z</time></trkpt><trkpt lat="49.6249112953" lon="12.2230981383"><ele>423.12</ele><time>2014-05-03T07:32:34Z</time></trkpt><trkpt lat="49.6249014046" lon="12.2231594939"><ele>423.60</ele><time>2014-05-03T07:32:35Z</time></trkpt><trkpt lat="49.6248926874" lon="12.2232204303"><ele>423.60</ele><time>2014-05-03T07:32:36Z</time></trkpt><trkpt lat="49.6248811204" lon="12.2232828755"><ele>423.60</ele><time>2014-05-03T07:32:37Z</time></trkpt><trkpt lat="49.6248703916" lon="12.2233472485"><ele>423.60</ele><time>2014-05-03T07:32:38Z</time></trkpt><trkpt lat="49.6248600818" lon="12.2234098613"><ele>423.60</ele><time>2014-05-03T07:32:39Z</time></trkpt><trkpt lat="49.6248466708" lon="12.2234723903"><ele>423.60</ele><time>2014-05-03T07:32:40Z</time></trkpt><trkpt lat="49.6248315834" lon="12.2235370986"><ele>424.08</ele><time>2014-05-03T07:32:41Z</time></trkpt><trkpt lat="49.6248141490" lon="12.2235990409"><ele>424.08</ele><time>2014-05-03T07:32:42Z</time></trkpt><trkpt lat="49.6247998998" lon="12.2236591391"><ele>424.56</ele><time>2014-05-03T07:32:43Z</time></trkpt><trkpt lat="49.6247873269" lon="12.2237124480"><ele>424.08</ele><time>2014-05-03T07:32:44Z</time></trkpt><trkpt lat="49.6247739159" lon="12.2237650026"><ele>424.56</ele><time>2014-05-03T07:32:45Z</time></trkpt><trkpt lat="49.6247585770" lon="12.2238150425"><ele>424.56</ele><time>2014-05-03T07:32:46Z</time></trkpt><trkpt lat="49.6247413941" lon="12.2238628194"><ele>424.56</ele><time>2014-05-03T07:32:47Z</time></trkpt><trkpt lat="49.6247229539" lon="12.2239099257"><ele>424.56</ele><time>2014-05-03T07:32:48Z</time></trkpt><trkpt lat="49.6247015800" lon="12.2239494044"><ele>424.56</ele><time>2014-05-03T07:32:49Z</time></trkpt><trkpt lat="49.6246786974" lon="12.2239855304"><ele>424.56</ele><time>2014-05-03T07:32:50Z</time></trkpt><trkpt lat="49.6246523783" lon="12.2240235843"><ele>424.56</ele><time>2014-05-03T07:32:51Z</time></trkpt><trkpt lat="49.6246223710" lon="12.2240591235"><ele>424.56</ele><time>2014-05-03T07:32:52Z</time></trkpt><trkpt lat="49.6245865803" lon="12.2240884602"><ele>424.56</ele><time>2014-05-03T07:32:53Z</time></trkpt><trkpt lat="49.6245461795" lon="12.2241099179"><ele>424.56</ele><time>2014-05-03T07:32:54Z</time></trkpt><trkpt lat="49.6245032642" lon="12.2241229098"><ele>424.08</ele><time>2014-05-03T07:32:55Z</time></trkpt><trkpt lat="49.6244552359" lon="12.2241301183"><ele>424.08</ele><time>2014-05-03T07:32:56Z</time></trkpt><trkpt lat="49.6244029328" lon="12.2241333034"><ele>423.60</ele><time>2014-05-03T07:32:57Z</time></trkpt><trkpt lat="49.6243516356" lon="12.2241366562"><ele>423.60</ele><time>2014-05-03T07:32:58Z</time></trkpt><trkpt lat="49.6242976561" lon="12.2241409309"><ele>423.60</ele><time>2014-05-03T07:32:59Z</time></trkpt><trkpt lat="49.6242404915" lon="12.2241432779"><ele>423.12</ele><time>2014-05-03T07:33:00Z</time></trkpt><trkpt lat="49.6241824888" lon="12.2241446190"><ele>422.64</ele><time>2014-05-03T07:33:01Z</time></trkpt><trkpt lat="49.6241247375" lon="12.2241452057"><ele>422.64</ele><time>2014-05-03T07:33:02Z</time></trkpt><trkpt lat="49.6240634657" lon="12.2241431940"><ele>422.16</ele><time>2014-05-03T07:33:03Z</time></trkpt><trkpt lat="49.6240017749" lon="12.2241422720"><ele>421.68</ele><time>2014-05-03T07:33:04Z</time></trkpt><trkpt lat="49.6239400003" lon="12.2241415177"><ele>421.68</ele><time>2014-05-03T07:33:05Z</time></trkpt><trkpt lat="49.6238770522" lon="12.2241432779"><ele>421.68</ele><time>2014-05-03T07:33:06Z</time></trkpt><trkpt lat="49.6238108352" lon="12.2241441160"><ele>421.68</ele><time>2014-05-03T07:33:07Z</time></trkpt><trkpt lat="49.6237449534" lon="12.2241438646"><ele>421.19</ele><time>2014-05-03T07:33:08Z</time></trkpt><trkpt lat="49.6236786526" lon="12.2241472173"><ele>421.19</ele><time>2014-05-03T07:33:09Z</time></trkpt><trkpt lat="49.6236155368" lon="12.2241460439"><ele>421.19</ele><time>2014-05-03T07:33:10Z</time></trkpt><trkpt lat="49.6235519182" lon="12.2241432779"><ele>421.19</ele><time>2014-05-03T07:33:11Z</time></trkpt><trkpt lat="49.6234885510" lon="12.2241486423"><ele>420.71</ele><time>2014-05-03T07:33:12Z</time></trkpt><trkpt lat="49.6234242618" lon="12.2241552640"><ele>420.71</ele><time>2014-05-03T07:33:13Z</time></trkpt><trkpt lat="49.6233617328" lon="12.2241651546"><ele>420.71</ele><time>2014-05-03T07:33:14Z</time></trkpt><trkpt lat="49.6233015507" lon="12.2241767216"><ele>420.71</ele><time>2014-05-03T07:33:15Z</time></trkpt><trkpt lat="49.6232434642" lon="12.2241982631"><ele>420.71</ele><time>2014-05-03T07:33:16Z</time></trkpt><trkpt lat="49.6231894847" lon="12.2242301144"><ele>420.71</ele><time>2014-05-03T07:33:17Z</time></trkpt><trkpt lat="49.6231369302" lon="12.2242619656"><ele>420.71</ele><time>2014-05-03T07:33:18Z</time></trkpt><trkpt lat="49.6230859682" lon="12.2242974211"><ele>421.19</ele><time>2014-05-03T07:33:19Z</time></trkpt><trkpt lat="49.6230354253" lon="12.2243331280"><ele>421.19</ele><time>2014-05-03T07:33:20Z</time></trkpt><trkpt lat="49.6229883190" lon="12.2243799828"><ele>421.68</ele><time>2014-05-03T07:33:21Z</time></trkpt><trkpt lat="49.6229480021" lon="12.2244417574"><ele>421.19</ele><time>2014-05-03T07:33:22Z</time></trkpt><trkpt lat="49.6229141392" lon="12.2245178651"><ele>421.19</ele><time>2014-05-03T07:33:23Z</time></trkpt><trkpt lat="49.6228827070" lon="12.2245999239"><ele>421.68</ele><time>2014-05-03T07:33:24Z</time></trkpt><trkpt lat="49.6228506044" lon="12.2246795520"><ele>421.19</ele><time>2014-05-03T07:33:25Z</time></trkpt><trkpt lat="49.6228185855" lon="12.2247577552"><ele>421.68</ele><time>2014-05-03T07:33:26Z</time></trkpt><trkpt lat="49.6227856446" lon="12.2248375509"><ele>421.68</ele><time>2014-05-03T07:33:27Z</time></trkpt><trkpt lat="49.6227546316" lon="12.2249185201"><ele>422.16</ele><time>2014-05-03T07:33:28Z</time></trkpt><trkpt lat="49.6227259655" lon="12.2250010818"><ele>422.16</ele><time>2014-05-03T07:33:29Z</time></trkpt><trkpt lat="49.6226983890" lon="12.2250848170"><ele>422.16</ele><time>2014-05-03T07:33:30Z</time></trkpt><trkpt lat="49.6226734947" lon="12.2251684684"><ele>422.64</ele><time>2014-05-03T07:33:31Z</time></trkpt><trkpt lat="49.6226516180" lon="12.2252519522"><ele>422.64</ele><time>2014-05-03T07:33:32Z</time></trkpt><trkpt lat="49.6226309985" lon="12.2253355198"><ele>422.64</ele><time>2014-05-03T07:33:33Z</time></trkpt><trkpt lat="49.6226162463" lon="12.2254174110"><ele>423.12</ele><time>2014-05-03T07:33:34Z</time></trkpt><trkpt lat="49.6226070262" lon="12.2254978772"><ele>423.12</ele><time>2014-05-03T07:33:35Z</time></trkpt><trkpt lat="49.6226009913" lon="12.2255778406"><ele>423.60</ele><time>2014-05-03T07:33:36Z</time></trkpt><trkpt lat="49.6225962136" lon="12.2256571334"><ele>423.60</ele><time>2014-05-03T07:33:37Z</time></trkpt><trkpt lat="49.6225936990" lon="12.2257323191"><ele>423.60</ele><time>2014-05-03T07:33:38Z</time></trkpt><trkpt lat="49.6225953754" lon="12.2258034814"><ele>424.08</ele><time>2014-05-03T07:33:39Z</time></trkpt><trkpt lat="49.6225983929" lon="12.2258686088"><ele>424.08</ele><time>2014-05-03T07:33:40Z</time></trkpt><trkpt lat="49.6226015780" lon="12.2259325627"><ele>424.08</ele><time>2014-05-03T07:33:41Z</time></trkpt><trkpt lat="49.6226039249" lon="12.2259962652"><ele>424.08</ele><time>2014-05-03T07:33:42Z</time></trkpt><trkpt lat="49.6226070262" lon="12.2260592971"><ele>424.56</ele><time>2014-05-03T07:33:43Z</time></trkpt><trkpt lat="49.6226097923" lon="12.2261224128"><ele>425.04</ele><time>2014-05-03T07:33:44Z</time></trkpt><trkpt lat="49.6226123907" lon="12.2261864506"><ele>425.04</ele><time>2014-05-03T07:33:45Z</time></trkpt><trkpt lat="49.6226148214" lon="12.2262507398"><ele>425.52</ele><time>2014-05-03T07:33:46Z</time></trkpt><trkpt lat="49.6226184256" lon="12.2263136040"><ele>425.52</ele><time>2014-05-03T07:33:47Z</time></trkpt><trkpt lat="49.6226227004" lon="12.2263752110"><ele>425.52</ele><time>2014-05-03T07:33:48Z</time></trkpt><trkpt lat="49.6226241253" lon="12.2264351416"><ele>426.00</ele><time>2014-05-03T07:33:49Z</time></trkpt><trkpt lat="49.6226222813" lon="12.2264951561"><ele>426.00</ele><time>2014-05-03T07:33:50Z</time></trkpt><trkpt lat="49.6226224490" lon="12.2265565116"><ele>426.48</ele><time>2014-05-03T07:33:51Z</time></trkpt><trkpt lat="49.6226238739" lon="12.2266135924"><ele>426.96</ele><time>2014-05-03T07:33:52Z</time></trkpt><trkpt lat="49.6226227842" lon="12.2266679071"><ele>426.96</ele><time>2014-05-03T07:33:53Z</time></trkpt><trkpt lat="49.6226220299" lon="12.2267200425"><ele>427.44</ele><time>2014-05-03T07:33:54Z</time></trkpt><trkpt lat="49.6226201858" lon="12.2267731838"><ele>427.44</ele><time>2014-05-03T07:33:55Z</time></trkpt><trkpt lat="49.6226154920" lon="12.2268300969"><ele>427.92</ele><time>2014-05-03T07:33:56Z</time></trkpt><trkpt lat="49.6226118039" lon="12.2268834058"><ele>427.92</ele><time>2014-05-03T07:33:57Z</time></trkpt><trkpt lat="49.6226097923" lon="12.2269367147"><ele>428.40</ele><time>2014-05-03T07:33:58Z</time></trkpt><trkpt lat="49.6226057690" lon="12.2269901074"><ele>428.40</ele><time>2014-05-03T07:33:59Z</time></trkpt><trkpt lat="49.6225999855" lon="12.2270426620"><ele>428.89</ele><time>2014-05-03T07:34:00Z</time></trkpt><trkpt lat="49.6225947887" lon="12.2270911932"><ele>429.37</ele><time>2014-05-03T07:34:01Z</time></trkpt><trkpt lat="49.6225906815" lon="12.2271367069"><ele>429.37</ele><time>2014-05-03T07:34:02Z</time></trkpt><trkpt lat="49.6225887537" lon="12.2271785326"><ele>429.85</ele><time>2014-05-03T07:34:03Z</time></trkpt><trkpt lat="49.6225877479" lon="12.2272176761"><ele>429.85</ele><time>2014-05-03T07:34:04Z</time></trkpt><trkpt lat="49.6225805394" lon="12.2272527125"><ele>430.33</ele><time>2014-05-03T07:34:05Z</time></trkpt><trkpt lat="49.6225766838" lon="12.2272903472"><ele>430.33</ele><time>2014-05-03T07:34:06Z</time></trkpt><trkpt lat="49.6225695591" lon="12.2273257188"><ele>430.81</ele><time>2014-05-03T07:34:07Z</time></trkpt><trkpt lat="49.6225623507" lon="12.2273633536"><ele>431.29</ele><time>2014-05-03T07:34:08Z</time></trkpt><trkpt lat="49.6225571539" lon="12.2273996472"><ele>431.77</ele><time>2014-05-03T07:34:09Z</time></trkpt><trkpt lat="49.6225506160" lon="12.2274369467"><ele>431.77</ele><time>2014-05-03T07:34:10Z</time></trkpt><trkpt lat="49.6225465927" lon="12.2274746653"><ele>432.25</ele><time>2014-05-03T07:34:11Z</time></trkpt><trkpt lat="49.6225418150" lon="12.2275107075"><ele>432.25</ele><time>2014-05-03T07:34:12Z</time></trkpt><trkpt lat="49.6225371212" lon="12.2275480907"><ele>432.25</ele><time>2014-05-03T07:34:13Z</time></trkpt><trkpt lat="49.6225315891" lon="12.2275834624"><ele>432.73</ele><time>2014-05-03T07:34:14Z</time></trkpt><trkpt lat="49.6225240454" lon="12.2276195884"><ele>433.21</ele><time>2014-05-03T07:34:15Z</time></trkpt><trkpt lat="49.6225129813" lon="12.2276517749"><ele>433.69</ele><time>2014-05-03T07:34:16Z</time></trkpt><trkpt lat="49.6225002408" lon="12.2276840452"><ele>433.69</ele><time>2014-05-03T07:34:17Z</time></trkpt><trkpt lat="49.6224845666" lon="12.2277122084"><ele>433.69</ele><time>2014-05-03T07:34:18Z</time></trkpt><trkpt lat="49.6224677190" lon="12.2277386952"><ele>434.17</ele><time>2014-05-03T07:34:19Z</time></trkpt><trkpt lat="49.6224555653" lon="12.2277692053"><ele>434.17</ele><time>2014-05-03T07:34:20Z</time></trkpt><trkpt lat="49.6224455070" lon="12.2278029844"><ele>434.65</ele><time>2014-05-03T07:34:21Z</time></trkpt><trkpt lat="49.6224378794" lon="12.2278382722"><ele>434.65</ele><time>2014-05-03T07:34:22Z</time></trkpt><trkpt lat="49.6224294975" lon="12.2278738115"><ele>434.65</ele><time>2014-05-03T07:34:23Z</time></trkpt><trkpt lat="49.6224209480" lon="12.2279125359"><ele>434.65</ele><time>2014-05-03T07:34:24Z</time></trkpt><trkpt lat="49.6224125661" lon="12.2279525176"><ele>434.65</ele><time>2014-05-03T07:34:25Z</time></trkpt><trkpt lat="49.6224060282" lon="12.2279893979"><ele>434.17</ele><time>2014-05-03T07:34:26Z</time></trkpt><trkpt lat="49.6223968919" lon="12.2280276194"><ele>434.17</ele><time>2014-05-03T07:34:27Z</time></trkpt><trkpt lat="49.6223850735" lon="12.2280732170"><ele>433.69</ele><time>2014-05-03T07:34:28Z</time></trkpt><trkpt lat="49.6223764401" lon="12.2281292919"><ele>433.69</ele><time>2014-05-03T07:34:29Z</time></trkpt><trkpt lat="49.6223739255" lon="12.2281922400"><ele>433.21</ele><time>2014-05-03T07:34:30Z</time></trkpt><trkpt lat="49.6223771106" lon="12.2282561101"><ele>433.21</ele><time>2014-05-03T07:34:31Z</time></trkpt><trkpt lat="49.6223830618" lon="12.2283191420"><ele>433.69</ele><time>2014-05-03T07:34:32Z</time></trkpt><trkpt lat="49.6223885939" lon="12.2283781506"><ele>433.69</ele><time>2014-05-03T07:34:33Z</time></trkpt><trkpt lat="49.6223893482" lon="12.2284295317"><ele>433.69</ele><time>2014-05-03T07:34:34Z</time></trkpt><trkpt lat="49.6223745123" lon="12.2284670826"><ele>434.17</ele><time>2014-05-03T07:34:35Z</time></trkpt><trkpt lat="49.6223430801" lon="12.2284854390"><ele>434.17</ele><time>2014-05-03T07:34:36Z</time></trkpt><trkpt lat="49.6223083790" lon="12.2284972575"><ele>434.65</ele><time>2014-05-03T07:34:37Z</time></trkpt><trkpt lat="49.6222708281" lon="12.2285075672"><ele>434.65</ele><time>2014-05-03T07:34:38Z</time></trkpt><trkpt lat="49.6222321875" lon="12.2285157815"><ele>435.13</ele><time>2014-05-03T07:34:39Z</time></trkpt><trkpt lat="49.6221954748" lon="12.2285246663"><ele>435.61</ele><time>2014-05-03T07:34:40Z</time></trkpt><trkpt lat="49.6221628692" lon="12.2285392508"><ele>436.10</ele><time>2014-05-03T07:34:41Z</time></trkpt><trkpt lat="49.6221307665" lon="12.2285587806"><ele>436.10</ele><time>2014-05-03T07:34:42Z</time></trkpt><trkpt lat="49.6220972389" lon="12.2285798192"><ele>436.10</ele><time>2014-05-03T07:34:43Z</time></trkpt><trkpt lat="49.6220658906" lon="12.2285929788"><ele>436.58</ele><time>2014-05-03T07:34:44Z</time></trkpt><trkpt lat="49.6220357995" lon="12.2286092397"><ele>436.58</ele><time>2014-05-03T07:34:45Z</time></trkpt><trkpt lat="49.6220056247" lon="12.2286251653"><ele>437.06</ele><time>2014-05-03T07:34:46Z</time></trkpt><trkpt lat="49.6219770424" lon="12.2286409233"><ele>437.06</ele><time>2014-05-03T07:34:47Z</time></trkpt><trkpt lat="49.6219510585" lon="12.2286553402"><ele>437.54</ele><time>2014-05-03T07:34:48Z</time></trkpt><trkpt lat="49.6219264995" lon="12.2286640573"><ele>437.54</ele><time>2014-05-03T07:34:49Z</time></trkpt><trkpt lat="49.6219031140" lon="12.2286743671"><ele>438.02</ele><time>2014-05-03T07:34:50Z</time></trkpt><trkpt lat="49.6218826622" lon="12.2286887839"><ele>438.02</ele><time>2014-05-03T07:34:51Z</time></trkpt><trkpt lat="49.6218629647" lon="12.2286969144"><ele>438.02</ele><time>2014-05-03T07:34:52Z</time></trkpt><trkpt lat="49.6218379866" lon="12.2287068889"><ele>438.02</ele><time>2014-05-03T07:34:53Z</time></trkpt><trkpt lat="49.6218077280" lon="12.2287212219"><ele>438.02</ele><time>2014-05-03T07:34:54Z</time></trkpt><trkpt lat="49.6217759605" lon="12.2287337109"><ele>438.50</ele><time>2014-05-03T07:34:55Z</time></trkpt><trkpt lat="49.6217440255" lon="12.2287451942"><ele>438.50</ele><time>2014-05-03T07:34:56Z</time></trkpt><trkpt lat="49.6217115875" lon="12.2287471220"><ele>438.50</ele><time>2014-05-03T07:34:57Z</time></trkpt><trkpt lat="49.6216788143" lon="12.2287432663"><ele>438.50</ele><time>2014-05-03T07:34:58Z</time></trkpt><trkpt lat="49.6216490585" lon="12.2287402488"><ele>438.98</ele><time>2014-05-03T07:34:59Z</time></trkpt><trkpt lat="49.6216177102" lon="12.2287363093"><ele>438.50</ele><time>2014-05-03T07:35:00Z</time></trkpt><trkpt lat="49.6215851046" lon="12.2287347168"><ele>438.50</ele><time>2014-05-03T07:35:01Z</time></trkpt><trkpt lat="49.6215502359" lon="12.2287379857"><ele>438.50</ele><time>2014-05-03T07:35:02Z</time></trkpt><trkpt lat="49.6215161216" lon="12.2287438530"><ele>438.50</ele><time>2014-05-03T07:35:03Z</time></trkpt><trkpt lat="49.6214816719" lon="12.2287538275"><ele>438.50</ele><time>2014-05-03T07:35:04Z</time></trkpt><trkpt lat="49.6214460488" lon="12.2287669033"><ele>438.50</ele><time>2014-05-03T07:35:05Z</time></trkpt><trkpt lat="49.6214086656" lon="12.2287807334"><ele>438.50</ele><time>2014-05-03T07:35:06Z</time></trkpt><trkpt lat="49.6213716175" lon="12.2287898697"><ele>438.50</ele><time>2014-05-03T07:35:07Z</time></trkpt><trkpt lat="49.6213344857" lon="12.2287978325"><ele>438.50</ele><time>2014-05-03T07:35:08Z</time></trkpt><trkpt lat="49.6212970186" lon="12.2288059629"><ele>438.50</ele><time>2014-05-03T07:35:09Z</time></trkpt><trkpt lat="49.6212575398" lon="12.2288160212"><ele>438.02</ele><time>2014-05-03T07:35:10Z</time></trkpt><trkpt lat="49.6212168876" lon="12.2288303543"><ele>438.02</ele><time>2014-05-03T07:35:11Z</time></trkpt><trkpt lat="49.6211757325" lon="12.2288454417"><ele>438.02</ele><time>2014-05-03T07:35:12Z</time></trkpt><trkpt lat="49.6211331524" lon="12.2288586851"><ele>438.02</ele><time>2014-05-03T07:35:13Z</time></trkpt><trkpt lat="49.6210886445" lon="12.2288727667"><ele>438.02</ele><time>2014-05-03T07:35:14Z</time></trkpt><trkpt lat="49.6210438013" lon="12.2288861778"><ele>438.02</ele><time>2014-05-03T07:35:15Z</time></trkpt><trkpt lat="49.6209997125" lon="12.2288974095"><ele>438.02</ele><time>2014-05-03T07:35:16Z</time></trkpt><trkpt lat="49.6209541149" lon="12.2289092280"><ele>437.54</ele><time>2014-05-03T07:35:17Z</time></trkpt><trkpt lat="49.6209095232" lon="12.2289224714"><ele>437.54</ele><time>2014-05-03T07:35:18Z</time></trkpt><trkpt lat="49.6208664402" lon="12.2289358824"><ele>437.54</ele><time>2014-05-03T07:35:19Z</time></trkpt><trkpt lat="49.6208233573" lon="12.2289487068"><ele>437.54</ele><time>2014-05-03T07:35:20Z</time></trkpt><trkpt lat="49.6207804419" lon="12.2289599385"><ele>437.54</ele><time>2014-05-03T07:35:21Z</time></trkpt><trkpt lat="49.6207377780" lon="12.2289720923"><ele>437.54</ele><time>2014-05-03T07:35:22Z</time></trkpt><trkpt lat="49.6206964552" lon="12.2289834078"><ele>437.54</ele><time>2014-05-03T07:35:23Z</time></trkpt><trkpt lat="49.6206557192" lon="12.2289962322"><ele>437.54</ele><time>2014-05-03T07:35:24Z</time></trkpt><trkpt lat="49.6206156537" lon="12.2290116549"><ele>437.54</ele><time>2014-05-03T07:35:25Z</time></trkpt><trkpt lat="49.6205778513" lon="12.2290321067"><ele>437.54</ele><time>2014-05-03T07:35:26Z</time></trkpt><trkpt lat="49.6205419768" lon="12.2290585097"><ele>437.54</ele><time>2014-05-03T07:35:27Z</time></trkpt><trkpt lat="49.6205080301" lon="12.2290878464"><ele>437.54</ele><time>2014-05-03T07:35:28Z</time></trkpt><trkpt lat="49.6204742510" lon="12.2291090526"><ele>437.54</ele><time>2014-05-03T07:35:29Z</time></trkpt><trkpt lat="49.6204376221" lon="12.2291264031"><ele>437.54</ele><time>2014-05-03T07:35:30Z</time></trkpt><trkpt lat="49.6203977242" lon="12.2291451786"><ele>437.06</ele><time>2014-05-03T07:35:31Z</time></trkpt><trkpt lat="49.6203569882" lon="12.2291534767"><ele>437.54</ele><time>2014-05-03T07:35:32Z</time></trkpt><trkpt lat="49.6203144919" lon="12.2291551530"><ele>437.54</ele><time>2014-05-03T07:35:33Z</time></trkpt><trkpt lat="49.6202738397" lon="12.2291589249"><ele>437.54</ele><time>2014-05-03T07:35:34Z</time></trkpt><trkpt lat="49.6202345286" lon="12.2291652951"><ele>437.06</ele><time>2014-05-03T07:35:35Z</time></trkpt><trkpt lat="49.6201948822" lon="12.2291669715"><ele>437.06</ele><time>2014-05-03T07:35:36Z</time></trkpt><trkpt lat="49.6201525535" lon="12.2291639540"><ele>437.06</ele><time>2014-05-03T07:35:37Z</time></trkpt><trkpt lat="49.6201092191" lon="12.2291664686"><ele>437.54</ele><time>2014-05-03T07:35:38Z</time></trkpt><trkpt lat="49.6200655494" lon="12.2291734256"><ele>437.54</ele><time>2014-05-03T07:35:39Z</time></trkpt><trkpt lat="49.6200207062" lon="12.2291809693"><ele>437.06</ele><time>2014-05-03T07:35:40Z</time></trkpt><trkpt lat="49.6199765336" lon="12.2291952185"><ele>437.54</ele><time>2014-05-03T07:35:41Z</time></trkpt><trkpt lat="49.6199320257" lon="12.2292135749"><ele>437.54</ele><time>2014-05-03T07:35:42Z</time></trkpt><trkpt lat="49.6198860928" lon="12.2292293329"><ele>437.54</ele><time>2014-05-03T07:35:43Z</time></trkpt><trkpt lat="49.6198399924" lon="12.2292435821"><ele>437.54</ele><time>2014-05-03T07:35:44Z</time></trkpt><trkpt lat="49.6197951492" lon="12.2292558197"><ele>437.54</ele><time>2014-05-03T07:35:45Z</time></trkpt><trkpt lat="49.6197524015" lon="12.2292686440"><ele>437.54</ele><time>2014-05-03T07:35:46Z</time></trkpt><trkpt lat="49.6197104082" lon="12.2292818874"><ele>437.54</ele><time>2014-05-03T07:35:47Z</time></trkpt><trkpt lat="49.6196674090" lon="12.2292968072"><ele>437.54</ele><time>2014-05-03T07:35:48Z</time></trkpt><trkpt lat="49.6196245775" lon="12.2293133195"><ele>437.54</ele><time>2014-05-03T07:35:49Z</time></trkpt><trkpt lat="49.6195809916" lon="12.2293274011"><ele>437.54</ele><time>2014-05-03T07:35:50Z</time></trkpt><trkpt lat="49.6195400879" lon="12.2293397225"><ele>437.54</ele><time>2014-05-03T07:35:51Z</time></trkpt><trkpt lat="49.6194989327" lon="12.2293544747"><ele>437.54</ele><time>2014-05-03T07:35:52Z</time></trkpt><trkpt lat="49.6194566041" lon="12.2293693107"><ele>437.54</ele><time>2014-05-03T07:35:53Z</time></trkpt><trkpt lat="49.6194137726" lon="12.2293816321"><ele>437.54</ele><time>2014-05-03T07:35:54Z</time></trkpt><trkpt lat="49.6193690132" lon="12.2293921933"><ele>437.54</ele><time>2014-05-03T07:35:55Z</time></trkpt><trkpt lat="49.6193246730" lon="12.2294051852"><ele>437.54</ele><time>2014-05-03T07:35:56Z</time></trkpt><trkpt lat="49.6192794107" lon="12.2294201050"><ele>437.54</ele><time>2014-05-03T07:35:57Z</time></trkpt><trkpt lat="49.6192324720" lon="12.2294335999"><ele>437.54</ele><time>2014-05-03T07:35:58Z</time></trkpt><trkpt lat="49.6191862877" lon="12.2294472624"><ele>437.54</ele><time>2014-05-03T07:35:59Z</time></trkpt><trkpt lat="49.6191421151" lon="12.2294637747"><ele>437.54</ele><time>2014-05-03T07:36:00Z</time></trkpt><trkpt lat="49.6190983616" lon="12.2294792812"><ele>437.54</ele><time>2014-05-03T07:36:01Z</time></trkpt><trkpt lat="49.6190546080" lon="12.2294947039"><ele>437.54</ele><time>2014-05-03T07:36:02Z</time></trkpt><trkpt lat="49.6190089267" lon="12.2295053490"><ele>437.54</ele><time>2014-05-03T07:36:03Z</time></trkpt><trkpt lat="49.6189615689" lon="12.2295166645"><ele>437.06</ele><time>2014-05-03T07:36:04Z</time></trkpt><trkpt lat="49.6189134568" lon="12.2295278125"><ele>437.54</ele><time>2014-05-03T07:36:05Z</time></trkpt><trkpt lat="49.6188651770" lon="12.2295403015"><ele>437.06</ele><time>2014-05-03T07:36:06Z</time></trkpt><trkpt lat="49.6188167296" lon="12.2295555566"><ele>437.06</ele><time>2014-05-03T07:36:07Z</time></trkpt><trkpt lat="49.6187688690" lon="12.2295713145"><ele>437.06</ele><time>2014-05-03T07:36:08Z</time></trkpt><trkpt lat="49.6187210083" lon="12.2295863181"><ele>437.06</ele><time>2014-05-03T07:36:09Z</time></trkpt><trkpt lat="49.6186744049" lon="12.2296006512"><ele>437.06</ele><time>2014-05-03T07:36:10Z</time></trkpt><trkpt lat="49.6186288912" lon="12.2296128049"><ele>437.06</ele><time>2014-05-03T07:36:11Z</time></trkpt><trkpt lat="49.6185796056" lon="12.2296259645"><ele>437.06</ele><time>2014-05-03T07:36:12Z</time></trkpt><trkpt lat="49.6185289789" lon="12.2296440694"><ele>437.06</ele><time>2014-05-03T07:36:13Z</time></trkpt><trkpt lat="49.6184768435" lon="12.2296631802"><ele>437.06</ele><time>2014-05-03T07:36:14Z</time></trkpt><trkpt lat="49.6184236184" lon="12.2296812851"><ele>436.58</ele><time>2014-05-03T07:36:15Z</time></trkpt><trkpt lat="49.6183675434" lon="12.2296933550"><ele>436.58</ele><time>2014-05-03T07:36:16Z</time></trkpt><trkpt lat="49.6183097921" lon="12.2297069337"><ele>436.58</ele><time>2014-05-03T07:36:17Z</time></trkpt><trkpt lat="49.6182497777" lon="12.2297225241"><ele>436.58</ele><time>2014-05-03T07:36:18Z</time></trkpt><trkpt lat="49.6181880031" lon="12.2297387850"><ele>436.58</ele><time>2014-05-03T07:36:19Z</time></trkpt><trkpt lat="49.6181242168" lon="12.2297560517"><ele>436.58</ele><time>2014-05-03T07:36:20Z</time></trkpt><trkpt lat="49.6180574130" lon="12.2297745757"><ele>436.58</ele><time>2014-05-03T07:36:21Z</time></trkpt><trkpt lat="49.6179884300" lon="12.2297922615"><ele>436.10</ele><time>2014-05-03T07:36:22Z</time></trkpt><trkpt lat="49.6179207880" lon="12.2298131324"><ele>436.10</ele><time>2014-05-03T07:36:23Z</time></trkpt><trkpt lat="49.6178529784" lon="12.2298370209"><ele>436.10</ele><time>2014-05-03T07:36:24Z</time></trkpt><trkpt lat="49.6177860070" lon="12.2298630048"><ele>436.10</ele><time>2014-05-03T07:36:25Z</time></trkpt><trkpt lat="49.6177187003" lon="12.2298873961"><ele>436.58</ele><time>2014-05-03T07:36:26Z</time></trkpt><trkpt lat="49.6176503878" lon="12.2299114522"><ele>436.58</ele><time>2014-05-03T07:36:27Z</time></trkpt><trkpt lat="49.6175828297" lon="12.2299313173"><ele>436.58</ele><time>2014-05-03T07:36:28Z</time></trkpt><trkpt lat="49.6175137628" lon="12.2299475782"><ele>436.58</ele><time>2014-05-03T07:36:29Z</time></trkpt><trkpt lat="49.6174448635" lon="12.2299658507"><ele>436.10</ele><time>2014-05-03T07:36:30Z</time></trkpt><trkpt lat="49.6173766349" lon="12.2299865540"><ele>436.10</ele><time>2014-05-03T07:36:31Z</time></trkpt><trkpt lat="49.6173091605" lon="12.2300091852"><ele>436.58</ele><time>2014-05-03T07:36:32Z</time></trkpt><trkpt lat="49.6172413509" lon="12.2300365940"><ele>436.58</ele><time>2014-05-03T07:36:33Z</time></trkpt><trkpt lat="49.6171721164" lon="12.2300625779"><ele>436.58</ele><time>2014-05-03T07:36:34Z</time></trkpt><trkpt lat="49.6171044745" lon="12.2300877236"><ele>436.58</ele><time>2014-05-03T07:36:35Z</time></trkpt><trkpt lat="49.6170380060" lon="12.2301130369"><ele>436.58</ele><time>2014-05-03T07:36:36Z</time></trkpt><trkpt lat="49.6169738006" lon="12.2301343270"><ele>437.06</ele><time>2014-05-03T07:36:37Z</time></trkpt><trkpt lat="49.6169064101" lon="12.2301555332"><ele>437.06</ele><time>2014-05-03T07:36:38Z</time></trkpt><trkpt lat="49.6168385167" lon="12.2301765718"><ele>437.06</ele><time>2014-05-03T07:36:39Z</time></trkpt><trkpt lat="49.6167704556" lon="12.2301980294"><ele>437.06</ele><time>2014-05-03T07:36:40Z</time></trkpt><trkpt lat="49.6167002153" lon="12.2302180622"><ele>437.06</ele><time>2014-05-03T07:36:41Z</time></trkpt><trkpt lat="49.6166295558" lon="12.2302350774"><ele>436.58</ele><time>2014-05-03T07:36:42Z</time></trkpt><trkpt lat="49.6165584773" lon="12.2302578762"><ele>436.58</ele><time>2014-05-03T07:36:43Z</time></trkpt><trkpt lat="49.6164858900" lon="12.2302792501"><ele>436.58</ele><time>2014-05-03T07:36:44Z</time></trkpt><trkpt lat="49.6164111234" lon="12.2302995343"><ele>436.10</ele><time>2014-05-03T07:36:45Z</time></trkpt><trkpt lat="49.6163343452" lon="12.2303192317"><ele>436.10</ele><time>2014-05-03T07:36:46Z</time></trkpt><trkpt lat="49.6162558068" lon="12.2303381748"><ele>435.61</ele><time>2014-05-03T07:36:47Z</time></trkpt><trkpt lat="49.6161753405" lon="12.2303535976"><ele>435.13</ele><time>2014-05-03T07:36:48Z</time></trkpt><trkpt lat="49.6160937008" lon="12.2303746361"><ele>434.65</ele><time>2014-05-03T07:36:49Z</time></trkpt><trkpt lat="49.6160121448" lon="12.2303990275"><ele>434.65</ele><time>2014-05-03T07:36:50Z</time></trkpt><trkpt lat="49.6159294993" lon="12.2304220777"><ele>434.65</ele><time>2014-05-03T07:36:51Z</time></trkpt><trkpt lat="49.6158468537" lon="12.2304463852"><ele>434.65</ele><time>2014-05-03T07:36:52Z</time></trkpt><trkpt lat="49.6157645434" lon="12.2304794099"><ele>433.69</ele><time>2014-05-03T07:36:53Z</time></trkpt><trkpt lat="49.6156805567" lon="12.2305151168"><ele>433.69</ele><time>2014-05-03T07:36:54Z</time></trkpt><trkpt lat="49.6155953966" lon="12.2305562720"><ele>433.21</ele><time>2014-05-03T07:36:55Z</time></trkpt><trkpt lat="49.6155102365" lon="12.2305963375"><ele>433.21</ele><time>2014-05-03T07:36:56Z</time></trkpt><trkpt lat="49.6154225618" lon="12.2306296136"><ele>433.21</ele><time>2014-05-03T07:36:57Z</time></trkpt><trkpt lat="49.6153329592" lon="12.2306558490"><ele>433.69</ele><time>2014-05-03T07:36:58Z</time></trkpt><trkpt lat="49.6152473800" lon="12.2306830063"><ele>434.65</ele><time>2014-05-03T07:36:59Z</time></trkpt><trkpt lat="49.6151658241" lon="12.2307122592"><ele>434.65</ele><time>2014-05-03T07:37:00Z</time></trkpt><trkpt lat="49.6150855254" lon="12.2307395842"><ele>435.13</ele><time>2014-05-03T07:37:01Z</time></trkpt><trkpt lat="49.6150068194" lon="12.2307702620"><ele>435.61</ele><time>2014-05-03T07:37:02Z</time></trkpt><trkpt lat="49.6149299573" lon="12.2308053821"><ele>435.61</ele><time>2014-05-03T07:37:03Z</time></trkpt><trkpt lat="49.6148547716" lon="12.2308391612"><ele>436.10</ele><time>2014-05-03T07:37:04Z</time></trkpt><trkpt lat="49.6147813462" lon="12.2308800649"><ele>436.10</ele><time>2014-05-03T07:37:05Z</time></trkpt><trkpt lat="49.6147066634" lon="12.2309156880"><ele>436.10</ele><time>2014-05-03T07:37:06Z</time></trkpt><trkpt lat="49.6146326512" lon="12.2309523169"><ele>436.58</ele><time>2014-05-03T07:37:07Z</time></trkpt><trkpt lat="49.6145598963" lon="12.2309962381"><ele>437.06</ele><time>2014-05-03T07:37:08Z</time></trkpt><trkpt lat="49.6144879796" lon="12.2310407460"><ele>437.06</ele><time>2014-05-03T07:37:09Z</time></trkpt><trkpt lat="49.6144163143" lon="12.2310794704"><ele>437.54</ele><time>2014-05-03T07:37:10Z</time></trkpt><trkpt lat="49.6143478341" lon="12.2311171889"><ele>438.02</ele><time>2014-05-03T07:37:11Z</time></trkpt><trkpt lat="49.6142830420" lon="12.2311575897"><ele>438.50</ele><time>2014-05-03T07:37:12Z</time></trkpt><trkpt lat="49.6142215189" lon="12.2311957274"><ele>438.50</ele><time>2014-05-03T07:37:13Z</time></trkpt><trkpt lat="49.6141631808" lon="12.2312310990"><ele>438.98</ele><time>2014-05-03T07:37:14Z</time></trkpt><trkpt lat="49.6141069382" lon="12.2312637046"><ele>439.46</ele><time>2014-05-03T07:37:15Z</time></trkpt><trkpt lat="49.6140527911" lon="12.2312948015"><ele>439.46</ele><time>2014-05-03T07:37:16Z</time></trkpt><trkpt lat="49.6139999852" lon="12.2313257307"><ele>439.94</ele><time>2014-05-03T07:37:17Z</time></trkpt><trkpt lat="49.6139491070" lon="12.2313564923"><ele>439.94</ele><time>2014-05-03T07:37:18Z</time></trkpt><trkpt lat="49.6139014978" lon="12.2313896008"><ele>440.42</ele><time>2014-05-03T07:37:19Z</time></trkpt><trkpt lat="49.6138560679" lon="12.2314186022"><ele>440.90</ele><time>2014-05-03T07:37:20Z</time></trkpt><trkpt lat="49.6138123982" lon="12.2314470168"><ele>440.90</ele><time>2014-05-03T07:37:21Z</time></trkpt><trkpt lat="49.6137715783" lon="12.2314782813"><ele>441.38</ele><time>2014-05-03T07:37:22Z</time></trkpt><trkpt lat="49.6137324348" lon="12.2315087076"><ele>441.86</ele><time>2014-05-03T07:37:23Z</time></trkpt><trkpt lat="49.6136948839" lon="12.2315382957"><ele>442.34</ele><time>2014-05-03T07:37:24Z</time></trkpt><trkpt lat="49.6136573330" lon="12.2315682191"><ele>442.34</ele><time>2014-05-03T07:37:25Z</time></trkpt><trkpt lat="49.6136195306" lon="12.2315999027"><ele>442.82</ele><time>2014-05-03T07:37:26Z</time></trkpt><trkpt lat="49.6135808062" lon="12.2316307481"><ele>442.82</ele><time>2014-05-03T07:37:27Z</time></trkpt><trkpt lat="49.6135439258" lon="12.2316631861"><ele>443.31</ele><time>2014-05-03T07:37:28Z</time></trkpt><trkpt lat="49.6135081351" lon="12.2316900920"><ele>443.79</ele><time>2014-05-03T07:37:29Z</time></trkpt><trkpt lat="49.6134732664" lon="12.2317194287"><ele>444.27</ele><time>2014-05-03T07:37:30Z</time></trkpt><trkpt lat="49.6134387329" lon="12.2317481786"><ele>444.27</ele><time>2014-05-03T07:37:31Z</time></trkpt><trkpt lat="49.6134054568" lon="12.2317740787"><ele>444.75</ele><time>2014-05-03T07:37:32Z</time></trkpt><trkpt lat="49.6133730188" lon="12.2318007331"><ele>445.23</ele><time>2014-05-03T07:37:33Z</time></trkpt><trkpt lat="49.6133415867" lon="12.2318308242"><ele>445.71</ele><time>2014-05-03T07:37:34Z</time></trkpt><trkpt lat="49.6133097354" lon="12.2318584006"><ele>446.19</ele><time>2014-05-03T07:37:35Z</time></trkpt><trkpt lat="49.6132779680" lon="12.2318834625"><ele>446.67</ele><time>2014-05-03T07:37:36Z</time></trkpt><trkpt lat="49.6132477932" lon="12.2319087759"><ele>446.67</ele><time>2014-05-03T07:37:37Z</time></trkpt></trkseg></trk></gpx>